[[{"header":{"parameterUnit":"m.s-1","parameterCategory":1,"la1":30.6,"la2":28.766,"lo1":-90.7593,"lo2":-88.6598,"dy":0.0162,"dx":0.0183,"nx":116,"ny":114,"refTime":"2024-06-11T18:00:00:Z","depth":0,"parameterNumber":2,"parameterNumberName":"U-component_of_WINDS"},"data":[0.0,0.0,0.0,0.0,0.0,0.0,0.0,0.0,0.0,0.0,0.0,0.0,0.0,0.0,0.0,0.0,0.0,0.0,0.0,0.0,0.0,0.0,0.0,0.0,0.0,0.0,0.0,0.0,0.0,0.0,0.0,0.0,0.0,0.0,0.0,0.0,0.0,0.0,0.0,0.0,0.0,0.0,0.0,0.0,0.0,0.0,0.0,0.0,0.0,0.0,0.0,0.0,0.0,0.0,0.0,0.0,0.0,0.0,0.0,0.0,0.0,0.0,0.0,0.0,0.0,0.0,0.0,0.0,0.0,0.0,0.0,0.0,0.0,0.0,0.0,0.0,0.0,0.0,0.0,0.0,0.0,0.0,0.0,0.0,0.0,0.0,0.0,0.0,0.0,0.0,0.0,0.0,0.0,0.0,0.0,0.0,0.0,0.0,0.0,0.0,0.0,0.0,0.0,0.0,0.0,0.0,0.0,0.0,0.0,0.0,0.0,0.0,0.0,0.0,0.0,0.0,0.0,0.0,0.0,0.0,0.0,0.0,0.0,0.0,0.0,0.0,0.0,0.0,0.0,0.0,0.0,0.0,0.0,0.0,0.0,0.0,0.0,0.0,0.0,0.0,0.0,0.0,0.0,0.0,0.0,0.0,0.0,0.0,0.0,0.0,0.0,0.0,0.0,0.0,0.0,0.0,0.0,0.0,0.0,0.0,0.0,0.0,0.0,0.0,0.0,0.0,0.0,0.0,0.0,0.0,0.0,0.0,0.0,0.0,0.0,0.0,0.0,0.0,0.0,0.0,0.0,0.0,0.0,0.0,0.0,0.0,0.0,0.0,0.0,0.0,0.0,0.0,0.0,0.0,0.0,0.0,0.0,0.0,0.0,0.0,0.0,0.0,0.0,0.0,0.0,0.0,0.0,0.0,0.0,0.0,0.0,0.0,0.0,0.0,0.0,0.0,0.0,0.0,0.0,0.0,0.0,0.0,0.0,0.0,0.0,0.0,0.0,0.0,0.0,0.0,0.0,0.0,0.0,0.0,0.0,0.0,0.0,0.0,0.0,0.0,0.0,0.0,0.0,0.0,0.0,0.0,0.0,0.0,0.0,0.0,0.0,0.0,0.0,0.0,0.0,0.0,0.0,0.0,0.0,0.0,0.0,0.0,0.0,0.0,0.0,0.0,0.0,0.0,0.0,0.0,0.0,0.0,0.0,0.0,0.0,0.0,0.0,0.0,0.0,0.0,0.0,0.0,0.0,0.0,0.0,0.0,0.0,0.0,0.0,0.0,0.0,0.0,0.0,0.0,0.0,0.0,0.0,0.0,0.0,0.0,0.0,0.0,0.0,0.0,0.0,0.0,0.0,0.0,0.0,0.0,0.0,0.0,0.0,0.0,0.0,0.0,0.0,0.0,0.0,0.0,0.0,0.0,0.0,0.0,0.0,0.0,0.0,0.0,0.0,0.0,0.0,0.0,0.0,0.0,0.0,0.0,0.0,0.0,0.0,0.0,0.0,0.0,0.0,0.0,0.0,0.0,0.0,0.0,0.0,0.0,0.0,0.0,0.0,0.0,0.0,0.0,0.0,0.0,0.0,0.0,0.0,0.0,0.0,0.0,0.0,0.0,0.0,0.0,0.0,0.0,0.0,0.0,0.0,0.0,0.0,0.0,0.0,0.0,0.0,0.0,0.0,0.0,0.0,0.0,0.0,0.0,0.0,0.0,0.0,0.0,0.0,0.0,0.0,0.0,0.0,0.0,0.0,0.0,0.0,0.0,0.0,0.0,0.0,0.0,0.0,0.0,0.0,0.0,0.0,0.0,0.0,0.0,0.0,0.0,0.0,0.0,0.0,0.0,0.0,0.0,0.0,0.0,0.0,0.0,0.0,0.0,0.0,0.0,0.0,0.0,0.0,0.0,0.0,0.0,0.0,0.0,0.0,0.0,0.0,0.0,0.0,0.0,0.0,0.0,0.0,0.0,0.0,0.0,0.0,0.0,0.0,0.0,0.0,0.0,0.0,0.0,0.0,0.0,0.0,0.0,0.0,0.0,0.0,0.0,0.0,0.0,0.0,0.0,0.0,0.0,0.0,0.0,0.0,0.0,0.0,0.0,0.0,0.0,0.0,0.0,0.0,0.0,0.0,0.0,0.0,0.0,0.0,0.0,0.0,0.0,0.0,0.0,0.0,0.0,0.0,0.0,0.0,0.0,0.0,0.0,0.0,0.0,0.0,0.0,0.0,0.0,0.0,0.0,0.0,0.0,0.0,0.0,0.0,0.0,0.0,0.0,0.0,0.0,0.0,0.0,0.0,0.0,0.0,0.0,0.0,0.0,0.0,0.0,0.0,0.0,0.0,0.0,0.0,0.0,0.0,0.0,0.0,0.0,0.0,0.0,0.0,0.0,0.0,0.0,0.0,0.0,0.0,0.0,0.0,0.0,0.0,0.0,0.0,0.0,0.0,0.0,0.0,0.0,0.0,0.0,0.0,0.0,0.0,0.0,0.0,0.0,0.0,0.0,0.0,0.0,0.0,0.0,0.0,0.0,0.0,0.0,0.0,0.0,0.0,0.0,0.0,0.0,0.0,0.0,0.0,0.0,0.0,0.0,0.0,0.0,0.0,0.0,0.0,0.0,0.0,0.0,0.0,0.0,0.0,0.0,0.0,0.0,0.0,0.0,0.0,0.0,0.0,0.0,0.0,0.0,0.0,0.0,0.0,0.0,0.0,0.0,0.0,0.0,0.0,0.0,0.0,0.0,0.0,0.0,0.0,0.0,0.0,0.0,0.0,0.0,0.0,0.0,0.0,0.0,0.0,0.0,0.0,0.0,0.0,0.0,0.0,0.0,0.0,0.0,0.0,0.0,0.0,0.0,0.0,0.0,0.0,0.0,0.0,0.0,0.0,0.0,0.0,0.0,0.0,0.0,0.0,0.0,0.0,0.0,0.0,0.0,0.0,0.0,0.0,0.0,0.0,0.0,0.0,0.0,0.0,0.0,0.0,0.0,0.0,0.0,0.0,0.0,0.0,0.0,0.0,0.0,0.0,0.0,0.0,0.0,0.0,0.0,0.0,0.0,0.0,0.0,0.0,0.0,0.0,0.0,0.0,0.0,0.0,0.0,0.0,0.0,0.0,0.0,0.0,0.0,0.0,0.0,0.0,0.0,0.0,0.0,0.0,0.0,0.0,0.0,0.0,0.0,0.0,0.0,0.0,0.0,0.0,0.0,0.0,0.0,0.0,0.0,0.0,0.0,0.0,0.0,0.0,0.0,0.0,0.0,0.0,0.0,0.0,0.0,0.0,0.0,0.0,0.0,0.0,0.0,0.0,0.0,0.0,0.0,0.0,0.0,0.0,0.0,0.0,0.0,0.0,0.0,0.0,0.0,0.0,0.0,0.0,0.0,0.0,0.0,0.0,0.0,0.0,0.0,0.0,0.0,0.0,0.0,0.0,0.0,0.0,0.0,0.0,0.0,0.0,0.0,0.0,0.0,0.0,0.0,0.0,0.0,0.0,0.0,0.0,0.0,0.0,0.0,0.0,0.0,0.0,0.0,0.0,0.0,0.0,0.0,0.0,0.0,0.0,0.0,0.0,0.0,0.0,0.0,0.0,0.0,0.0,0.0,0.0,0.0,0.0,0.0,0.0,0.0,0.0,0.0,0.0,0.0,0.0,0.0,0.0,0.0,0.0,0.0,0.0,0.0,0.0,0.0,0.0,0.0,0.0,0.0,0.0,0.0,0.0,0.0,0.0,0.0,0.0,0.0,0.0,0.0,0.0,0.0,0.0,0.0,0.0,0.0,0.0,0.0,0.0,0.0,0.0,0.0,0.0,0.0,0.0,0.0,0.0,0.0,0.0,0.0,0.0,0.0,0.0,0.0,0.0,0.0,0.0,0.0,0.0,0.0,0.0,0.0,0.0,0.0,0.0,0.0,0.0,0.0,0.0,0.0,0.0,0.0,0.0,0.0,0.0,0.0,0.0,0.0,0.0,0.0,0.0,0.0,0.0,0.0,0.0,0.0,0.0,0.0,0.0,0.0,0.0,0.0,0.0,0.0,0.0,0.0,0.0,0.0,0.0,0.0,0.0,0.0,0.0,0.0,0.0,0.0,0.0,0.0,0.0,0.0,0.0,0.0,0.0,0.0,0.0,0.0,0.0,0.0,0.0,0.0,0.0,0.0,0.0,0.0,0.0,0.0,0.0,0.0,0.0,0.0,0.0,0.0,0.0,0.0,0.0,0.0,0.0,0.0,0.0,0.0,0.0,0.0,0.0,0.0,0.0,0.0,0.0,0.0,0.0,0.0,0.0,0.0,0.0,0.0,0.0,0.0,0.0,0.0,0.0,0.0,0.0,0.0,0.0,0.0,0.0,0.0,0.0,0.0,0.0,0.0,0.0,0.0,0.0,0.0,0.0,0.0,0.0,0.0,0.0,0.0,0.0,0.0,0.0,0.0,0.0,0.0,0.0,0.0,0.0,0.0,0.0,0.0,0.0,0.0,0.0,0.0,0.0,0.0,0.0,0.0,0.0,0.0,0.0,0.0,0.0,0.0,0.0,0.0,0.0,0.0,0.0,0.0,0.0,0.0,0.0,0.0,0.0,0.0,0.0,0.0,0.0,0.0,0.0,0.0,0.0,0.0,0.0,0.0,0.0,0.0,0.0,0.0,0.0,0.0,0.0,0.0,0.0,0.0,0.0,0.0,0.0,0.0,0.0,0.0,0.0,0.0,0.0,0.0,0.0,0.0,0.0,0.0,0.0,0.0,0.0,0.0,0.0,0.0,0.0,0.0,0.0,0.0,0.0,0.0,0.0,0.0,0.0,0.0,0.0,0.0,0.0,0.0,0.0,0.0,0.0,0.0,0.0,0.0,0.0,0.0,0.0,0.0,0.0,0.0,0.0,0.0,0.0,0.0,0.0,0.0,0.0,0.0,0.0,0.0,0.0,0.0,0.0,0.0,0.0,0.0,0.0,0.0,0.0,0.0,0.0,0.0,0.0,0.0,0.0,0.0,0.0,0.0,0.0,0.0,0.0,0.0,0.0,0.0,0.0,0.0,0.0,0.0,0.0,0.0,0.0,0.0,0.0,0.0,0.0,0.0,0.0,0.0,0.0,0.0,0.0,0.0,0.0,0.0,0.0,0.0,0.0,0.0,0.0,0.0,0.0,0.0,0.0,0.0,0.0,0.0,0.0,0.0,0.0,0.0,0.0,0.0,0.0,0.0,0.0,0.0,0.0,0.0,0.0,0.0,0.0,0.0,0.0,0.0,0.0,0.0,0.0,0.0,0.0,0.0,0.0,0.0,0.0,0.0,0.0,0.0,0.0,0.0,0.0,0.0,0.0,0.0,0.0,0.0,0.0,0.0,0.0,0.0,0.0,0.0,0.0,0.0,0.0,0.0,0.0,0.0,0.0,0.0,0.0,0.0,0.0,0.0,0.0,0.0,0.0,0.0,0.0,0.0,0.0,0.0,0.0,0.0,0.0,0.0,0.0,0.0,0.0,0.0,0.0,0.0,0.0,0.0,0.0,0.0,0.0,0.0,0.0,0.0,0.0,0.0,0.0,0.0,0.0,0.0,0.0,0.0,0.0,0.0,0.0,0.0,0.0,0.0,0.0,0.0,0.0,0.0,0.0,0.0,0.0,0.0,0.0,0.0,0.0,0.0,0.0,0.0,0.0,0.0,0.0,0.0,0.0,0.0,0.0,0.0,0.0,0.0,0.0,0.0,0.0,0.0,0.0,0.0,0.0,0.0,0.0,0.0,0.0,0.0,0.0,0.0,0.0,0.0,0.0,0.0,0.0,0.0,0.0,0.0,0.0,0.0,0.0,0.0,0.0,0.0,0.0,0.0,0.0,0.0,0.0,0.0,0.0,0.0,0.0,0.0,0.0,0.0,0.0,0.0,0.0,0.0,0.0,0.0,0.0,0.0,0.0,0.0,0.0,0.0,0.0,0.0,0.0,0.0,0.0,0.0,0.0,0.0,0.0,0.0,0.0,0.0,0.0,0.0,0.0,0.0,0.0,0.0,0.0,0.0,0.0,0.0,0.0,0.0,0.0,0.0,0.0,0.0,0.0,0.0,0.0,0.0,0.0,0.0,0.0,0.0,1.33,1.2092,0.0,0.0,0.0,0.0,0.0,0.0,0.0,0.0,0.0,0.0,0.0,0.0,0.0,0.0,0.0,0.0,0.0,0.0,0.0,0.0,0.0,0.0,0.0,0.507,0.5756,0.5814,0.6293,0.6599,0.6599,0.0,0.0,0.0,0.0,0.0,0.674,0.6757,0.7056,0.7662,0.7812,0.8099,0.8501,0.8368,0.7924,0.7235,0.0,0.0,0.0,0.0,0.0,0.0,0.0,0.0,0.0,0.0,0.0,0.0,0.0,0.0,0.0,0.0,0.0,0.0,0.0,0.0,0.0,0.0,0.0,0.0,0.0,0.0,0.0,0.0,0.0,0.0,0.0,0.0,0.0,0.0,0.0,0.0,0.0,0.0,0.0,0.0,0.0,0.0,0.0,0.0,0.0,0.0,0.0,0.0,0.0,0.0,0.0,0.0,0.0,0.0,0.0,0.0,0.0,0.0,0.0,0.0,0.0,0.0,0.0,0.0,0.0,0.0,0.0,0.0,0.0,0.0,1.495,1.3934,0.0,0.0,0.0,0.0,0.0,0.0,0.0,0.0,0.0,0.0,0.0,0.0,0.0,0.0,0.0,0.0,0.0,0.0,0.0,0.0,0.0,0.4079,0.4382,0.5222,0.5981,0.6552,0.6599,0.6599,0.6599,0.6599,0.0,0.0,0.0,0.6689,0.6908,0.674,0.7269,0.851,0.8568,0.9079,0.9999,0.9903,0.9289,0.8273,0.8103,0.0,0.0,0.0,0.0,0.0,0.0,0.0,0.0,0.0,0.0,0.0,0.0,0.0,0.0,0.0,0.0,0.0,0.0,0.0,0.0,0.0,0.0,0.0,0.0,0.0,0.0,0.0,0.0,0.0,0.0,0.0,0.0,0.0,0.0,0.0,0.0,0.0,0.0,0.0,0.0,0.0,0.0,0.0,0.0,0.0,0.0,0.0,0.0,0.0,0.0,0.0,0.0,0.0,0.0,0.0,0.0,0.0,0.0,0.0,0.0,0.0,0.0,0.0,1.6728,1.7156,1.8234,1.7757,1.7856,1.8336,1.6725,1.6184,1.6378,1.5007,0.0,0.0,0.0,0.0,0.0,0.0,0.0,0.0,0.0,0.0,0.0,0.0,0.0,0.0,0.0,0.0,0.0,0.0,0.0,0.3899,0.2988,0.4284,0.5582,0.6522,0.6599,0.6599,0.6599,0.6599,0.0,0.0,0.6599,0.6689,0.6908,0.6874,0.7391,0.851,0.9643,1.0262,1.0424,1.0979,1.1154,1.0914,0.9301,0.918,1.0069,0.0,0.0,0.0,0.0,0.0,0.0,0.0,0.0,0.0,0.0,0.0,0.0,0.0,0.0,0.0,0.0,0.0,0.0,0.0,0.0,0.0,0.0,0.0,0.0,0.0,0.0,0.0,0.0,0.0,0.0,0.0,0.0,0.0,0.0,0.0,0.0,0.0,0.0,0.0,0.0,0.0,0.9656,0.9635,0.0,0.0,0.0,0.0,0.0,0.0,0.0,0.0,0.0,0.0,0.0,0.0,0.0,1.6509,1.7371,1.8633,1.9039,1.8623,1.9883,2.0305,2.0044,1.9743,2.0108,2.099,2.0551,0.0,1.7964,1.7276,0.0,0.0,0.0,0.0,0.0,0.0,0.0,0.0,0.0,0.0,0.0,0.0,0.0,0.0,0.0,0.0,0.0,0.0,0.0,0.0,0.0,0.466,0.5505,0.6516,0.7739,0.7914,0.6668,0.6982,0.7071,0.677,0.6668,0.6757,0.7064,0.733,0.8365,1.0195,1.1638,1.2355,1.2355,1.2674,1.2793,1.2754,1.1737,1.105,1.0633,0.9923,0.0,0.0,0.0,0.0,0.0,0.0,0.0,0.0,0.0,0.0,0.0,0.0,0.0,0.0,0.0,0.0,0.0,0.0,0.0,0.0,0.0,0.0,0.0,0.0,0.0,0.0,0.0,0.0,0.0,0.0,0.0,0.0,0.0,0.0,0.0,0.0,0.0,0.0,0.0,0.9836,1.0409,0.9953,1.0533,1.0663,0.0,0.0,0.0,0.0,0.0,0.0,0.0,0.0,0.0,1.7422,1.776,1.8504,1.9688,2.009,2.0458,2.0822,2.1228,2.1446,2.1454,2.1366,2.1535,2.1958,2.2004,2.1673,2.0952,1.9817,1.9073,1.8511,0.0,0.0,0.0,0.0,1.8106,1.7983,0.0,0.0,0.0,0.0,0.0,0.0,0.0,0.0,0.0,0.0,0.0,0.0,0.542,0.5482,0.5868,0.6805,0.8735,0.9191,0.7546,0.761,0.7521,0.7144,0.6783,0.6893,0.7555,0.8442,0.9832,1.1753,1.3292,1.4064,1.4064,1.4229,1.4318,1.4303,1.4048,1.3148,1.1783,1.1114,1.0416,0.0,0.0,0.0,0.0,0.0,0.0,0.0,0.0,0.0,0.0,0.0,0.0,0.0,0.0,0.0,0.0,0.0,0.0,0.0,0.0,0.0,0.0,0.0,0.0,0.0,0.0,0.0,0.0,0.0,0.0,0.0,0.0,0.0,0.0,0.0,0.0,0.0,0.0,1.0927,1.1505,1.0732,1.1925,1.2379,0.0,0.0,0.0,0.0,0.0,0.0,1.6261,1.7171,1.8225,1.9452,1.9672,2.0246,2.1294,2.1066,2.1349,2.2106,2.1899,2.1957,2.231,2.231,2.2349,2.2398,2.2625,2.2947,2.3216,2.1799,2.1115,2.0844,2.0213,2.0022,2.0252,2.1098,2.1085,2.0871,0.0,0.0,0.0,0.0,0.0,0.0,0.0,0.0,0.0,0.0,0.0,0.543,0.6414,0.6519,0.6828,0.7581,0.903,0.9853,0.9727,0.8451,0.772,0.7759,0.7004,0.7205,0.8513,1.0545,1.1881,1.2439,1.3975,1.4737,1.4752,1.5409,1.5709,1.5709,1.5665,1.5261,1.4442,1.196,1.1372,1.1889,0.0,0.0,0.0,0.0,0.0,0.0,0.0,0.0,0.0,0.0,0.0,0.0,0.0,0.0,0.0,0.0,0.0,0.0,0.0,0.0,0.0,0.0,0.0,0.0,0.0,0.0,0.0,0.0,0.0,0.0,0.0,0.0,0.0,0.0,0.0,0.0,0.0,0.0,0.0,1.2741,1.4405,0.0,0.0,0.0,0.0,1.5086,1.6949,1.8142,1.8159,1.9526,2.0556,2.1059,2.1769,2.1943,2.1592,2.201,2.2027,2.1658,2.2061,2.2282,2.231,2.231,2.2453,2.2669,2.2695,2.3069,2.3599,2.2767,2.2585,2.2777,2.1987,2.1674,2.1742,2.2089,2.2224,2.225,0.0,0.0,0.0,0.0,0.0,0.263,0.2855,0.3344,0.3817,0.4172,0.4733,0.5482,0.6502,0.7872,0.8821,0.9098,0.9597,0.9699,0.9221,0.8495,0.8236,0.8635,0.7854,0.8387,1.0413,1.2064,1.3257,1.3975,1.5339,1.601,1.6039,1.6712,1.7026,1.7026,1.7026,1.6892,1.6517,1.4342,1.2961,1.2134,1.0944,1.0025,0.0,0.0,0.0,0.0,0.0,0.0,0.0,0.0,0.0,0.0,0.0,0.0,0.0,0.0,0.0,0.0,0.0,0.0,0.0,0.0,0.0,0.0,0.0,0.0,0.0,0.0,0.0,0.0,0.0,0.0,0.0,0.0,0.0,0.0,0.0,0.0,0.0,1.4704,1.571,0.0,1.5023,1.6049,1.6756,1.6741,1.8358,1.9447,1.9712,2.0661,2.1292,2.147,2.172,2.1764,2.1582,2.1507,2.1645,2.2032,2.1899,2.2003,2.231,2.249,2.2625,2.2721,2.3165,2.3477,2.3696,2.3608,2.3673,2.3749,2.3456,2.3418,2.3572,2.3817,2.3966,2.4074,0.0,0.0,0.0,0.0,0.274,0.3114,0.391,0.4044,0.4301,0.5001,0.5094,0.5755,0.7521,0.9021,0.99,0.9899,0.9893,0.9687,0.9206,0.8803,0.8748,0.9184,0.9104,1.0031,1.2141,1.3315,1.4424,1.5441,1.6293,1.6831,1.7055,1.7488,1.7697,1.7697,1.7697,1.7617,1.743,1.6067,1.4629,1.319,1.2488,1.1519,1.0436,0.0,0.0,0.0,0.0,0.0,0.0,0.0,0.0,0.0,0.0,0.0,0.0,0.0,0.0,0.0,0.0,0.0,0.0,0.0,0.0,0.0,0.0,0.0,0.0,0.0,0.0,0.0,0.0,0.0,0.0,0.0,0.0,0.0,0.0,0.0,1.5859,1.6069,1.7071,1.7449,1.6712,1.7638,1.8315,1.8315,1.9374,2.0131,2.0424,2.0907,2.1228,2.1399,2.1521,2.1521,2.1399,2.1415,2.176,2.2429,2.2408,2.2688,2.3249,2.3429,2.3554,2.3667,2.3985,2.4283,2.4486,2.4717,2.4878,2.4961,2.441,2.4284,2.4426,2.47,2.4855,2.4968,0.0,0.0,0.0,0.2599,0.3306,0.4139,0.4966,0.5098,0.5108,0.5108,0.5104,0.6319,0.9546,0.9902,0.9892,0.9868,0.9888,0.9912,0.9905,0.9403,0.9194,0.9426,1.0685,1.2057,1.3516,1.4418,1.5485,1.6741,1.6756,1.71,1.7727,1.7742,1.7757,1.7757,1.7757,1.7545,1.718,1.703,1.6358,1.524,1.3685,1.2537,1.1674,0.0,0.0,0.0,0.0,0.0,0.0,0.0,0.0,0.0,0.0,0.0,0.0,0.0,0.0,0.0,0.0,0.0,0.0,0.0,0.0,0.0,0.0,0.0,0.0,0.0,0.0,0.0,0.0,0.0,0.0,0.0,0.0,0.0,1.4887,1.6533,1.7488,1.6876,1.8523,1.9181,1.7876,1.9305,2.0124,1.9726,2.0054,2.028,2.0314,2.0314,2.0532,2.1023,2.1432,2.1448,2.1103,2.1923,2.2497,2.2778,2.3602,2.4396,2.509,2.509,2.5222,2.5455,2.5167,2.5385,2.5991,2.6015,2.6254,2.6447,2.4887,2.4263,2.4321,2.4729,2.4861,2.4912,0.0,0.0,0.2596,0.2594,0.2794,0.3448,0.4874,0.5087,0.5098,0.5087,0.511,0.6334,0.9546,0.9908,0.9678,0.9135,0.96,0.9891,0.9905,0.9403,0.9407,1.0097,1.2172,1.3766,1.4631,1.5654,1.6592,1.7428,1.7891,1.822,1.8448,1.8927,1.9151,1.9151,1.9151,1.9101,1.896,1.8521,1.7913,1.6987,1.4826,1.3525,1.2826,0.0,0.0,0.0,0.0,0.0,0.0,0.0,0.0,0.0,0.0,0.0,0.0,0.0,0.0,0.0,0.0,0.0,0.0,0.0,0.0,0.0,0.0,0.0,0.0,0.0,0.0,0.0,0.0,0.0,0.0,0.0,0.0,1.6922,1.6922,1.779,1.8553,1.8837,1.9346,1.954,1.9181,1.9557,1.9818,1.9726,1.9818,2.0,2.028,2.0616,2.1117,2.1793,2.2197,2.2618,2.3096,2.3339,2.3629,2.4,2.4245,2.4484,2.4671,2.4936,2.5073,2.514,2.5551,2.5821,2.6015,2.6299,2.649,2.6557,2.6117,2.6018,2.6191,2.6449,2.636,2.6033,0.0,0.2951,0.3643,0.3646,0.3643,0.3974,0.4944,0.5108,0.5243,0.567,0.5731,0.6801,0.9599,0.9889,0.9601,0.8873,0.9463,0.9716,0.9265,0.9353,1.0031,1.1344,1.3305,1.4801,1.5739,1.6647,1.7443,1.81,1.8288,1.8614,1.9121,1.9301,1.9479,1.969,1.969,1.969,1.9639,1.8893,1.8489,1.8106,1.5802,1.4642,1.4224,1.3599,1.3021,1.2397,1.1644,1.1763,1.2082,1.1255,0.0,0.0,0.0,0.0,0.0,0.0,0.0,0.0,0.0,0.0,0.0,0.0,0.0,0.0,0.0,0.0,0.0,0.0,0.0,0.0,0.0,0.0,0.0,0.0,1.6741,1.8223,1.8508,1.8867,1.9256,1.963,1.969,1.969,1.969,1.969,1.9809,2.0094,2.0124,2.0434,2.1151,2.1462,2.1877,2.2549,2.2982,2.3407,2.3902,2.4065,2.4408,2.4949,2.5118,2.5364,2.5702,2.6045,2.6201,2.6247,2.6641,2.6874,2.7031,2.7378,2.7613,2.7682,0.0,0.0,0.0,0.0,2.7275,2.7063,0.0,0.3983,0.5061,0.5095,0.51,0.51,0.5107,0.5205,0.5565,0.6406,0.6561,0.7393,0.9478,0.9687,0.9415,0.8849,0.9404,0.9466,0.8615,0.9529,1.0912,1.2733,1.4086,1.5367,1.6646,1.7426,1.8082,1.8619,1.8216,1.8579,1.9603,1.9132,1.9207,1.969,1.9639,1.9603,1.953,1.8535,1.8341,1.8555,1.6638,1.5761,1.557,1.5268,1.4868,1.4283,1.2981,1.2798,1.2986,1.1899,0.0,0.0,0.0,0.0,0.0,0.0,0.0,0.0,0.0,0.0,0.0,0.0,0.0,0.0,0.0,0.0,0.0,0.0,0.0,0.0,0.0,0.0,0.0,0.0,1.7921,1.9016,1.96,1.969,1.969,1.969,1.969,1.969,1.969,1.975,2.0049,2.0677,2.0782,2.1243,2.2269,2.2434,0.0,0.0,0.0,2.4133,2.4216,2.4572,2.5067,2.5727,2.6134,2.6662,2.7317,2.7725,2.7897,2.7897,2.7954,2.8139,2.8478,2.874,2.9114,2.9324,2.783,2.725,2.7284,2.7637,2.7884,2.8025,0.0,0.4211,0.4781,0.5056,0.5089,0.5094,0.5098,0.5802,0.6242,0.6057,0.6377,0.7102,0.8458,0.8307,0.8294,0.8763,0.9081,0.9529,1.018,1.0885,1.1776,1.2911,1.4507,1.5678,1.6361,1.7778,1.8423,1.8198,1.8555,1.8815,1.9043,1.8968,1.9207,1.969,1.9244,1.9043,1.9006,1.838,1.7907,1.7572,1.7152,1.6717,1.6281,1.6121,1.5706,1.5189,1.4696,1.4904,1.5193,1.3969,1.3403,1.3202,1.3202,0.0,0.0,0.0,0.0,0.0,0.0,0.0,0.0,0.0,0.0,0.0,0.0,0.0,0.0,0.0,0.0,0.0,0.0,0.0,0.0,1.7458,1.8642,1.954,1.9675,1.969,1.969,1.969,1.969,1.969,1.969,2.0183,2.0572,2.0707,2.1201,2.1599,2.1822,2.254,2.3287,2.3975,2.4812,2.5579,2.6152,2.6235,2.6336,2.6471,2.6908,0.0,2.7317,2.7725,2.7897,2.7926,2.8183,2.8442,2.8745,2.9129,2.9514,2.9855,2.9532,2.9399,2.9353,2.8957,2.8829,2.8786,0.445,0.4838,0.5255,0.5759,0.544,0.5106,0.5097,0.5759,0.6189,0.6011,0.6345,0.6912,0.7752,0.7761,0.7799,0.8079,0.8351,0.9098,1.0561,1.1114,1.2074,1.3593,1.517,1.6304,1.7006,1.8466,1.9117,1.8893,1.8893,1.9043,1.9281,1.9043,1.9207,1.969,1.9132,1.8893,1.8855,1.8027,1.7706,1.7666,1.7105,1.6907,1.6851,1.646,1.6133,1.5798,1.5148,1.5216,1.5492,1.4367,1.3983,1.3899,1.3723,1.2896,1.187,0.0,0.0,0.0,0.0,0.0,0.0,0.0,0.0,0.0,0.0,0.0,0.0,0.0,0.0,1.583,0.0,0.0,1.8328,1.8657,1.9256,1.969,1.969,1.9479,1.9406,1.969,1.969,1.9824,2.0168,2.0513,2.0991,2.165,2.1994,2.2551,2.3421,2.3882,2.456,2.5419,2.5933,2.6336,2.6691,2.6906,2.6987,2.7004,2.7409,2.7589,2.7619,2.7992,2.8228,2.8373,2.8748,2.9027,2.9283,2.9645,2.9975,3.0247,3.0247,3.0215,3.0171,2.9894,2.9794,2.9756,0.5158,0.5539,0.5883,0.6373,0.5807,0.5296,0.5267,0.5635,0.5975,0.6103,0.6401,0.6765,0.7193,0.7384,0.7461,0.7399,0.7856,0.8869,1.065,1.1163,1.232,1.4385,1.5829,1.6904,1.7552,1.8967,1.9603,1.9406,1.9043,1.908,1.9369,1.8968,1.8968,1.9369,1.8817,1.8574,1.8535,1.7666,1.7504,1.7706,1.6951,1.6837,1.7107,1.6528,1.6347,1.6204,1.5233,1.5028,1.5033,1.4186,1.3963,1.397,1.3758,1.3471,1.3047,1.1964,1.1767,0.0,0.0,0.0,0.0,0.0,0.0,0.0,0.0,0.0,1.4782,1.5575,1.6578,1.7411,1.7867,1.8386,1.8871,1.9317,1.9406,1.9442,1.953,1.9169,1.9095,1.9639,1.9603,1.9797,2.048,2.075,2.1395,2.2634,2.2911,2.358,2.4839,2.5105,2.5561,2.6385,2.6556,2.6691,2.6825,2.721,2.7426,2.7409,2.7823,2.802,2.8084,2.8428,2.8735,2.8993,2.9395,2.9645,2.9822,3.0148,3.0362,3.0507,3.0507,3.0494,3.0448,3.0487,3.0502,3.0527,0.0,0.5978,0.61,0.5993,0.5995,0.5952,0.5826,0.5963,0.6103,0.6177,0.6432,0.6622,0.6687,0.6719,0.6901,0.7369,0.8345,0.962,1.1216,1.1801,1.2961,1.4946,1.6301,1.7006,1.6972,1.8776,1.9244,1.8302,1.8688,1.8688,1.8302,1.8224,1.8224,1.8263,1.7706,1.7463,1.7463,1.7353,1.7076,1.671,1.7076,1.6951,1.6582,1.6532,1.6464,1.6397,1.5799,1.5233,1.4681,1.4099,1.3821,1.3805,1.4256,1.396,1.345,1.3283,0.0,1.1048,1.1898,1.2552,1.3272,1.453,1.4727,1.5336,0.0,0.0,1.7608,1.8882,1.9256,1.9218,1.8825,1.8823,1.8731,1.8327,1.8302,1.8458,1.893,1.893,1.9095,1.9639,1.9281,1.9228,1.9933,2.0941,2.1889,2.2622,2.3646,2.4081,2.3794,2.4657,2.5259,2.5373,2.6129,2.6754,2.7241,2.7619,2.784,2.784,2.8183,2.8485,2.8722,2.9107,2.9397,2.9624,2.9967,3.0124,3.0171,3.0439,3.0578,3.0594,3.0594,3.0585,3.0564,3.0525,3.055,3.0593,0.0,0.6548,0.6579,0.6493,0.6295,0.6201,0.6301,0.6224,0.6224,0.6411,0.6522,0.6599,0.6599,0.6599,0.6739,0.7073,0.8372,0.976,1.12,1.222,1.3587,1.5433,1.6539,1.719,1.7372,1.8897,1.9479,1.9043,1.9244,1.9244,1.9043,1.9043,1.9043,1.9006,1.8145,1.7947,1.8185,1.7544,1.7353,1.7435,1.7353,1.7146,1.6883,1.6283,1.6032,1.5973,1.5414,1.4631,0.0,0.0,1.3408,1.3354,1.3651,1.3491,1.3185,1.3151,1.2871,0.0,1.4239,1.4199,1.4122,0.0,1.5696,1.6159,1.8187,1.8241,1.8074,1.9016,1.9244,1.908,1.8535,1.8419,1.838,0.0,1.838,1.865,1.8855,1.8893,1.8968,1.9207,1.9043,1.9266,2.0274,2.1173,2.1964,2.2664,2.3489,2.4116,2.4511,2.495,2.5486,2.6052,2.642,2.6884,2.7461,2.7877,2.825,2.8607,2.8975,2.9221,2.9323,2.9514,2.9717,3.0016,3.0266,3.0405,3.0433,3.0598,3.0662,3.0655,3.0665,3.066,3.0642,3.064,3.0623,3.0664,0.0,0.7042,0.698,0.698,0.6705,0.6541,0.6739,0.6553,0.6468,0.6664,0.6676,0.6685,0.6685,0.674,0.6828,0.6963,0.8319,0.9701,1.0942,1.2392,1.3901,1.5456,1.6448,1.7228,1.7682,1.8837,1.9495,1.969,1.969,1.9603,1.9479,1.9479,1.9406,1.9207,1.8458,1.8341,1.8612,1.7867,1.7666,1.7867,1.7463,1.7137,1.679,1.6008,1.5417,1.4965,1.4563,1.381,0.0,0.0,1.2571,1.239,1.2547,1.2596,1.2646,1.2794,1.3352,1.4095,1.474,1.4752,0.0,1.5776,1.6257,1.673,1.7731,1.7945,1.811,1.8603,1.8688,1.8535,1.7987,1.7987,1.8066,1.7907,1.8341,1.8727,1.8893,1.8893,1.8968,1.9095,1.9132,1.9471,2.0341,2.1036,2.1849,2.2823,2.3416,2.4188,2.5166,2.5335,2.5746,2.647,2.6756,2.7174,2.7753,2.8336,2.8839,2.9269,2.9568,2.975,2.9839,2.9905,3.0091,3.0328,3.0471,3.0567,3.0618,3.0677,3.0684,3.0672,3.0673,3.066,3.0664,3.0676,3.0678,3.0691,0.0,0.0,0.718,0.718,0.718,0.7164,0.718,0.7005,0.6885,0.6894,0.6891,0.6891,0.6891,0.7064,0.718,0.718,0.8369,0.9512,1.0465,1.2265,1.3762,1.4797,1.6039,1.7009,1.7682,1.8388,1.9046,1.969,1.969,1.9442,1.893,1.893,1.865,1.8145,1.8106,1.8106,1.8145,1.8106,1.7787,1.7312,1.7312,1.6669,1.5759,1.5693,1.4701,1.3273,1.3248,0.0,1.2354,1.1814,1.1261,1.0803,1.1003,1.1327,0.0,1.2484,1.336,1.3757,1.2166,0.0,1.4921,1.5499,1.6393,1.7316,1.7932,1.8104,1.8118,1.8131,1.8145,1.7947,1.7435,1.7747,1.7947,1.7435,1.7787,1.8302,1.8817,1.8893,1.9095,1.9603,1.969,1.969,0.0,2.0348,2.1477,2.325,2.3882,2.45,2.5173,2.5689,2.5997,2.6013,2.6895,2.7628,2.8178,2.9148,2.966,2.9677,2.9696,2.9857,3.019,3.0452,3.059,3.059,3.066,3.0656,3.0605,3.0665,3.0653,3.0603,3.0598,3.0611,3.0601,3.0608,3.0604,3.0603,0.0,0.0,0.0,0.747,0.747,0.7515,0.765,0.7334,0.7162,0.7345,0.7221,0.0,0.0,0.0,0.0,0.0,0.822,0.9218,1.0427,1.1638,1.304,1.4722,1.5635,1.6398,1.7025,1.7682,1.8164,1.8388,1.8086,1.8238,1.8756,1.8491,1.8637,1.9169,1.8779,1.8817,1.9132,1.8419,1.8419,1.8774,1.7625,1.7159,1.6999,1.5559,1.4479,1.3511,0.0,0.0,1.1295,1.1525,1.1052,1.0481,1.1178,0.0,0.0,1.2146,1.2701,1.2992,1.3054,0.0,1.3729,1.4283,1.4979,1.5804,1.6747,1.7272,1.7463,1.7053,1.7286,1.7286,1.6361,1.6629,1.6993,1.6795,1.7571,1.8096,1.7882,1.9162,1.9868,1.9234,2.0128,0.0,0.0,0.0,0.0,2.2638,2.3311,2.4429,2.6219,2.6502,2.6943,2.7709,2.8041,2.8471,2.9077,2.9401,2.9788,3.0232,3.027,3.0355,3.0481,3.0571,3.0601,3.0591,3.063,3.0621,3.0598,3.0627,3.0621,3.0608,3.0608,3.0569,3.054,3.0521,3.0505,3.0472,0.0,0.0,0.0,0.0,0.0,0.0,0.0,0.0,0.0,0.0,0.0,0.0,0.0,0.0,0.0,0.0,0.0,0.9014,0.9868,1.0892,1.2134,1.366,1.4124,1.4887,1.5995,1.6204,1.6637,1.7339,1.7084,1.7423,1.8358,1.8091,1.8313,1.8986,1.8641,1.8676,1.8937,1.8252,1.8252,1.8582,1.7242,1.6684,1.6444,1.4701,1.3585,0.0,0.0,0.0,1.0456,1.086,1.0718,1.0473,1.0956,1.1113,1.1201,1.1697,1.2207,1.272,1.3113,1.296,1.2894,1.3617,1.4097,1.4641,1.5564,1.6089,1.6262,1.5872,1.6126,1.6233,1.5684,1.5934,1.6335,1.6731,1.7767,1.8454,1.8262,1.9874,2.0816,2.022,2.1051,2.1595,0.0,0.0,0.0,2.2861,2.3679,2.5025,2.7039,2.7297,2.7762,2.8603,2.885,2.9163,2.9569,2.978,3.0106,3.054,3.059,3.0625,3.0599,3.0622,3.0621,3.0609,3.0599,3.0592,3.0563,3.0487,3.0433,3.0369,3.0303,3.0237,3.0199,3.0199,3.018,3.0174,0.0,0.0,0.0,0.0,0.0,0.0,0.0,0.0,0.0,0.0,0.0,0.0,0.0,0.0,0.0,0.0,0.0,0.0,0.889,1.0024,0.0,1.1715,1.1775,1.2703,1.4648,1.4109,1.4695,1.6562,1.6532,1.686,1.7533,1.7533,1.7563,1.7593,1.7593,1.7593,1.7593,1.7593,1.7269,1.6795,1.6164,1.5262,1.4233,1.3276,0.0,0.0,0.0,0.0,0.0,0.9931,0.0,0.0,0.0,0.0,1.2346,1.119,1.1923,1.2951,1.2385,1.2219,1.2493,1.3486,1.3779,1.3956,1.4514,1.4641,1.4664,1.4619,1.4681,1.4903,0.0,0.0,1.6017,1.7007,1.8224,1.9233,1.976,2.0921,2.1892,0.0,0.0,0.0,0.0,0.0,0.0,2.4065,0.0,2.6174,2.7634,2.8056,2.8417,2.8778,2.9368,2.9681,2.9743,3.0304,3.0607,3.0592,3.0665,3.0658,3.0604,3.0668,3.0646,3.0575,3.0567,3.0521,3.0439,3.0242,3.0091,2.9969,2.9763,2.9696,2.9696,2.9696,2.9696,2.9731,0.0,0.0,0.0,0.0,0.0,0.0,0.0,0.0,0.0,0.0,0.0,0.0,0.0,0.0,0.0,0.0,0.0,0.0,0.886,0.9188,0.9893,1.1007,1.1536,1.2269,1.3295,1.363,1.4023,1.4531,1.4231,1.4596,1.553,1.5198,1.5463,1.6293,1.6293,1.6293,1.6263,1.5871,1.5841,1.5979,0.0,1.4573,1.4542,0.0,0.0,0.0,0.0,0.0,0.0,0.0,0.0,0.0,0.0,1.1575,1.2377,0.0,0.0,1.247,1.2675,1.2715,1.2792,1.3074,1.3467,1.3815,1.4003,1.4158,1.4127,1.3615,1.3916,1.4068,0.0,0.0,0.0,1.5529,1.7127,0.0,1.8669,2.0792,0.0,2.1933,0.0,2.4177,2.4108,2.5172,0.0,0.0,2.6399,2.7224,2.9,2.9198,2.9514,3.0098,3.0248,3.0347,3.0365,3.0525,3.0565,3.054,3.0585,3.0623,3.0594,3.0627,3.0508,3.0305,3.03,3.016,2.9902,2.9855,2.982,2.9763,2.9731,2.9696,2.9696,2.9696,2.9696,2.9678,0.0,0.0,0.0,0.0,0.0,0.0,0.0,0.0,0.0,0.0,0.0,0.0,0.0,0.0,0.0,0.0,0.0,0.0,0.0,0.8469,0.8904,0.992,1.0039,1.0533,1.1512,1.1895,1.2224,1.247,0.0,0.0,1.3481,1.3212,1.3591,1.4479,1.4479,1.4659,1.4902,1.4611,0.0,0.0,0.0,0.0,0.0,0.0,0.0,0.0,0.0,0.0,0.0,0.0,0.0,1.2657,1.2139,1.2458,1.3004,1.2683,0.0,1.2616,1.313,1.3104,1.2881,1.2881,1.3324,1.3716,1.3516,1.3726,1.376,1.2893,1.3026,0.0,1.2476,1.3765,0.0,0.0,0.0,0.0,1.9669,2.1562,2.3102,0.0,2.4851,0.0,2.5922,2.6968,2.7773,0.0,2.7958,2.839,2.9551,2.9803,3.0126,3.0581,3.0594,3.0604,3.0604,3.0609,3.0445,3.0143,3.0372,3.0302,3.0029,3.0166,3.0152,2.9981,2.9981,2.9874,2.9696,2.9607,2.9457,2.9283,2.9161,2.9055,2.8909,2.8909,2.8909,2.8905,0.0,0.0,0.0,0.0,0.0,0.0,0.0,0.0,0.0,0.0,0.0,0.0,0.0,0.0,0.0,0.0,0.0,0.0,0.0,0.0,0.0,0.8771,0.8334,0.8589,0.974,0.9845,1.0159,1.0678,0.0,0.0,0.0,0.0,0.0,0.0,0.0,0.0,0.0,0.0,0.0,0.0,0.0,0.0,0.0,0.0,0.0,0.0,0.0,0.0,0.0,0.0,1.3271,1.3503,1.3511,1.3783,1.4015,1.3552,1.3315,1.3324,1.3779,1.36,1.3238,1.3152,1.3515,1.3793,1.3236,1.3466,1.3457,1.2333,0.0,1.2212,1.2071,1.3154,1.4353,1.5367,0.0,1.967,2.1428,2.2725,2.4223,2.627,2.6572,2.698,2.795,2.8704,2.9198,2.9422,2.9444,2.9533,2.9723,3.0119,3.0419,3.0599,3.0526,3.0477,3.0467,3.0433,3.0167,2.964,3.002,2.9907,2.9363,2.96,2.9664,2.9569,2.9569,2.9532,2.9439,2.9316,2.9023,2.8651,2.8435,2.8156,2.7897,2.7897,2.7926,2.7992,0.0,0.0,0.0,0.0,0.0,0.0,0.0,0.0,0.0,0.0,0.8682,0.0,0.0,0.0,0.0,0.0,0.0,0.0,0.0,0.0,0.0,0.8233,0.8666,0.8956,0.907,0.9623,0.995,0.0,0.0,0.0,0.0,0.0,0.0,0.0,0.0,0.0,0.0,0.0,0.0,0.0,0.0,0.0,0.0,0.0,0.0,0.0,0.0,0.0,0.0,0.0,1.4614,1.5116,1.5187,1.5229,1.5269,1.5122,1.5091,1.4993,1.4641,1.479,1.4948,1.4503,1.4468,1.4392,1.3862,1.3392,0.0,0.0,1.1807,1.1656,1.0969,1.2685,1.4346,1.4648,1.6954,1.94,2.1407,2.2916,2.4479,0.0,2.6901,2.7587,2.8622,2.9016,0.0,0.0,3.0279,3.0381,3.0411,3.0506,3.0558,3.0588,3.0117,2.9831,2.9763,2.9605,2.9423,2.9202,2.9626,2.9736,2.9626,2.9362,2.9126,2.8972,2.8972,2.8675,2.8236,2.8478,2.8376,2.8057,2.7992,2.7954,2.7897,2.7897,2.8075,2.8316,0.0,0.0,0.0,0.0,0.0,0.0,0.0,0.0,0.0,1.0065,0.953,0.9072,0.0,0.0,0.0,0.0,0.0,0.0,0.0,0.0,0.0,0.0,0.0,0.8703,0.8631,0.0,0.0,0.0,0.0,0.0,0.0,0.0,0.0,0.0,0.0,0.0,0.0,0.0,0.0,0.0,0.0,0.0,0.0,0.0,0.0,0.0,0.0,0.0,0.0,0.0,1.4394,1.5379,1.6166,1.6434,1.6439,1.6401,1.6163,1.5874,1.564,1.554,1.5416,1.5184,1.533,1.5322,1.4373,0.0,0.0,0.0,1.1809,1.1736,1.105,1.2712,0.0,1.4787,1.6882,1.924,2.1584,2.3062,0.0,2.6825,2.7703,2.8452,0.0,2.9607,2.9924,3.0275,3.0481,3.0605,3.0605,3.0276,2.9934,2.9626,2.9299,2.9203,2.9343,2.9256,2.9008,2.8645,2.9024,2.8956,2.8458,2.8458,2.842,2.8322,2.8322,2.8174,2.7926,2.8075,2.7936,2.7589,2.7589,2.7439,2.7272,2.7272,2.7361,2.7584,0.0,0.0,0.0,0.0,0.0,0.0,0.0,0.9473,0.9844,1.0635,1.0366,1.0063,0.9968,0.9159,0.8602,0.0,0.0,0.0,0.0,0.0,0.0,0.0,0.0,0.0,0.0,0.0,0.0,0.0,0.0,0.0,0.0,0.0,0.0,0.0,0.0,0.0,0.0,0.0,0.0,0.0,0.0,0.0,0.0,0.0,0.0,0.0,0.0,0.0,0.0,0.0,1.3992,1.5091,1.6581,1.7112,1.721,1.733,1.7128,1.6824,1.6777,1.6511,1.6175,1.6102,1.6498,1.653,1.5025,1.5072,0.0,0.0,1.2052,1.2062,1.1549,0.0,1.4381,0.0,1.7186,1.9447,2.1973,2.3545,2.5236,0.0,2.8466,0.0,2.9855,3.0126,0.0,3.0189,3.018,3.0258,3.0373,2.9737,2.9166,2.8696,2.8494,2.8503,2.8787,2.8739,2.8481,2.8005,2.842,2.8129,2.7251,2.7495,2.7613,2.7613,2.7613,2.7631,2.7648,2.7754,2.753,2.7178,2.7178,2.7004,2.6691,2.6691,2.6758,2.6939,0.0,0.0,0.0,0.0,0.0,0.0,0.0,0.9993,1.0671,1.1411,1.0886,1.0705,1.1329,1.0205,0.9197,0.0,0.0,0.0,0.0,0.0,0.0,0.0,0.0,0.0,0.0,0.0,0.0,0.0,0.0,0.0,0.0,0.0,0.0,0.0,0.0,0.0,0.0,0.0,0.0,0.0,0.0,0.0,0.0,0.0,0.0,0.0,0.0,0.0,0.0,0.0,0.0,1.4525,1.6088,1.6822,1.7188,1.7687,0.0,0.0,1.8078,1.8249,1.8468,1.7999,1.8232,1.8067,1.6056,0.0,0.0,1.2908,1.2494,1.2463,1.2077,1.3106,1.4491,1.5963,0.0,2.0309,2.2693,2.4768,2.6559,2.7905,0.0,0.0,3.0191,3.0228,3.0075,2.9784,2.9223,2.9101,2.9658,2.9072,2.8654,2.8604,2.8003,2.7708,2.7735,2.7555,2.7435,2.7391,2.7776,2.7666,2.7113,2.6783,2.6638,2.6638,2.6638,2.6706,2.6841,2.721,2.7115,2.6758,2.6758,2.6725,2.6691,2.6691,2.6939,2.7272,0.0,0.0,0.0,0.0,0.0,0.0,0.0,0.9903,1.0339,1.1083,1.0831,1.0691,1.1015,1.0447,0.9778,0.0,0.0,0.0,0.0,0.0,0.0,0.0,0.0,0.0,0.0,0.0,0.0,0.0,0.0,0.0,0.0,0.0,0.0,0.0,0.0,0.0,0.0,0.0,0.0,0.0,0.0,0.0,0.0,0.0,0.0,0.0,0.0,0.0,0.0,0.0,0.0,0.0,1.4567,1.5391,0.0,0.0,1.8508,1.9001,1.8664,1.8939,1.9259,1.9059,1.8977,1.8522,1.6755,0.0,1.5271,1.3283,1.298,1.3092,1.3184,1.3733,1.4693,1.6272,1.7519,1.907,2.1399,2.3524,2.5404,2.6906,2.83,0.0,0.0,0.0,2.9535,2.8669,2.7995,2.7713,2.7967,2.7993,2.7817,2.7455,2.7195,2.7182,2.7425,2.7026,2.6819,2.6819,2.667,2.6589,2.6421,2.5933,2.6057,2.6607,2.6334,2.6402,2.6725,2.6873,2.6841,2.6657,2.6401,2.6297,2.6227,2.5908,2.5911,2.6127,0.0,0.0,0.0,0.0,0.0,0.0,0.9838,1.0037,1.0364,1.0901,1.083,1.0749,1.0812,1.0438,0.9993,0.9492,0.0,0.0,0.0,0.0,0.0,0.0,0.0,0.0,0.0,0.0,0.0,0.0,0.0,0.0,0.0,0.0,0.0,0.0,0.0,0.0,0.0,0.0,0.0,0.0,0.0,0.0,0.0,0.0,0.0,0.0,0.0,0.0,0.0,0.0,0.0,0.0,0.0,0.0,0.0,0.0,1.8361,1.9103,1.9171,1.9592,2.0047,2.0211,1.9988,1.9283,0.0,1.6781,1.5785,1.3851,1.3556,1.3743,1.4004,1.4289,1.4927,1.6303,1.7296,1.8649,2.0777,2.2966,2.4835,0.0,0.0,2.8612,0.0,2.9052,2.8724,2.7882,2.7099,2.6614,2.6614,2.6791,2.6749,2.6505,2.647,2.6556,2.669,2.6302,2.6182,2.6336,2.5865,2.568,2.5742,2.5221,2.5357,2.5999,2.5672,2.5783,2.628,2.628,2.628,2.6229,2.5872,2.5762,2.5726,2.554,2.5449,2.5545,0.0,0.0,0.0,0.0,0.0,0.0,0.0,1.0577,1.1098,1.1098,1.1046,1.1024,1.1084,1.0265,0.9736,0.9784,0.0,0.0,0.0,0.0,0.0,0.0,0.0,0.0,0.0,0.0,0.0,0.0,0.0,0.0,0.0,0.0,0.0,0.0,0.0,0.0,0.0,0.0,0.0,0.0,0.0,0.0,0.0,0.0,0.0,0.0,0.0,0.0,0.0,0.0,0.0,0.0,0.0,0.0,0.0,0.0,1.7713,1.8954,1.97,2.0416,2.1117,2.163,2.1445,2.0597,1.8788,1.8071,1.7107,1.4778,1.4288,1.4299,1.4384,1.4674,1.5157,1.5977,1.778,1.9686,2.1443,2.3828,0.0,0.0,0.0,2.7308,2.7604,2.7611,2.7614,2.7614,2.6605,0.0,2.5997,2.5524,2.5486,2.5997,2.6013,2.5762,2.5221,2.5221,2.5486,2.6013,2.5449,2.5221,2.5182,2.4657,2.443,2.443,2.443,2.4712,2.5221,2.5221,2.5221,2.5221,2.5221,2.5221,2.5259,2.5815,2.5997,2.6068,0.0,0.0,0.0,0.0,0.0,0.0,0.0,1.0185,1.0328,1.0289,1.0264,1.0257,1.0282,1.0019,0.985,0.9875,0.0,0.0,0.0,0.0,0.0,0.0,0.0,0.0,0.0,0.0,0.0,0.0,0.0,0.0,0.0,0.0,0.0,0.0,0.0,0.0,0.0,0.0,0.0,0.0,0.0,0.0,0.0,0.0,0.0,0.0,0.0,0.0,0.0,0.0,0.0,0.0,0.0,0.0,0.0,0.0,0.0,0.0,1.8129,1.891,1.9634,1.9342,1.9017,1.8493,1.7418,1.6671,1.594,1.4859,1.4642,1.4704,1.4908,1.5066,1.5832,1.7829,1.8562,0.0,0.0,0.0,0.0,2.5928,2.7112,2.7803,0.0,0.0,2.6337,2.5992,2.5293,2.491,2.491,2.4752,2.4894,2.5465,2.5026,2.4705,2.4507,2.4174,2.4122,2.4271,2.4168,2.4085,2.4039,2.3492,2.3389,2.3652,2.3758,2.405,2.4547,2.5019,2.5221,2.5221,2.5221,2.4989,2.4712,2.5259,2.5221,2.5012,0.0,0.0,0.0,0.0,0.0,0.0,0.0,1.0048,1.0011,0.9986,0.9955,0.9949,0.9976,0.9927,0.9904,0.9938,0.0,0.0,0.0,0.0,0.0,0.0,0.0,0.0,0.0,0.0,0.0,0.0,0.0,0.0,0.0,0.0,0.0,0.0,0.0,0.0,0.0,0.0,0.0,0.0,0.0,0.0,0.0,0.0,0.0,0.0,0.0,0.0,0.0,0.0,0.0,0.0,0.0,0.0,0.0,0.0,1.4765,1.6395,0.0,1.818,1.895,1.8717,1.8324,1.7804,1.7182,1.6439,1.5681,1.5043,1.49,1.4961,1.5101,1.5161,1.5811,1.7704,1.8152,0.0,0.0,0.0,0.0,2.5617,0.0,0.0,0.0,2.6219,2.5672,2.487,2.4343,2.393,2.3716,2.3719,2.3918,2.4236,2.4271,2.4158,2.3967,2.3447,2.3303,2.349,2.3084,2.2981,2.3098,2.2831,2.2712,2.2746,2.3302,2.3576,0.0,2.4343,2.4592,2.4592,2.4592,2.4389,2.4158,2.4712,2.4712,2.4552,0.0,0.0,0.0,0.0,0.0,0.0,0.0,0.0,0.0,0.0,1.0052,1.002,1.009,0.9991,0.9944,0.0,0.0,0.0,0.0,0.0,0.0,0.0,0.0,0.0,0.0,0.0,0.0,1.1011,1.1755,1.2179,1.2307,0.0,0.0,0.0,0.0,0.0,0.0,0.0,0.0,0.0,0.0,0.0,0.0,0.0,0.0,0.0,0.0,0.0,0.0,0.0,0.0,0.0,0.0,0.0,0.0,0.0,0.0,0.0,0.0,1.7875,1.8643,1.9158,1.8732,1.8077,1.7709,1.6971,0.0,1.526,1.5093,1.5099,1.5117,1.5094,1.5367,1.6324,1.7093,0.0,0.0,2.2079,0.0,0.0,2.5536,0.0,2.4888,2.5442,2.5363,2.4315,2.3743,2.32,2.2597,2.2682,2.2694,2.2694,2.3664,2.3975,2.345,2.2875,2.2786,2.3317,2.2243,2.1983,2.2372,2.2546,2.2253,2.1649,2.2891,2.3098,2.2603,2.329,2.3551,2.3551,2.3638,2.3638,2.3681,2.4225,2.4471,2.4576,0.0,0.0,0.0,0.0,0.0,0.0,0.0,0.0,0.0,0.0,1.0086,1.0082,1.0094,1.007,1.0061,0.0,0.0,0.0,0.0,0.0,0.0,0.0,0.0,0.0,0.0,0.0,0.0,1.2053,1.2233,1.2984,1.4231,1.3752,0.0,0.0,0.0,0.0,0.0,0.0,0.0,0.0,0.0,0.0,0.0,0.0,0.0,0.0,1.0194,1.0251,0.0,0.0,0.0,0.0,0.0,0.0,0.0,0.0,1.1771,1.2204,1.3493,0.0,1.5964,1.6245,1.6161,1.5974,0.0,1.5579,1.5337,1.5008,0.0,1.5235,1.6198,1.5919,1.6353,1.8857,0.0,1.9938,2.1731,0.0,0.0,2.6093,2.6248,2.5982,2.519,2.4476,2.4164,2.4343,2.3434,2.3024,2.3333,2.295,2.2694,2.2694,2.2455,2.2289,2.2179,2.1547,2.1307,2.1424,2.2114,2.2007,2.1232,2.171,2.1328,2.0283,2.1113,2.1369,2.1321,2.2452,2.292,2.3009,2.3849,2.3948,2.3709,2.4657,2.5012,2.5105,0.0,0.0,0.0,0.0,0.0,0.0,0.0,0.0,0.0,0.0,0.0,0.0,0.0,0.0,0.0,0.0,0.0,0.0,0.0,0.0,0.0,0.0,0.0,0.0,0.0,0.0,0.0,0.0,0.0,1.3263,0.0,0.0,0.0,0.0,0.0,0.0,0.0,0.0,0.0,0.0,0.0,0.0,0.0,0.0,0.0,0.0,1.009,1.007,0.0,1.1086,1.1091,1.0785,0.0,0.0,0.0,0.0,1.078,1.0958,1.183,1.3574,1.5137,1.516,1.5498,1.5752,1.5598,0.0,0.0,0.0,0.0,0.0,0.0,0.0,0.0,0.0,1.961,0.0,0.0,0.0,2.4972,2.5723,2.5586,2.5158,0.0,2.3872,2.3404,2.3186,2.2591,2.2146,2.1885,2.1833,2.1846,2.1846,2.15,2.1424,2.1697,2.1113,2.0795,2.0795,2.121,2.1015,2.0346,2.1015,2.072,1.985,2.1113,2.1513,2.1293,2.2589,2.3098,2.3187,2.3779,2.3879,2.3681,2.4266,2.4471,2.4536,0.0,0.0,0.0,0.0,0.0,0.0,0.0,0.0,0.0,0.0,0.0,0.0,0.0,0.0,0.0,0.0,0.0,0.0,0.0,0.0,0.0,0.0,0.0,0.0,0.0,0.0,0.0,0.0,0.0,0.0,0.0,0.0,1.4179,0.0,0.0,0.0,0.0,0.0,0.0,0.0,0.0,0.0,0.0,0.0,0.0,0.0,0.0,0.0,0.0,1.0934,1.1183,1.1169,1.1169,0.0,0.0,0.0,0.0,0.0,1.1093,1.3199,1.5082,1.4864,1.5651,1.6385,1.6079,0.0,0.0,0.0,0.0,0.0,0.0,1.6115,0.0,0.0,0.0,0.0,2.3436,2.3825,2.4139,2.484,2.4516,0.0,2.3447,2.3274,2.2818,2.1791,2.1602,2.1135,2.0131,2.0547,2.0795,2.0795,2.0696,2.0868,2.1411,2.0917,2.066,2.0646,2.0207,1.9901,1.9798,2.0497,2.0446,1.9901,2.1534,2.1913,2.1506,2.2711,2.3216,2.3319,2.3421,2.3508,2.3595,2.3595,2.3638,2.3794,0.0,0.0,0.0,0.0,0.0,0.0,0.0,0.0,0.0,0.0,0.0,0.0,0.0,0.0,0.0,0.0,0.0,0.0,0.0,0.0,0.0,0.0,0.0,0.0,0.0,0.0,0.0,0.0,0.0,0.0,1.5172,1.5907,1.498,1.2599,0.0,0.0,0.0,0.0,0.0,0.0,0.0,0.0,0.0,0.0,0.0,0.0,0.0,0.0,0.0,1.0182,1.0176,1.0125,1.0125,0.0,0.0,0.0,0.0,0.0,1.1269,1.3029,1.4364,1.3988,1.5366,1.662,1.5778,0.0,0.0,0.0,0.0,0.0,0.0,1.8146,1.8461,0.0,0.0,2.2316,0.0,0.0,2.4619,2.4507,0.0,2.3945,2.2935,2.2317,2.1885,2.1697,2.121,2.1064,2.1363,2.1015,2.0795,2.0795,2.0258,1.9991,2.0093,1.9991,1.9952,1.9952,2.0396,2.0359,1.9798,2.0497,2.0446,1.9798,2.0093,2.0181,2.0131,2.093,2.1534,2.2039,2.2634,2.3143,2.3595,2.3595,2.3879,2.443,0.0,0.0,0.0,0.0,0.0,0.0,0.0,0.0,0.0,0.0,0.0,0.0,0.0,0.0,0.0,0.0,0.0,0.0,0.0,0.0,0.0,0.0,0.0,0.0,0.0,0.0,0.0,0.0,0.0,1.4824,1.5234,1.4743,1.3881,1.27,0.0,0.0,0.0,0.0,0.0,0.0,0.0,0.0,0.0,0.0,0.0,0.0,0.0,0.0,0.0,0.0,1.0232,1.0527,1.0044,0.0,0.0,0.0,0.0,0.0,1.0219,1.1902,1.3389,1.2986,1.5406,1.7739,1.7229,1.7206,0.0,0.0,0.0,0.0,0.0,0.0,1.9157,2.1275,0.0,2.2556,2.3738,2.3687,2.3482,0.0,0.0,2.2257,2.1738,2.1403,2.1197,2.1197,2.0944,2.0733,2.0657,2.0383,2.0258,2.0258,1.9952,1.9798,1.9798,1.9798,1.9798,1.9798,2.0105,2.0105,1.9798,2.0105,2.0105,1.9798,2.0207,2.0346,2.0396,2.1417,2.1974,2.23,2.2965,2.3377,2.3595,2.3595,2.3767,2.4074,0.0,0.0,0.0,0.0,0.0,0.0,0.0,0.0,0.0,0.0,0.0,0.0,0.0,0.0,0.0,0.0,0.0,0.0,0.0,0.0,0.0,0.0,0.0,0.0,0.0,0.0,1.2443,1.3929,1.4797,1.5358,1.5562,1.408,1.3185,1.2738,0.0,0.0,0.0,0.0,0.0,0.0,0.0,0.0,0.0,0.0,0.0,0.0,0.0,0.0,0.0,0.0,0.0,0.0,0.0,0.0,0.0,0.9686,0.9332,0.9236,0.9575,1.108,1.2529,1.2566,0.0,1.8002,1.8096,1.7945,0.0,0.0,0.0,0.0,0.0,1.9123,0.0,2.1304,2.1708,2.2169,2.3123,2.2803,2.2409,2.2329,2.1527,2.0944,2.0795,2.0795,2.0746,2.0597,2.0547,2.0346,1.985,1.9798,1.9798,1.9798,1.9798,1.9798,1.9798,1.9798,1.9798,1.9798,1.9798,1.9798,1.9798,1.9798,1.9798,1.985,2.0346,2.0547,2.0646,2.1595,2.2114,2.2314,2.2756,2.3143,2.3377,2.3377,2.3551,2.3837,0.0,0.0,0.0,0.0,0.0,0.0,0.0,0.0,0.0,0.0,0.0,0.0,0.0,0.0,0.0,0.0,0.0,0.0,0.0,0.0,0.0,0.0,0.0,0.0,0.0,1.3082,1.3127,1.3983,1.4868,1.5719,1.6495,1.5551,1.4286,1.2761,0.0,0.0,0.0,0.0,0.0,0.0,0.0,0.0,0.0,0.0,0.0,0.0,0.0,0.0,0.0,0.0,0.0,0.0,0.0,0.0,0.9219,0.9157,0.8957,0.9035,1.0411,1.1236,1.2,1.3349,1.4766,0.0,1.6811,1.6962,0.0,1.8479,0.0,0.0,0.0,1.9988,2.0146,2.0286,2.0883,2.1242,2.0913,0.0,2.2298,2.181,2.1697,2.1438,2.0845,2.0795,2.0547,1.9901,1.985,1.985,1.9798,1.9798,1.9798,1.9798,1.9798,1.9798,1.9798,1.9798,1.9798,1.9798,1.9798,1.9798,1.9798,1.9798,1.9798,1.9798,1.985,1.985,1.9901,1.9952,2.0396,2.0944,2.0979,2.1704,2.274,2.274,2.342,2.4348,0.0,0.0,0.0,0.0,0.0,0.0,0.0,0.0,0.0,0.0,0.0,0.0,0.0,0.0,0.0,0.0,0.0,0.0,0.0,0.0,0.0,0.0,0.0,1.2144,1.3296,1.3503,1.4,1.4811,1.5132,1.5461,1.5767,1.4389,0.0,0.0,0.0,0.0,0.0,0.0,0.0,0.0,0.0,0.0,0.0,0.0,0.0,0.0,0.0,0.0,0.0,0.0,0.9286,0.9193,0.9117,0.897,0.879,0.879,0.8655,0.863,0.9192,1.072,1.224,1.2639,1.4124,0.0,0.0,1.7663,1.8453,1.9067,1.8967,0.0,0.0,0.0,1.9376,1.9502,2.0048,2.05,2.0751,2.1158,2.1363,2.1161,2.0756,2.0421,2.0207,2.0207,2.0042,1.9798,1.9798,1.9798,1.9798,1.9798,1.9798,1.9798,1.9798,1.9798,1.9798,1.9798,1.9798,1.9798,1.9798,1.9798,1.9798,1.9798,1.9798,1.9798,1.9798,1.9798,1.985,2.0258,2.0547,2.0894,2.1657,2.2267,2.2754,2.3098,2.3537,2.3906,0.0,0.0,0.0,0.0,0.0,0.0,0.0,0.0,0.0,0.0,0.0,0.0,0.0,0.0,0.0,0.0,0.0,0.0,0.0,0.0,0.0,0.0,0.0,1.1875,1.248,1.3308,1.4112,1.4915,1.4919,1.4772,1.4472,0.0,0.0,0.0,0.0,0.0,0.0,0.0,0.0,0.0,0.0,0.0,0.0,0.0,0.0,0.0,0.0,0.0,0.0,0.0,0.9142,0.9016,0.8938,0.879,0.862,0.8559,0.873,0.8945,0.8945,1.072,1.2561,0.0,0.0,0.0,1.6373,1.7436,1.838,1.8892,1.8763,1.8478,1.8171,0.0,0.0,0.0,1.9141,1.9557,2.022,2.0426,2.0497,2.0497,2.0105,1.9798,1.9798,1.9798,1.9798,1.9798,1.9798,1.9798,1.9798,1.9798,1.9798,1.9798,1.9798,1.9798,1.9798,1.9798,1.9798,1.9798,1.9798,1.9798,1.9798,1.9798,1.9798,1.9798,1.9798,1.9798,1.985,2.0295,2.0497,2.0547,2.1452,2.1927,2.2175,2.2575,2.295,2.3334,0.0,0.0,0.0,0.0,0.0,0.0,0.0,0.0,0.0,0.0,0.0,0.0,0.0,0.0,0.0,0.0,0.0,0.0,0.0,0.0,0.0,0.0,0.0,1.1582,1.1582,1.2441,1.3281,1.4082,1.4101,1.3662,1.2765,1.1914,0.0,0.0,0.0,0.0,0.0,0.0,0.0,0.0,0.0,0.0,0.0,0.0,0.0,0.0,0.0,0.0,0.0,0.0,0.9088,0.9036,0.8783,0.8693,0.8657,0.8454,0.9202,1.0079,1.0079,1.1409,1.2823,0.0,0.0,0.0,1.5349,1.5758,1.6473,1.7804,1.8066,1.8066,1.8066,1.7666,0.0,1.8074,1.8195,1.8392,1.8895,1.9472,1.9798,1.9798,1.9798,1.9798,1.9798,1.9798,1.9798,1.9798,1.9798,1.9798,1.9798,1.9798,1.9798,1.9798,1.9798,1.9798,1.9798,1.9798,1.9798,1.9798,1.9798,1.9798,1.9798,1.9798,1.9798,1.9798,1.9798,1.9798,1.9798,1.9798,1.9798,1.9798,1.9798,2.0194,2.0795,2.0795,2.1609,2.2694,0.0,0.0,0.0,0.0,0.0,0.0,0.0,0.0,0.0,0.0,0.0,0.0,0.0,0.0,0.0,0.0,0.0,0.0,0.0,0.0,0.0,0.0,0.0,0.0,0.0,0.0,1.2327,1.3188,1.376,1.3277,0.0,0.0,0.0,1.0794,0.0,0.0,0.0,0.0,0.0,0.0,0.0,0.0,0.0,0.0,0.0,0.0,0.0,0.0,0.0,0.0,0.0,0.0,0.8303,0.8545,0.8711,0.8033,0.8685,0.9475,0.8849,1.0662,0.0,1.265,0.0,0.0,0.0,1.6126,0.0,0.0,1.6951,1.6951,1.6951,1.6837,0.0,1.7543,1.7932,1.8392,1.8895,1.9472,1.9798,1.9798,1.9798,1.9798,1.9798,1.9798,1.9798,1.9798,1.9798,1.9798,1.9798,1.9798,1.9798,1.9798,1.9798,1.9798,1.9798,1.9798,1.9798,1.9798,1.9798,1.9798,1.9798,1.9798,1.9798,1.9798,1.9798,1.9798,1.9798,1.9798,1.9798,1.985,2.0295,2.0868,2.1486,2.1974,2.2634,2.3334,0.0,0.0,0.0,0.0,0.0,0.0,0.0,0.0,0.0,0.0,1.0197,0.0,0.0,0.0,0.0,0.0,0.0,0.0,0.0,0.0,0.0,0.0,0.0,0.0,0.0,1.1033,1.1563,0.0,0.0,0.0,0.0,0.0,1.1648,1.1005,0.0,1.1229,0.0,0.0,0.0,0.0,0.9332,0.9267,0.9228,0.0,0.0,0.0,0.0,0.0,0.0,0.0,0.0,0.0,0.8131,0.8328,0.85,0.8057,0.8806,0.9765,0.9592,1.1438,0.0,1.365,1.5083,1.6389,1.6395,0.0,0.0,0.0,1.6522,1.6522,1.6522,1.6522,0.0,1.7287,1.7664,1.8078,1.8631,1.897,1.9246,1.9472,1.9497,1.9572,1.9786,1.9527,1.9371,1.9371,1.9097,1.8939,1.8939,1.9202,1.9371,1.9371,1.9643,1.9798,1.9798,1.9798,1.9798,1.9798,1.9798,1.9798,1.9798,1.9798,1.9798,1.9798,1.9798,1.9798,1.9798,1.9798,1.9798,1.985,2.0245,2.062,2.0988,2.139,2.196,2.2515,0.0,0.0,0.0,0.0,0.0,0.0,0.0,0.0,0.0,0.0,1.0194,1.0194,0.0,0.0,0.0,0.0,0.0,0.0,0.0,0.0,0.0,1.0194,1.0194,1.019,0.0,0.0,0.0,0.0,0.0,0.0,0.0,0.0,1.1692,1.225,0.0,1.2059,0.0,0.0,0.0,0.9269,0.9278,0.9184,0.9074,0.9074,0.0,0.0,0.0,0.0,0.0,0.0,0.0,0.0,0.8118,0.8094,0.8164,0.8235,0.9242,1.0476,1.1264,1.2853,0.0,1.5191,1.584,0.0,1.6481,1.6522,1.6522,1.6522,0.0,1.6337,1.6423,1.6423,1.661,1.7185,1.7375,1.7576,1.8129,1.8204,1.8392,1.8845,1.8895,1.9058,1.957,1.8972,1.8561,1.8608,1.795,1.7633,1.7688,1.8328,1.8715,1.8821,1.9475,1.9798,1.9798,1.9798,1.9798,1.9798,1.9798,1.9798,1.9798,1.9798,1.9798,1.9798,1.9798,1.9798,1.9798,1.9798,1.9798,1.9798,1.9798,1.985,1.9901,1.9901,2.0346,2.1028,0.0,0.0,0.0,0.0,0.0,0.0,0.0,0.0,0.0,0.0,0.0,0.0,0.0,0.0,0.0,0.0,0.0,0.0,0.0,0.0,1.0113,1.0113,1.0113,1.0097,1.0034,1.0206,0.0,0.0,0.0,0.0,0.0,0.0,0.0,1.0431,0.0,1.1343,0.0,0.0,0.0,0.9144,0.903,0.8973,0.8929,0.8823,0.8773,0.0,0.0,0.0,0.0,0.0,0.0,0.0,0.7768,0.8062,0.8317,0.7472,0.843,0.9742,0.9678,1.1214,0.0,0.0,1.5437,1.6443,1.6484,1.6522,1.6522,1.6522,1.5744,1.5242,1.5732,1.5776,1.5989,1.6532,1.7078,1.7576,1.8129,1.8204,1.8242,1.8367,1.7958,1.7847,1.8265,1.7746,1.7486,1.7818,1.7677,1.7852,1.8436,1.8608,1.8992,1.954,1.9695,1.9798,1.9798,1.9798,1.9798,1.9798,1.9798,1.9798,1.9798,1.9798,1.9798,1.9798,1.9798,1.9798,1.9798,1.9798,1.9798,1.9798,1.9798,2.0105,2.0597,2.0597,2.1321,2.2314,0.0,0.0,0.0,0.0,0.0,0.0,0.0,0.0,0.0,0.0,0.0,0.0,0.0,0.0,0.0,0.0,0.0,0.0,0.0,0.0,1.0044,1.0011,1.0006,0.9991,0.996,0.996,0.9938,0.0,0.0,0.0,0.0,0.0,0.0,1.1415,0.0,1.1779,0.0,0.0,0.947,0.9005,0.8925,0.884,0.8745,0.8674,0.862,0.8544,0.8438,0.0,0.0,0.0,0.0,0.0,0.0,0.0,0.7854,0.7454,0.8175,0.9214,0.9729,0.0,0.0,1.4827,0.0,1.6423,1.6139,1.5832,1.5656,1.5656,1.5611,1.5656,1.5964,1.5776,1.5671,1.599,1.6061,1.618,1.6501,1.6537,1.6633,1.6884,1.6609,1.6613,1.7124,1.7082,1.707,1.7317,1.7499,1.7797,1.8167,1.8167,1.8328,1.8715,1.9097,1.9254,1.9254,1.9631,1.9631,1.9254,1.9631,1.9798,1.9798,1.9798,1.9798,1.9798,1.9798,1.9798,1.9798,1.9798,1.9798,1.9798,1.9798,2.0003,2.0295,2.0295,2.0733,2.1355,0.0,0.0,0.0,0.0,0.0,0.0,0.0,0.0,0.0,0.0,0.0,0.0,0.0,0.0,0.0,0.0,0.0,0.0,0.0,1.0001,0.9965,0.9893,0.9893,0.9887,0.9875,0.9875,0.9863,0.0,0.0,0.0,0.0,0.0,0.0,1.2826,0.0,0.0,0.0,0.0,0.9623,0.8852,0.8885,0.875,0.8528,0.8531,0.8435,0.8294,0.8279,0.8121,0.7935,0.7935,0.0,0.0,0.0,0.0,0.7207,0.7495,0.7985,0.8662,0.9893,0.0,1.3471,1.5541,1.6133,0.0,1.5543,1.505,1.4698,1.4698,1.5344,1.592,1.6008,1.5644,1.5309,1.5309,1.496,1.4698,1.4698,1.4698,1.4901,1.5448,1.5457,1.5612,1.6329,1.6667,1.6826,1.6799,1.7147,1.7413,1.7413,1.7413,1.7523,1.7797,1.8382,1.8715,1.8715,1.9319,1.9254,1.8501,1.9254,1.9695,1.9798,1.9798,1.9798,1.9798,1.9798,1.9798,1.9798,1.9798,1.9798,1.9798,1.9798,1.9798,1.9798,1.9798,1.985,2.0055,0.0,0.0,0.0,0.0,0.0,0.0,0.0,0.0,0.0,0.0,1.0006,0.9982,0.9933,0.9922,0.0,0.0,0.0,0.0,0.9922,0.0,0.0,0.9893,0.9893,0.9882,0.9811,0.9811,0.9735,0.0,0.0,0.0,0.0,0.0,0.0,1.1712,0.0,0.0,0.0,0.0,0.9072,0.8652,0.8837,0.864,0.8248,0.8251,0.8089,0.7854,0.7751,0.7533,0.7326,0.7326,0.7293,0.0,0.0,0.0,0.6908,0.6795,0.7137,0.7656,0.0,0.0,1.2433,0.0,1.4663,1.4926,0.0,0.0,1.4698,0.0,1.3978,1.3515,1.405,1.4086,1.405,1.405,1.4422,1.4698,1.4698,1.4698,1.4903,1.5504,1.512,1.5187,1.6232,1.6295,1.6199,1.5879,1.6332,1.6652,1.6652,1.6652,1.7246,1.8501,1.8661,1.8715,1.8715,1.8821,1.8501,1.7743,1.8501,1.9202,1.9798,1.9798,1.9798,1.9798,1.9798,1.9798,1.9798,1.9798,1.9798,1.9798,1.9798,1.9798,1.9798,1.9798,2.0156,2.0746,0.0,0.0,0.0,0.0,0.0,0.0,0.0,0.0,0.0,0.0,0.0,0.9933,0.9899,0.9893,0.0,0.0,0.0,0.0,0.985,0.985,0.0,0.0,0.0,0.9666,0.9638,0.9565,0.9472,0.0,0.0,0.0,0.0,1.2003,1.2641,0.0,0.0,0.0,0.0,0.0,0.0,0.8759,0.8653,0.9269,1.0063,0.859,0.8338,0.8655,0.7868,0.7429,0.7199,0.7207,0.7128,0.7018,0.6927,0.0,0.0,0.0,0.6969,0.7699,0.9147,1.0618,1.215,0.0,1.4237,1.4328,1.4228,1.419,1.4107,1.3742,1.3296,1.32,1.4154,1.405,1.3815,1.3815,1.3742,1.3705,1.3705,1.3705,1.3789,1.4061,1.3836,1.3884,1.4371,1.4947,1.5254,1.5111,1.5933,1.6525,1.6787,1.636,1.6533,1.7457,1.7468,1.7468,1.7468,1.8286,1.8715,1.8821,1.8715,1.9097,1.9798,1.9798,1.9798,1.9798,1.9798,1.9798,1.9798,1.9798,1.9798,1.9798,1.9798,1.9798,1.9798,1.9798,2.0003,2.0295,0.0,0.0,0.0,0.0,0.0,0.0,0.0,0.0,0.0,0.0,0.0,0.0,0.9857,0.0,0.0,0.0,0.0,0.0,0.9782,0.0,0.0,0.0,0.0,0.0,0.95,0.9367,0.0,0.0,0.0,0.0,1.1909,1.186,1.3274,0.0,1.3581,1.254,0.0,0.0,0.0,0.0,0.8364,0.9567,1.1352,1.0081,0.9622,0.9517,0.8285,0.7695,0.7432,0.7136,0.6937,0.6818,0.6828,0.6723,0.0,0.0,0.0,0.0,0.0,0.0,1.116,1.2691,1.3169,1.3292,0.0,0.0,1.3324,0.0,1.2881,1.3152,1.4071,1.3873,1.3552,1.3552,1.319,1.2881,1.2881,1.2881,1.2978,1.3104,1.3152,1.32,1.3334,1.4247,1.4746,1.4549,1.5498,1.614,1.6284,1.5711,1.5662,1.6171,1.6192,1.63,1.6639,1.7838,1.8768,1.9527,1.898,1.9097,1.9798,1.9798,1.9798,1.9798,1.9798,1.9798,1.9798,1.9798,1.9798,1.9798,1.9798,1.9798,1.9798,1.9798,1.9798,1.9798,0.0,0.0,0.0,0.0,0.0,0.0,0.0,0.0,0.0,0.0,0.0,0.0,0.0,0.0,0.0,0.0,0.0,0.0,0.0,0.0,0.0,0.0,0.0,0.0,0.0,0.0,0.0,0.0,0.0,0.0,1.191,1.1692,1.3106,1.5757,1.4148,1.2111,0.9828,0.0,0.0,0.0,0.0,0.9036,1.0907,1.3256,1.2505,1.0012,0.8941,0.8411,0.8072,0.6993,0.6616,0.6616,0.6616,0.6616,0.6599,0.0,0.0,0.0,0.0,0.798,0.0,0.9908,1.0634,0.0,0.0,0.0,1.2383,1.2793,1.2881,1.2929,1.2968,1.2978,1.2978,1.2978,1.2929,1.2881,1.2881,1.2881,1.3104,1.3684,1.3732,1.3967,1.456,1.5099,1.5136,1.444,1.4921,1.4945,1.4267,1.4214,1.4523,1.5247,1.5258,1.5836,1.695,1.7409,1.8015,1.8768,1.8715,1.9097,1.9798,1.9798,1.9798,1.9798,1.9798,1.9798,1.9798,1.9798,1.9798,1.9798,1.9798,1.9798,1.9798,1.9798,1.9798,1.9901,0.0,0.0,0.0,0.0,0.0,0.0,0.0,0.0,0.0,0.0,0.0,0.0,0.0,0.9698,0.9698,0.9698,0.0,0.0,0.0,0.0,0.0,0.0,0.0,0.0,0.0,0.0,0.0,0.0,0.0,0.9301,1.0729,1.066,1.1243,1.2334,1.202,1.2758,1.4095,1.1631,0.0,0.0,0.0,0.915,1.2293,1.245,1.2086,1.1308,1.0076,0.9271,0.0,0.8329,0.7718,0.7109,0.7109,0.6868,0.6599,0.6599,0.6535,0.0,0.0,0.0,0.0,0.927,0.983,1.0273,1.1182,1.1781,1.2275,1.2432,1.2686,1.2881,1.2881,1.2881,1.2881,1.2881,1.2881,1.2881,1.2881,1.2881,1.2968,1.32,1.3238,1.3286,1.3525,1.3717,1.3713,1.3469,1.362,1.3731,1.3721,1.373,1.3952,1.4473,1.4903,1.5897,1.7571,1.7232,1.763,1.8715,1.8715,1.8821,1.9097,1.9579,1.9798,1.9798,1.9798,1.9798,1.9798,1.9798,1.9798,1.9798,1.9798,1.9798,1.9798,1.9798,1.9798,1.985,0.0,0.0,0.0,0.0,0.0,0.0,0.0,0.0,0.0,0.9567,0.0,0.0,0.0,0.0,0.9559,0.9559,0.9491,0.0,0.0,0.0,0.0,0.0,0.0,0.0,0.0,0.0,0.0,0.0,0.0,0.0,0.0,0.9589,0.9836,1.0313,1.0064,1.1313,0.0,0.0,0.0,0.7701,0.0,0.9932,1.3157,1.2724,1.2564,1.2398,1.132,1.0528,0.0,0.9491,0.8748,0.7946,0.7757,0.7131,0.646,0.6378,0.636,0.6463,0.6854,0.0,0.0,0.0,0.0,0.9291,1.0615,1.125,1.1699,1.2093,1.2461,1.2705,1.2852,1.2881,1.2881,1.2881,1.2881,1.2881,1.2881,1.2881,1.2881,1.2881,1.2881,1.2881,1.2881,1.2881,1.2881,1.2881,1.2881,1.2998,1.3281,1.3301,1.3428,1.3711,1.4717,1.5734,1.6795,1.6841,1.7432,1.8517,1.8631,1.8821,1.9097,1.9579,1.9798,1.9798,1.9798,1.9798,1.9798,1.9798,1.9798,1.9798,1.9798,1.9798,1.9798,1.9798,1.9798,1.9798,0.0,0.0,0.0,0.0,0.0,0.0,0.0,0.0,0.9439,0.9321,0.0,0.0,0.0,0.0,0.0,0.932,0.9303,0.9303,0.9275,0.0,0.0,0.0,0.0,0.0,0.0,0.0,0.0,0.0,0.0,0.0,0.0,0.0,0.9056,1.0059,0.8559,0.7645,0.7444,1.1114,1.1615,0.9891,0.0,1.1214,1.3316,1.4422,1.4162,1.3141,1.2586,1.207,1.1443,1.033,0.9597,0.902,0.8453,0.7332,0.6177,0.5966,0.5922,0.5904,0.0,0.0,0.0,0.0,0.0,0.0,1.0332,0.0,1.0615,1.1859,1.2141,1.2344,1.2783,1.2871,1.2881,1.2881,1.2881,1.2881,1.2881,1.2881,1.2881,1.2881,1.2881,1.2881,1.2881,1.2881,1.2881,1.2881,1.2881,1.2881,1.2881,1.2881,1.2929,1.2929,1.4559,1.5174,1.4658,1.6144,1.7312,1.8068,1.8412,1.9044,1.9747,1.9747,1.9798,1.9798,1.9798,1.9798,1.9798,1.9798,1.9798,1.9798,1.9798,1.9798,1.9798,1.9798,1.9798,1.9798,0.0,0.0,0.0,0.0,0.0,0.0,0.9367,0.9358,0.9349,0.0,0.0,0.0,0.9303,0.9303,0.9523,1.0059,0.9522,0.9081,0.8943,0.8897,0.8801,0.8655,0.8607,0.8571,0.851,0.0,0.0,0.0,0.0,0.0,0.0,0.0,0.7886,0.8441,0.8013,0.7591,0.7304,0.8877,0.0,0.9901,0.9892,1.1166,0.0,1.3421,1.3343,1.3043,1.2907,1.2496,1.1994,1.168,1.0731,0.9464,0.8303,0.7234,0.6406,0.635,0.6337,0.627,0.5982,0.0,0.0,0.0,0.0,0.0,0.0,0.0,0.9639,1.0615,1.1318,1.1875,1.2334,1.2666,1.2881,1.2881,1.2881,1.2881,1.2881,1.2881,1.2881,1.2881,1.2881,1.2881,1.2881,1.2881,1.2881,1.2881,1.2881,1.2881,1.2881,1.2881,1.3104,1.3552,1.4037,1.4605,1.5233,1.552,1.5944,1.6523,1.6907,1.7468,1.8221,1.8768,1.9319,1.9798,1.9798,1.9798,1.9798,1.9798,1.9798,1.9798,1.9798,1.9798,1.9798,1.9798,1.9798,1.9798,0.0,0.0,0.0,0.0,0.0,0.9741,0.968,0.9669,0.9659,0.0,0.0,0.0,0.9406,0.9874,1.0127,0.9992,0.9508,0.9067,0.8667,0.86,0.8517,0.8415,0.8403,0.8322,0.8147,0.8036,0.7839,0.7547,0.7471,0.7301,0.708,0.708,0.7166,0.7299,0.7191,0.6993,0.6768,0.7134,0.778,0.0,0.9649,0.0,1.1936,1.2685,1.2961,1.3023,1.3286,1.3021,1.2531,1.2511,1.1524,0.9998,0.868,0.7766,0.7087,0.6597,0.6597,0.6662,0.6234,0.62,0.0,0.0,0.0,0.0,0.8018,0.8506,0.9033,0.0,1.0714,1.1253,1.1836,1.2305,1.2607,1.2607,1.2764,1.2881,1.2881,1.2881,1.2881,1.2881,1.2881,1.2881,1.2881,1.2881,1.2881,1.2881,1.2881,1.2881,1.2881,1.3152,1.3324,1.342,1.3684,1.4,1.443,1.4419,1.481,1.5595,1.6014,1.6729,1.7633,1.8382,1.8927,1.9371,1.9695,1.9798,1.9798,1.9798,1.9798,1.9798,1.9798,1.9798,1.9798,1.9798,1.9798,1.9798,0.0,0.0,0.9319,0.9425,0.9939,1.0336,1.0313,1.0276,1.0215,0.0,0.9563,0.9396,0.9968,1.0861,1.0964,0.9843,0.954,0.9127,0.8494,0.8382,0.8322,0.8267,0.8267,0.809,0.7738,0.7738,0.7547,0.7178,0.7178,0.7064,0.6874,0.6874,0.6757,0.6535,0.6306,0.6142,0.6035,0.5941,0.6095,0.6645,0.9046,1.0233,1.0773,1.2298,1.2936,1.3053,1.3587,1.3455,1.2999,1.2943,1.1962,1.0607,0.9443,0.8698,0.8043,0.6953,0.6949,0.0,0.667,0.6592,0.0,0.7462,0.7451,0.0,0.8555,0.8574,0.8734,0.0,1.0107,1.043,1.1243,1.1748,1.208,1.208,1.249,1.2832,1.2871,1.2881,1.2881,1.2881,1.2881,1.2881,1.2881,1.2881,1.2881,1.2881,1.2881,1.2881,1.2881,1.342,1.3467,1.2929,1.342,1.342,1.2929,1.3301,1.4032,1.5018,1.553,1.6374,1.7555,1.8251,1.8661,1.8874,1.9527,1.9798,1.9798,1.9798,1.9798,1.9798,1.9798,1.9798,1.9798,1.9798,1.9798,1.9798,0.0,0.9119,0.9463,1.0214,1.0197,1.0263,1.0845,1.0782,1.0669,1.0656,1.0801,1.1369,1.2605,1.1946,1.153,1.1872,1.0367,0.9216,0.8758,0.8213,0.7767,0.7442,0.7442,0.7396,0.732,0.7304,0.7193,0.696,0.696,0.6845,0.6668,0.6668,0.6522,0.6271,0.6224,0.5986,0.5627,0.5829,0.5699,0.5548,0.7462,0.9875,1.2429,1.2765,1.2927,1.2949,1.304,1.302,1.2845,1.2473,1.195,1.126,1.032,0.9699,0.9149,0.8261,0.8312,0.8453,0.7653,0.7725,0.7871,0.7353,0.7676,0.0,0.7578,0.7939,0.8479,0.0,0.9023,0.9414,0.9912,1.0645,1.1162,1.1162,1.1836,1.248,1.2832,1.2881,1.2881,1.2881,1.2881,1.2881,1.2881,1.2881,1.2881,1.2881,1.2881,1.2881,1.2881,1.3017,1.3017,1.2881,1.3017,1.3017,1.2881,1.3301,1.3596,1.3828,1.4621,1.5735,1.7115,1.7616,1.8436,1.9579,1.9747,1.9798,1.9798,1.9798,1.9798,1.9798,1.9798,1.9798,1.9798,1.9798,1.9798,1.9798,0.0,0.8991,0.9348,1.0335,1.0749,1.1114,1.1618,1.1507,1.1466,1.181,1.2376,1.2876,1.3261,1.2889,1.2405,1.194,1.0659,0.9496,0.8525,0.813,0.7735,0.7225,0.7195,0.7162,0.7048,0.7048,0.6947,0.674,0.674,0.6689,0.6599,0.6453,0.6445,0.6528,0.6057,0.5907,0.5968,0.5637,0.5341,0.5253,0.6989,0.9797,1.2893,1.2882,1.2872,1.2881,1.2881,1.2881,1.2842,1.2378,1.2072,1.1776,1.0858,1.0583,1.0374,0.0,0.9289,0.9447,0.86,0.8506,0.8643,0.8418,0.8525,0.0,0.0,0.8369,0.8587,0.9234,0.8984,0.8955,0.9805,1.0303,1.0596,1.0596,1.1328,1.1973,1.2233,1.2655,1.2881,1.2881,1.2881,1.2881,1.2881,1.2881,1.2881,1.2881,1.2881,1.2881,1.2881,1.2881,1.2881,1.2881,1.2881,1.2881,1.2881,1.3096,1.3301,1.3516,1.4503,1.5303,1.5976,1.7463,1.8167,1.8232,1.9307,1.9579,1.9254,1.9643,1.9798,1.9798,1.9798,1.9798,1.9798,1.9798,1.9798,1.9798,0.8897,0.8897,0.9156,0.9967,1.1019,1.1916,1.2433,1.2273,1.2292,1.2872,1.3651,1.3989,1.356,1.376,1.3406,1.2163,1.1164,1.0066,0.8771,0.839,0.7951,0.7445,0.7204,0.7053,0.6997,0.6846,0.6693,0.6517,0.6483,0.6465,0.6448,0.6248,0.6366,0.6724,0.5963,0.6001,0.6562,0.0,0.5365,0.5502,0.7051,0.9796,1.2923,1.2904,1.2887,1.2897,1.288,1.2881,1.2832,1.2471,1.2329,1.2215,1.1398,1.1463,1.1577,0.0,1.031,1.0508,0.9732,0.9481,0.9541,0.9707,0.9629,0.9502,0.0,0.0,0.0,0.9863,0.9219,0.8818,0.0,0.0,0.0,1.0039,1.0793,1.1332,1.1243,1.1988,1.2529,1.2617,1.2705,1.2754,1.2754,1.2676,1.2695,1.2871,1.2725,1.2705,1.2871,1.2881,1.2881,1.2881,1.2881,1.2881,1.2881,1.2881,1.3047,1.3389,1.4481,1.493,1.4934,1.7245,1.7677,1.681,1.8608,1.9044,1.8555,1.9254,1.9579,1.9579,1.9747,1.9798,1.9798,1.9798,1.9798,1.9798,0.8897,0.8896,0.8932,0.9048,1.0258,1.1662,1.3075,1.2994,1.2867,1.3117,1.3798,1.446,1.4994,1.457,1.4397,1.4716,1.2675,1.1225,1.0885,0.9408,0.8435,0.8182,0.7217,0.6878,0.7332,0.665,0.6271,0.6254,0.6063,0.5984,0.5984,0.5936,0.6054,0.6266,0.6171,0.6457,0.7002,0.648,0.6244,0.6348,0.7302,0.9789,1.2914,1.2889,1.2908,1.2903,1.2905,1.2881,1.2871,1.2822,1.2815,1.2751,1.2205,1.2358,1.2559,1.166,0.0,0.0,1.1426,1.132,1.1145,1.0381,1.0783,1.093,0.9414,0.0,0.9893,0.9277,0.0,0.8975,0.0,0.0,0.0,0.0,0.0,1.0293,0.9865,1.0586,1.1279,1.1704,1.2061,1.2305,1.2305,1.1943,1.2086,1.2822,1.2194,1.2096,1.2842,1.2881,1.2881,1.2881,1.2881,1.2881,1.2881,1.2881,1.29,1.2959,1.3802,1.4566,1.5196,1.624,1.7034,1.7468,1.7743,1.7786,1.7797,1.8501,1.8821,1.8874,1.9527,1.9798,1.9798,1.9798,1.9798,1.9798,0.8854,0.8907,0.8786,0.839,0.8828,1.0094,1.2556,1.2812,1.275,1.2777,1.3973,1.5092,1.5784,1.5244,1.4856,1.4908,1.3292,1.1888,1.1023,0.9749,0.8832,0.8424,0.7473,0.7066,0.7274,0.6684,0.6265,0.6034,0.5936,0.5911,0.5893,0.5745,0.5918,0.6343,0.58,0.6266,0.7386,0.6163,0.6243,0.7372,0.9758,1.0656,1.0584,1.1166,1.2014,1.2876,1.288,1.2881,1.2842,1.2588,1.2691,1.2825,1.2376,1.2541,1.2793,1.2119,1.2073,1.2111,1.1727,1.1624,1.1508,1.1152,1.1103,1.0996,1.0273,1.0,0.9941,1.0078,0.0,0.0,0.0,0.0,0.0,0.0,0.9307,0.9482,0.9297,0.958,1.0146,1.1074,1.1348,1.1562,1.1816,1.1714,1.1763,1.2135,1.1822,1.1881,1.2471,1.2744,1.2881,1.2881,1.2881,1.2881,1.2881,1.2881,1.2881,1.2891,1.4175,1.4684,1.4619,1.6328,1.6856,1.6358,1.7246,1.7357,1.7034,1.7743,1.8058,1.8112,1.8394,1.9044,1.9798,1.9798,1.9798,1.9798,0.874,0.8711,0.8467,0.7988,0.7901,0.8922,1.1932,1.2596,1.2812,1.2936,1.4223,1.5351,1.5992,1.557,1.5153,1.4966,1.3656,1.2437,1.1468,1.033,0.9515,0.9128,0.8106,0.7558,0.7582,0.6935,0.639,0.598,0.5781,0.5678,0.5678,0.5482,0.5725,0.6328,0.5644,0.6364,0.7945,0.6435,0.68,0.861,1.0643,1.041,0.889,0.9881,1.1125,1.2314,1.2314,1.2314,1.2316,1.2149,1.2311,1.256,1.2453,1.2627,1.2813,1.2492,1.2412,1.2347,1.2062,1.195,1.1907,1.1659,1.1324,1.1025,1.0791,1.0342,1.0089,1.0635,1.0186,0.0,0.0,0.0,0.0,0.0,0.0,0.9053,0.0,0.876,0.0,1.042,1.0762,1.1084,1.1557,1.1283,1.1224,1.1577,1.1273,1.1387,1.2141,1.2529,1.2754,1.2881,1.2881,1.2881,1.2881,1.2881,1.2881,1.2939,1.4267,1.4631,1.416,1.6098,1.6415,1.5468,1.6518,1.6698,1.6265,1.6968,1.7302,1.7302,1.7523,1.8221,1.9202,1.9423,1.9475,1.9527,0.857,0.8244,0.7922,0.7914,0.7896,0.8784,1.1423,1.2602,1.3399,1.4065,1.4585,1.5029,1.5407,1.5374,1.5363,1.556,1.3967,1.2976,1.2943,1.1494,1.066,1.0614,0.9236,0.849,0.8557,0.74,0.6585,0.6191,0.5482,0.5127,0.5127,0.5108,0.5431,0.6002,0.5974,0.7073,0.8911,0.7999,0.861,1.0081,0.8487,0.8228,0.8884,0.9864,1.046,1.0864,1.0864,1.0864,1.0965,1.1598,1.1805,1.1972,1.2647,1.2871,1.2881,1.2881,1.2861,1.2852,1.2871,1.2861,1.2647,1.1822,1.1586,1.1361,1.0488,1.0596,1.0762,1.0381,1.0969,1.14,1.0967,0.0,0.0,0.0,0.0,0.0,0.0,0.0,0.0,0.0,0.0,1.1084,1.1557,1.043,1.0215,1.1508,1.04,1.04,1.2093,1.219,1.2441,1.2871,1.2881,1.2881,1.2881,1.2881,1.2881,1.2891,1.373,1.4131,1.4107,1.5076,1.5468,1.541,1.5468,1.5468,1.5468,1.6208,1.6539,1.6595,1.7302,1.7633,1.7743,1.8447,1.8715,1.8821,0.8823,0.8674,0.8432,0.7981,0.9325,1.0483,1.0548,1.2058,1.3264,1.3521,1.4951,1.6007,1.6132,1.61,1.569,1.4698,1.4056,1.3517,1.3118,1.1954,1.1297,1.1297,1.0278,0.9546,0.9278,0.8328,0.7512,0.6811,0.6225,0.5954,0.5944,0.5693,0.5533,0.5456,0.5418,0.708,0.9925,0.0,0.0,0.9275,0.8658,0.8581,0.8827,0.9133,0.9899,1.0813,1.0813,1.0813,1.0914,1.1566,1.1516,1.1325,1.251,1.2559,1.2295,1.2774,1.2881,1.2881,1.2881,1.2881,1.2764,1.213,1.181,1.1449,1.083,1.0811,1.0791,1.0371,1.0998,1.1469,1.0996,0.0,0.0,0.0,0.0,0.0,0.0,0.0,0.0,0.0,0.0,0.0,0.0,0.998,1.0127,1.0273,1.04,1.0859,1.1738,1.2344,1.2725,1.2871,1.2881,1.2881,1.2881,1.2881,1.3018,1.3301,1.3867,1.4287,1.458,1.5156,1.541,1.541,1.541,1.541,1.541,1.57,1.5748,1.5806,1.6026,1.613,1.6358,1.8058,1.8715,1.8821,0.9129,0.9054,0.8845,0.8337,0.9857,1.1107,1.1094,1.2961,1.4105,1.3288,1.5132,1.6522,1.6522,1.5733,1.49,1.4165,1.3821,1.347,1.3047,1.2433,1.198,1.1797,1.1,1.0369,0.9849,0.954,0.8691,0.732,0.7,0.6649,0.6246,0.609,0.0,0.0,0.5114,0.659,0.9226,1.077,1.0403,0.8779,0.8797,0.8783,0.8802,0.8786,0.9343,1.0064,1.0064,1.0064,1.021,1.0864,1.0813,1.0669,1.2098,1.2187,1.1922,1.2666,1.2881,1.2881,1.2881,1.2881,1.2803,1.2299,1.2006,1.1644,1.1032,1.1152,1.1211,1.0625,1.1361,1.1939,1.1455,0.0,0.0,0.0,0.0,0.0,0.0,0.8145,0.0,0.0,0.0,0.0,0.0,0.9387,0.9512,0.9844,1.0098,1.0625,1.1557,1.2256,1.2725,1.2871,1.2881,1.2881,1.2881,1.2881,1.3096,1.3516,1.3936,1.4365,1.4805,1.5215,1.541,1.541,1.541,1.541,1.541,1.541,1.541,1.541,1.541,1.541,1.5575,1.7291,1.8058,1.8417,0.9491,0.9322,0.9192,0.9052,0.9537,1.0664,1.2834,1.5069,1.5702,1.3483,1.5104,1.6455,1.6455,1.4388,1.333,1.4095,1.3405,1.292,1.289,1.2875,1.2692,1.2202,1.1528,1.0922,1.0345,1.0885,1.012,0.7904,0.7778,0.7129,0.6098,0.6348,0.0,0.0,0.5134,0.0,0.7015,0.8283,0.879,0.882,0.8817,0.8804,0.8804,0.8804,0.8804,0.8804,0.8804,0.8804,0.891,0.9562,0.9762,0.9961,1.1316,1.1715,1.1873,1.2559,1.2822,1.2871,1.2871,1.2871,1.2803,1.2357,1.2231,1.1978,1.1132,1.1597,1.1937,1.1113,1.1973,1.2744,1.2275,0.0,0.0,0.0,0.0,0.0,0.0,0.0,0.7773,0.0,0.0,0.0,0.0,0.8668,0.8454,1.0068,0.9492,0.9795,0.0,1.1963,1.2412,1.2871,1.2881,1.2881,1.2881,1.2881,1.3105,1.3545,1.3945,1.4375,1.4834,1.5234,1.541,1.541,1.541,1.541,1.541,1.541,1.541,1.541,1.541,1.541,1.5468,1.6208,1.6978,1.7645,0.9973,0.9776,0.9925,1.0642,1.0441,1.0847,1.2693,1.4984,1.5646,1.3288,1.4562,1.5706,1.5706,1.5124,1.4867,1.5069,1.3739,1.2922,1.2876,1.2903,1.2526,1.1748,1.219,1.1842,1.0559,1.1767,1.1829,1.0592,0.8664,0.7562,0.7274,0.0,0.0,0.0,0.0,0.5323,0.5867,0.7909,0.8799,0.8823,0.8798,0.8804,0.8804,0.8804,0.8804,0.8804,0.8804,0.8804,0.891,0.9562,0.9465,0.9309,1.061,1.0712,1.0458,1.1156,1.1675,1.2106,1.2106,1.2483,1.2871,1.2745,1.2483,1.2147,1.1893,1.2051,1.207,1.1547,1.2233,1.2646,1.192,1.2002,0.0,0.0,0.0,0.0,0.0,0.0,0.0,0.9501,0.0,0.0,0.797,0.8626,0.9062,0.891,0.9541,1.042,1.1547,1.1714,1.2135,1.2861,1.2881,1.2881,1.2881,1.2881,1.3252,1.3975,1.4029,1.4521,1.5254,1.5361,1.541,1.541,1.541,1.541,1.541,1.541,1.541,1.541,1.541,1.541,1.5468,1.6208,1.6978,1.7645,1.0455,1.0142,1.0404,1.1823,1.1985,1.217,1.2785,1.403,1.4584,1.3541,1.4572,1.5379,1.5428,1.5398,1.5399,1.5381,1.4561,1.381,1.3451,1.2473,1.1659,1.119,1.228,1.2494,1.1635,1.1262,1.0606,0.9611,0.9839,0.9207,0.7679,0.0,0.0,0.0,0.0,0.5502,0.6156,0.7997,0.8799,0.8804,0.8804,0.8804,0.0,0.8804,0.8804,0.8804,0.8804,0.8804,0.8857,0.9263,0.9106,0.8956,1.0012,1.0115,0.9953,1.0612,1.1189,1.1666,1.1768,1.2357,1.2881,1.2881,1.2686,1.2434,1.2241,1.2368,1.2383,1.1943,1.2402,1.2725,1.2283,1.2187,0.0,0.0,0.0,0.0,0.0,0.0,0.0,0.0,0.9169,0.0,0.7227,0.8094,0.8727,0.8662,0.9316,1.0098,1.0998,1.1543,1.208,1.2578,1.2783,1.2881,1.2881,1.3066,1.3486,1.4077,1.4326,1.4766,1.541,1.541,1.541,1.541,1.541,1.541,1.541,1.541,1.541,1.541,1.541,1.541,1.5468,1.5864,1.6436,1.7011,1.0928,1.0417,1.0699,1.2582,1.3486,1.3765,1.3165,1.303,1.3203,1.374,1.456,1.5143,1.54,1.5022,1.4763,1.4765,1.4787,1.4473,1.3677,1.1752,1.0628,1.0755,1.1768,1.2378,1.2368,1.0038,0.8297,0.7241,1.052,1.05,0.0,0.0,0.0,0.0,0.0,0.0,0.0,0.8373,0.8804,0.8804,0.8804,0.8804,0.8811,0.8851,0.8864,0.8871,0.8911,0.8871,0.8804,0.8804,0.8804,0.8917,0.9508,0.9695,0.9777,1.0474,1.0997,1.1366,1.1603,1.2316,1.2998,1.2939,1.2939,1.2871,1.2415,1.2618,1.2773,1.2393,1.2617,1.2861,1.2803,1.2441,1.1768,0.0,0.0,0.0,0.0,0.0,0.0,0.0,0.0,0.0,0.748,0.7647,0.8123,0.8789,0.8887,0.9346,1.0312,1.1387,1.208,1.2258,1.2686,1.2881,1.2881,1.3301,1.3721,1.4087,1.458,1.501,1.541,1.541,1.541,1.541,1.541,1.541,1.541,1.541,1.541,1.541,1.541,1.541,1.542,1.5478,1.5771,1.6211,1.1391,1.0718,1.0805,1.2596,1.2998,1.3312,1.3802,1.3694,1.3306,1.256,1.2984,1.3841,1.5276,1.305,1.1469,1.1456,1.1442,1.1405,1.1209,1.0856,1.0627,1.0609,0.9931,0.9532,0.9542,0.9044,0.8706,0.849,0.8175,0.7251,0.0,0.0,0.0,0.0,0.0,0.0,0.8501,0.8684,0.8804,0.8804,0.8804,0.8804,0.8831,0.9017,0.911,0.9143,0.9439,0.9218,0.8804,0.8804,0.8804,0.8851,0.9194,0.9153,0.9104,0.9708,1.0139,1.0514,1.0834,1.2195,1.3458,1.3008,1.3135,1.3272,1.2871,1.2813,1.2861,1.2783,1.2832,1.2773,1.2412,1.1973,1.1645,0.0,0.0,0.0,0.0,0.0,0.0,0.0,0.0,1.0078,0.8799,0.874,0.8555,0.7968,0.8281,0.917,1.0713,1.0684,1.1279,1.2725,1.2842,1.2881,1.2881,1.3301,1.3721,1.4087,1.458,1.501,1.541,1.541,1.541,1.541,1.541,1.541,1.541,1.541,1.541,1.541,1.541,1.541,1.5459,1.5811,1.623,1.6621,1.0995,1.1286,1.1895,1.2734,1.2881,1.2735,1.2365,1.2862,1.3243,1.3007,1.2913,1.3072,1.3467,1.1744,1.058,1.0628,1.0594,1.0588,1.0622,1.0622,1.06,1.0618,1.0066,0.9708,0.9733,0.9123,0.8803,0.8777,0.7007,0.5838,0.5296,0.529,0.0,0.5319,0.0,0.7176,0.0,0.8791,0.916,0.9724,0.9391,0.9259,0.9279,0.9286,0.9409,0.962,0.9826,0.9626,0.9259,0.9259,0.9259,0.9285,0.9426,0.9372,0.9319,0.9471,0.9757,1.007,1.0585,1.2653,1.445,1.3941,1.3681,1.3549,1.3283,1.3203,1.3135,1.2939,1.2881,1.2812,1.2607,1.2393,1.2168,1.1943,1.1728,1.1582,1.1606,0.0,1.1084,0.0,0.0,0.0,0.0,0.8877,0.8652,0.7763,0.8135,0.8926,1.0176,1.0478,1.1201,1.25,1.2764,1.2988,1.3203,1.3623,1.4043,1.4473,1.4902,1.5215,1.541,1.541,1.541,1.541,1.541,1.541,1.541,1.541,1.541,1.541,1.541,1.5547,1.5771,1.6047,1.6494,1.707,1.1016,1.147,1.2008,1.2008,1.2241,1.2015,1.0781,1.1663,1.2757,1.3545,1.3518,1.2906,1.1586,1.0958,1.058,1.0611,1.0624,1.0624,1.0624,1.0624,1.0624,1.0624,1.0616,1.0625,1.0587,0.9674,0.9068,0.8776,0.6936,0.593,0.5658,0.0,0.0,0.0,0.6875,0.7903,0.8792,0.8782,0.9472,1.0524,0.9914,0.9751,0.988,0.9558,0.9708,1.0048,1.0109,1.0005,0.9873,0.9873,0.9786,0.9693,0.9753,0.9733,0.9641,0.9636,0.9563,0.9713,1.0524,1.3052,1.5241,1.4471,1.4172,1.3997,1.3704,1.3541,1.3419,1.3116,1.2939,1.2881,1.2881,1.2881,1.2744,1.2305,1.218,1.2109,1.1748,0.0,1.1459,0.0,0.0,0.0,0.8789,0.8779,0.8594,0.789,0.8096,0.8691,0.968,1.041,1.127,1.2334,1.2705,1.3076,1.3506,1.3926,1.4355,1.4785,1.5215,1.541,1.541,1.541,1.541,1.541,1.541,1.541,1.541,1.541,1.541,1.542,1.5508,1.5762,1.6145,1.6341,1.6714,1.711,1.2666,1.0797,0.9166,0.9166,1.0077,1.0795,1.0604,1.0744,1.1358,1.2887,1.4326,1.4057,1.1038,1.0661,1.0611,1.0624,1.0624,1.0624,1.0624,1.0624,1.0624,1.0624,1.0604,1.0588,1.0572,1.0463,0.9895,0.8811,0.8557,0.7914,0.6818,0.5803,0.5868,0.6874,0.808,0.8672,0.8791,0.8799,0.9525,1.0567,0.9938,1.0017,1.0443,0.9907,0.9873,1.0114,1.0443,1.0544,1.0544,1.0544,1.0127,0.9733,0.9993,0.9761,0.9584,1.0252,0.974,0.9144,1.0282,1.2966,1.5032,1.3554,1.4227,1.5023,1.4229,1.3768,1.351,1.3439,1.3145,1.2881,1.2881,1.2881,1.2744,1.2305,1.218,1.2171,1.2132,1.2122,1.1992,1.1547,0.0,0.0,0.9573,0.8857,0.844,0.8352,0.7988,0.8496,1.0137,1.0303,1.1103,1.2773,1.2861,1.3076,1.3506,1.3926,1.4355,1.4785,1.5215,1.541,1.541,1.541,1.541,1.541,1.541,1.541,1.541,1.541,1.541,1.5449,1.585,1.6086,1.6223,1.6963,1.6751,1.6227,1.1688,1.1214,1.0902,1.0902,1.1296,1.1603,1.1603,1.1603,1.1881,1.2481,1.255,1.2024,1.0758,1.0624,1.0624,1.0624,1.0624,1.0624,1.0624,1.0624,1.0624,1.0624,1.0624,1.0577,1.0594,1.0622,1.0363,0.9869,0.9138,0.8579,0.807,0.6855,0.6935,0.8084,0.8568,0.8824,0.8845,0.9582,1.0168,1.0573,1.0343,1.0411,1.0567,1.0334,1.0312,1.0401,1.0577,1.0624,1.0624,1.0624,1.0463,1.0234,1.0347,1.0294,1.0186,1.0488,1.0279,0.9958,1.0444,1.1569,1.2332,1.1752,1.3476,1.533,1.4983,1.4554,1.4116,1.361,1.3173,1.2881,1.2881,1.2881,1.2822,1.2646,1.2617,1.2617,1.2617,1.2617,0.0,1.2012,0.0,1.0967,1.0107,0.9258,0.8857,0.9111,0.823,0.8328,0.9814,1.0137,1.0957,1.2441,1.2744,1.3203,1.3824,1.4,1.4482,1.5156,1.5332,1.541,1.541,1.541,1.541,1.541,1.541,1.5118,1.4746,1.5167,1.4956,1.4268,1.4992,1.5214,1.5147,1.553,1.5582,1.5592,1.1403,1.1737,1.2305,1.2305,1.2305,1.2305,1.2305,1.2305,1.2305,1.2305,1.1583,1.1069,1.1069,1.1069,1.1069,1.1069,1.1069,1.1069,1.1069,1.1069,1.1068,1.1115,1.0808,1.0594,1.0594,1.0598,1.0616,1.0595,0.9738,0.9126,0.8792,0.7911,0.8151,0.932,0.9315,0.9341,0.9362,1.0234,1.0587,1.0609,1.0613,1.0624,1.0624,1.0624,1.0624,1.0624,1.0624,1.0624,1.0624,1.0624,1.0624,1.0624,1.0624,1.0624,1.0624,1.0624,1.0624,1.0604,1.0573,1.0613,1.0598,1.0594,1.2789,1.4967,1.4999,1.4896,1.4533,1.3665,1.3182,1.2881,1.2881,1.2881,1.2842,1.2715,1.2803,1.2832,1.2705,1.2803,0.0,1.2239,1.1719,1.1133,1.0527,0.9687,0.9365,0.9795,0.8994,0.8984,1.0137,1.0254,1.0937,1.2373,1.2842,1.3408,1.4077,1.4268,1.4687,1.541,1.541,1.5294,1.505,1.4805,1.4688,1.4688,1.4688,1.4382,1.3914,1.4579,1.4232,1.3498,1.429,1.4569,1.4498,1.4665,1.473,1.4807,1.2677,1.2291,1.2305,1.2305,1.2305,1.2305,1.2305,1.2305,1.2305,1.2305,1.2291,1.2278,1.2278,1.2278,1.2278,1.2278,1.2278,1.2278,1.2278,1.2278,1.2267,1.2301,1.1184,1.0573,1.0573,1.0603,1.0614,1.0618,1.0595,0.9944,0.8799,0.8792,0.9442,1.0596,1.0603,1.0578,1.0592,1.0599,1.0568,1.0618,1.0624,1.0624,1.0624,1.0624,1.0624,1.0624,1.0624,1.0624,1.0624,1.0624,1.0624,1.0624,1.0624,1.0624,1.0624,1.0624,1.0624,1.0624,1.0618,1.0624,1.0624,1.0618,1.2212,1.3917,1.4141,1.4506,1.4567,1.3662,1.3174,1.2881,1.2881,1.2881,1.2744,1.2258,1.2598,1.2734,1.2248,1.2607,1.2725,1.2239,1.1455,1.0918,1.0898,1.0089,0.9805,1.0244,1.0302,1.0665,1.1538,1.0783,1.1084,1.2822,1.3281,1.3711,1.4077,1.4561,1.499,1.541,1.541,1.4991,1.4213,1.3364,1.3009,1.3009,1.3009,1.3009,1.3033,1.3326,1.341,1.3484,1.4187,1.4473,1.4591,1.5023,1.4593,1.389,1.2437,1.2305,1.2305,1.2305,1.2305,1.2305,1.2305,1.2305,1.1323,0.8533,0.8232,0.8232,0.8232,0.8232,0.8232,0.8232,1.0714,1.2305,1.2305,0.9723,0.9404,1.2171,1.1935,1.1783,1.1783,1.1778,1.1349,1.0571,1.0594,1.0375,1.0012,1.006,1.0203,1.0588,1.0568,1.0627,1.0567,1.0567,1.0612,1.0622,1.0622,1.0622,1.0622,1.0622,1.0622,1.0622,1.0622,1.0622,1.0622,1.0622,1.0622,1.0622,1.0622,1.0581,1.0624,1.0624,1.0624,1.0624,1.0624,1.0624,1.0624,1.0624,1.1659,1.2747,1.283,1.3025,1.3155,1.3113,1.2755,1.2549,1.2832,1.2881,1.2832,1.2695,1.2793,1.2832,1.2695,1.2793,1.2832,1.2686,1.2158,1.1807,1.1807,1.1016,1.0684,1.1165,1.0655,1.0527,1.1084,1.1185,1.1724,1.2842,1.3291,1.3857,1.457,1.4195,1.4172,1.4569,1.4034,1.3614,1.3364,1.313,1.3009,1.3025,1.3202,1.2987,1.2505,1.3372,1.3196,1.2488,1.3239,1.3316,1.3021,1.3194,1.3018,1.2806,1.2305,1.2305,1.1848,1.034,1.004,1.004,1.004,1.004,0.9135,0.6641,0.6338,0.6338,0.6338,0.6338,0.6338,0.6338,0.8609,1.004,1.004,0.7711,0.7439,0.9953,1.0029,1.0304,1.0767,1.0266,1.0478,1.1262,1.1268,1.1215,1.1255,1.1222,1.1229,1.1236,1.1268,1.1273,1.1273,1.1273,1.1273,1.1273,1.1273,1.1273,1.1273,1.1273,1.1273,1.1273,1.1273,1.1273,1.1273,1.1273,1.1273,1.1273,1.1273,1.1249,1.1249,1.1249,1.1249,1.1156,1.0742,1.0715,1.0766,1.0651,1.131,1.212,1.2428,1.2454,1.2472,1.2694,1.2615,1.2554,1.2682,1.2907,1.3066,1.291,1.2881,1.2881,1.2881,1.2881,1.2822,1.2656,1.2393,1.2158,1.1992,1.1631,1.1514,1.1797,1.1465,1.1281,1.1249,1.145,1.194,1.2679,1.3044,1.3474,1.3912,1.354,1.3499,1.3726,1.294,1.2573,1.2512,1.2212,1.2158,1.2288,1.2439,1.2268,1.1947,1.2803,1.2658,1.1948,1.255,1.2573,1.2305,1.2305,1.2305,1.2305,1.1848,1.1848,1.0714,0.6945,0.6338,0.6338,0.6338,0.6338,0.6338,0.6338,0.6338,0.6338,0.6338,0.6338,0.6271,0.6288,0.6274,0.6338,0.6338,0.6338,0.6338,0.6338,0.6276,0.6859,0.8107,0.6935,0.8259,1.2288,1.2312,1.2282,1.2282,1.2289,1.2282,1.2282,1.2282,1.2282,1.2282,1.2282,1.2282,1.2282,1.2282,1.2282,1.2282,1.2282,1.2282,1.2282,1.2282,1.2282,1.2282,1.2282,1.2282,1.2282,1.2282,1.2282,1.2268,1.2301,1.2294,1.2072,1.0949,1.0877,1.1028,1.0725,1.1185,1.1896,1.2642,1.2514,1.2271,1.2305,1.2541,1.267,1.2369,1.2922,1.3319,1.2949,1.2881,1.2881,1.2881,1.2881,1.2725,1.2221,1.2173,1.2018,1.1591,1.1885,1.208,1.208,1.2522,1.2499,1.181,1.1668,1.1809,1.2245,1.2653,1.2707,1.2455,1.2783,1.2887,1.2826,1.2104,1.174,1.1747,1.0975,1.0768,1.1022,1.1042,1.1209,1.1483,1.1777,1.1897,1.1924,1.2198,1.2305,1.2305,1.2305,1.2305,1.2305,0.7702,0.7702,0.7399,0.649,0.6338,0.6338,0.6338,0.6338,0.6338,0.6338,0.6338,0.6338,0.6338,0.6338,0.6352,0.6576,0.639,0.6338,0.6338,0.6338,0.6338,0.6338,0.6321,0.6468,0.6784,0.646,0.8253,1.2264,1.2331,1.233,1.227,1.233,1.233,1.2263,1.2263,1.2263,1.2263,1.2263,1.2263,1.2263,1.2263,1.2263,1.2263,1.2263,1.2263,1.2263,1.2263,1.2263,1.2263,1.2263,1.2263,1.2263,1.2263,1.2263,1.2332,1.2276,1.2294,1.219,1.158,1.1404,1.1256,1.0962,1.0907,1.0926,1.1115,1.1121,1.1117,1.1338,1.1455,1.167,1.2202,1.2455,1.2637,1.2851,1.2881,1.2881,1.2881,1.2881,1.2628,1.1951,1.1883,1.1652,1.1066,1.1086,1.1096,1.0997,1.1396,1.1557,1.1287,1.1536,1.1766,1.199,1.2321,1.2639,1.2877,1.235,1.1779,1.1178,1.1155,1.12,1.1214,1.1182,1.1263,1.1336,1.1563,1.1703,1.179,1.2078,1.2204,1.2204,1.2278,1.2305,1.2305,1.2305,1.2305,1.2305,0.6338,0.6338,0.6346,0.6617,0.6664,0.6664,0.6664,0.6664,0.6664,0.6664,0.6664,0.6664,0.6664,0.6664,0.6725,0.6888,0.663,0.6444,0.64,0.6437,0.6481,0.6525,0.6525,0.6505,0.6464,0.6346,0.83,1.228,1.228,1.1328,0.9569,1.1415,1.2329,1.2282,1.2282,1.2282,1.2282,1.2311,1.2284,1.2284,1.2318,1.2305,1.2305,1.2305,1.2305,1.2305,1.2305,1.2305,1.2305,1.2305,1.2305,1.2305,1.2305,1.2305,1.2318,1.2322,1.231,1.2205,1.19,1.1706,1.1557,1.1263,1.0969,1.0755,1.0755,1.0719,1.0634,1.0828,1.1146,1.1465,1.1688,1.1948,1.2148,1.2184,1.2018,1.195,1.195,1.195,1.1792,1.1366,1.1472,1.1422,1.1061,1.1157,1.1202,1.1096,1.1328,1.1341,1.0966,1.122,1.1464,1.1514,1.1709,1.1871,1.1903,1.1476,1.1115,1.0755,1.0915,1.1062,1.1196,1.1356,1.1496,1.1637,1.1797,1.1944,1.2078,1.2238,1.2305,1.2305,1.2305,1.2305,1.2305,1.2305,1.2305,1.2305,0.6338,0.6332,0.6552,0.7051,0.7139,0.7139,0.7139,0.7139,0.7139,0.7139,0.7139,0.7139,0.7139,0.7139,0.7139,0.7139,0.6912,0.6715,0.659,0.6658,0.6742,0.6837,0.6841,0.6797,0.6702,0.6441,0.799,1.1413,1.1413,0.9658,0.6346,0.9821,1.1407,1.1395,1.1395,1.1395,1.1389,1.138,1.1759,1.2263,1.1759,1.1971,1.2546,1.2377,1.2364,1.2438,1.2526,1.2526,1.2432,1.2304,1.2284,1.2277,1.2318,1.2305,1.2305,1.2305,1.2305,1.2245,1.2004,1.1904,1.181,1.1557,1.1276,1.1056,1.1056,1.0835,1.0692,1.0692,1.1199,1.149,1.1159,1.1456,1.1613,1.137,1.1001,1.0813,1.0813,1.0863,1.0845,1.0751,1.1015,1.118,1.1072,1.1281,1.1415,1.147,1.147,1.1218,1.0711,1.0915,1.1001,1.1001,1.1001,1.0894,1.0618,1.0665,1.0748,1.0995,1.1082,1.1256,1.1496,1.1536,1.1697,1.1937,1.1937,1.2078,1.2305,1.2305,1.2305,1.2305,1.2305,1.2305,1.2305,1.2305,1.2305,1.2305,0.6338,0.6661,0.7034,0.7126,0.7139,0.7139,0.7139,0.7139,0.7139,0.7139,0.7139,0.7139,0.7139,0.7139,0.7139,0.7139,0.7099,0.6959,0.6695,0.6692,0.6742,0.6837,0.6841,0.6797,0.6702,0.646,0.658,0.7222,0.7222,0.6947,0.6327,0.6947,0.72,0.7239,0.7239,0.7239,0.7239,0.7228,0.9162,1.2024,0.9063,1.0296,1.3729,1.266,1.2608,1.3158,1.3611,1.3512,1.2948,1.2496,1.2322,1.229,1.2297,1.2305,1.2305,1.2305,1.2305,1.2291,1.2245,1.2058,1.1857,1.181,1.1577,1.1356,1.1356,1.1136,1.0922,1.0922,1.0857,1.0829,1.1046,1.101,1.0961,1.1263,1.1001,1.0813,1.0813,1.1034,1.1019,1.044,1.0627,1.0556,1.0001,0.9992,1.0124,1.032,1.034,1.0451,1.0594,1.0649,1.0676,1.0676,1.0676,1.0634,1.0624,1.0802,1.0949,1.1002,1.1496,1.1757,1.181,1.2058,1.2191,1.2231,1.2231,1.2258,1.2305,1.2305,1.2305,1.2305,1.2305,1.2305,1.2305,1.2305,1.2305,1.2305,0.6732,0.6953,0.7139,0.7139,0.7139,0.7139,0.7139,0.7139,0.7139,0.7139,0.7139,0.7139,0.7139,0.7139,0.7139,0.7139,0.7139,0.7082,0.6946,0.6939,0.6956,0.7,0.7004,0.6946,0.6915,0.6803,0.6753,0.6754,0.6754,0.674,0.6719,0.6743,0.674,0.6719,0.6719,0.6719,0.6719,0.6695,0.7784,0.9327,0.7752,0.9143,1.2283,1.2994,1.3473,1.375,1.4022,1.3936,1.3643,1.3393,1.3169,1.2966,1.2923,1.2882,1.2759,1.2592,1.2425,1.2305,1.2305,1.2204,1.2104,1.2104,1.1884,1.1663,1.1663,1.1436,1.1229,1.1229,1.0995,1.0877,1.1038,1.0688,1.0441,1.0631,1.024,0.9982,1.0159,1.0213,1.01,1.0009,1.0184,1.0262,0.9973,1.006,1.0214,1.0347,1.0354,1.0414,1.0618,1.0624,1.0624,1.0624,1.0715,1.0795,1.0795,1.1082,1.1303,1.147,1.1744,1.1951,1.2104,1.2238,1.2305,1.2305,1.2305,1.2305,1.2305,1.2305,1.2305,1.2305,1.2305,1.2305,1.2305,1.2305,1.2305,1.2305,0.7139,0.7139,0.7139,0.7139,0.7139,0.7139,0.7139,0.7139,0.7139,0.7139,0.7139,0.7139,0.7139,0.7139,0.7139,0.7139,0.7139,0.7139,0.7139,0.7139,0.7139,0.7139,0.7139,0.7092,0.707,0.707,0.7097,0.7063,0.7063,0.7063,0.7063,0.7063,0.7063,0.7063,0.7063,0.7063,0.7063,0.7108,0.7094,0.709,0.7138,0.8379,1.0571,1.2361,1.329,1.3635,1.3628,1.3803,1.4051,1.3975,1.3767,1.3486,1.3419,1.3306,1.3166,1.2926,1.2692,1.2485,1.2345,1.2305,1.2305,1.2305,1.2138,1.1971,1.1971,1.1744,1.153,1.153,1.1296,1.1096,1.1096,1.0615,1.0221,1.0221,0.9726,0.9419,0.9653,0.9546,0.9532,0.976,1.004,1.0221,1.0221,1.0428,1.0624,1.0624,1.0624,1.0624,1.0624,1.0692,1.0688,1.0755,1.0915,1.1022,1.1096,1.1383,1.1643,1.187,1.1937,1.2084,1.2305,1.2305,1.2305,1.2305,1.2305,1.2305,1.2305,1.2305,1.2305,1.2305,1.2305,1.2305,1.2305,1.2305,1.2305,1.2305,0.7139,0.7139,0.7139,0.7139,0.7139,0.7139,0.7139,0.7139,0.7139,0.7139,0.7139,0.7139,0.7139,0.7139,0.7139,0.7139,0.7139,0.7139,0.7139,0.7139,0.7139,0.7139,0.7139,0.7136,0.7126,0.7126,0.7119,0.7109,0.7109,0.7109,0.7109,0.7109,0.7109,0.7109,0.7109,0.7109,0.7109,0.7105,0.7105,0.7102,0.7099,0.8066,0.957,0.9753,1.094,1.236,1.2076,1.2868,1.4072,1.3714,1.3614,1.3567,1.3293,1.3213,1.3206,1.318,1.316,1.3019,1.2452,1.2305,1.2305,1.2305,1.2285,1.2271,1.2271,1.2044,1.1837,1.1837,1.1597,1.1396,1.1396,1.0922,1.0591,1.0591,1.0033,0.9659,0.9679,0.9893,1.006,1.008,1.0347,1.0591,1.0591,1.0611,1.0624,1.0624,1.0624,1.0624,1.0624,1.0815,1.1082,1.1356,1.1122,1.1122,1.139,1.169,1.185,1.187,1.2144,1.2278,1.2305,1.2305,1.2305,1.2305,1.2305,1.2305,1.2305,1.2305,1.2305,1.2305,1.2305,1.2305,1.2305,1.2305,1.2305,1.2305,0.7139,0.7139,0.7139,0.7139,0.7139,0.7139,0.7139,0.7139,0.7139,0.7139,0.7139,0.7139,0.7139,0.7139,0.7139,0.7139,0.7139,0.7139,0.7139,0.7139,0.7139,0.7139,0.7139,0.7139,0.7139,0.7139,0.7139,0.7139,0.7139,0.7139,0.7139,0.7139,0.7139,0.7139,0.7139,0.7139,0.7139,0.7139,0.7139,0.7139,0.7139,0.7933,0.9074,0.8341,0.9374,1.1203,1.056,1.1519,1.2923,1.2825,1.331,1.3901,1.3788,1.3754,1.3721,1.3534,1.3353,1.316,1.2926,1.2726,1.2532,1.2345,1.2305,1.2305,1.2305,1.2218,1.2138,1.2138,1.1904,1.1697,1.1697,1.1369,1.1096,1.1096,1.0762,1.0561,1.0742,1.0701,1.0728,1.0909,1.0868,1.0902,1.1082,1.0935,1.0902,1.1082,1.1096,1.1096,1.1096,1.1202,1.1396,1.169,1.1597,1.159,1.1697,1.1991,1.2138,1.2138,1.2245,1.2305,1.2305,1.2305,1.2305,1.2305,1.2305,1.2305,1.2305,1.2305,1.2305,1.2305,1.2305,1.2305,1.2305,1.2305,1.2305,1.2305,0.7139,0.7139,0.7139,0.7139,0.7139,0.7139,0.7139,0.7139,0.7139,0.7139,0.7139,0.7139,0.7139,0.7139,0.7139,0.7139,0.7139,0.7139,0.7139,0.7139,0.7139,0.7139,0.7139,0.7139,0.7139,0.7139,0.7139,0.7139,0.7139,0.7139,0.7139,0.7139,0.7139,0.7139,0.7139,0.7139,0.7139,0.7139,0.7139,0.7139,0.7139,0.7577,0.8277,0.7453,0.8325,1.0005,0.9456,1.0408,1.1815,1.1815,1.251,1.3555,1.3555,1.3822,1.3957,1.3406,1.33,1.3467,1.3373,1.3193,1.2933,1.2538,1.2371,1.2305,1.2305,1.2305,1.2305,1.2305,1.2144,1.2004,1.2004,1.1764,1.1563,1.1563,1.1316,1.1196,1.1396,1.1249,1.1202,1.1403,1.1249,1.1209,1.141,1.1243,1.1209,1.141,1.1423,1.147,1.1557,1.1563,1.1703,1.1997,1.2004,1.2004,1.2004,1.2204,1.2305,1.2305,1.2305,1.2305,1.2305,1.2305,1.2305,1.2305,1.2305,1.2305,1.2305,1.2305,1.2305,1.2305,1.2305,1.2305,1.2305,1.2305,1.2305,1.2305,0.7139,0.7139,0.7139,0.7139,0.7139,0.7139,0.7139,0.7139,0.7139,0.7139,0.7139,0.7139,0.7139,0.7139,0.7139,0.7139,0.7143,0.7143,0.7143,0.7143,0.7143,0.7143,0.7143,0.7143,0.7139,0.7143,0.7143,0.7143,0.7143,0.7143,0.7143,0.7143,0.7143,0.7143,0.7143,0.7143,0.7143,0.7143,0.7143,0.7143,0.7143,0.7143,0.7143,0.7143,0.7845,0.8894,0.8894,0.9579,1.0611,1.0611,1.13,1.2322,1.2322,1.3118,1.3822,1.2681,1.3118,1.4021,1.3645,1.3559,1.3419,1.2899,1.2525,1.2305,1.2305,1.2305,1.2305,1.2305,1.2305,1.2305,1.2305,1.2064,1.187,1.187,1.1623,1.143,1.143,1.143,1.143,1.143,1.143,1.143,1.143,1.143,1.143,1.143,1.143,1.1563,1.1857,1.187,1.2004,1.2291,1.2298,1.2298,1.2305,1.2298,1.2305,1.2305,1.2298,1.2298,1.2305,1.2298,1.2305,1.2298,1.2305,1.2305,1.2305,1.2305,1.2305,1.2305,1.2305,1.2305,1.2305,1.2305,1.2305,1.2305,0.7139,0.7139,0.7139,0.7139,0.7139,0.7139,0.7139,0.7139,0.7139,0.7139,0.7139,0.7139,0.7139,0.7139,0.7139,0.7139,0.7241,0.7346,0.7455,0.7461,0.7336,0.7073,0.707,0.7101,0.7143,0.7095,0.707,0.707,0.7538,0.7671,0.7461,0.7465,0.7407,0.7309,0.7414,0.7404,0.7309,0.7417,0.7461,0.7461,0.7461,0.7461,0.7461,0.7461,0.7646,0.8015,0.8015,0.8655,0.9513,0.9513,1.0207,1.1123,1.1123,1.1386,1.1563,1.1214,1.1386,1.1632,1.156,1.1332,1.1546,1.2758,1.2839,1.2612,1.2612,1.2452,1.2305,1.2305,1.2305,1.2305,1.2305,1.2231,1.2171,1.2171,1.2098,1.2037,1.2037,1.2037,1.2037,1.2037,1.1864,1.1817,1.2017,1.1857,1.1824,1.2024,1.2037,1.2078,1.2171,1.2171,1.1911,1.1236,1.1242,1.0938,1.0201,1.1626,1.2305,1.2298,1.162,1.162,1.2224,1.0875,1.0571,1.1236,1.0496,1.0196,1.0196,1.0196,1.0196,1.0196,1.0196,1.0196,1.0196,1.0196,1.0196,1.0196,0.7139,0.7139,0.7139,0.7139,0.7139,0.7139,0.7139,0.7139,0.7139,0.7139,0.7139,0.7139,0.7139,0.7139,0.7173,0.7251,0.7383,0.7502,0.7594,0.76,0.7476,0.7316,0.7269,0.733,0.7475,0.7178,0.7102,0.7063,0.7712,0.7886,0.7753,0.7715,0.7553,0.7465,0.7556,0.755,0.7468,0.756,0.76,0.76,0.76,0.76,0.76,0.76,0.76,0.76,0.76,0.7998,0.8547,0.8547,0.9144,1.0041,1.0041,1.0246,1.0524,1.0096,1.0265,1.0611,1.0611,1.0514,1.0636,1.184,1.1846,1.157,1.157,1.176,1.1923,1.1809,1.2172,1.2445,1.2325,1.2305,1.2305,1.2305,1.2305,1.2305,1.2305,1.2305,1.2305,1.2305,1.2144,1.2111,1.2285,1.2144,1.2118,1.2285,1.1922,1.1694,1.1694,1.1323,1.0795,1.0265,1.019,0.9895,0.9296,1.0501,1.1099,1.1099,1.0496,1.0496,1.1099,0.9825,0.9593,1.019,0.9593,0.9296,0.9296,0.9296,0.9296,0.9296,0.9296,0.9296,0.9296,0.9296,0.9296,0.9296,0.7139,0.7139,0.7139,0.7139,0.7139,0.7139,0.7139,0.7139,0.7139,0.7139,0.7139,0.7149,0.718,0.718,0.7255,0.7438,0.7553,0.7617,0.7638,0.7638,0.7638,0.7736,0.7664,0.7714,0.7969,0.7485,0.7205,0.7207,0.7773,0.7966,0.7966,0.7777,0.7631,0.7617,0.7634,0.7631,0.7617,0.7634,0.7638,0.7638,0.7638,0.7638,0.7638,0.7638,0.7638,0.7638,0.7638,0.7631,0.7617,0.7604,0.8236,0.9001,0.9001,0.9593,1.0149,0.9095,0.9519,1.0289,1.0269,1.0265,1.0265,1.0265,0.9887,0.9514,0.974,1.053,1.1261,1.0947,1.1843,1.2623,1.2276,1.2304,1.2385,1.2385,1.2358,1.2345,1.2345,1.2318,1.2305,1.2305,1.2305,1.2224,1.215,1.2077,1.2077,1.215,1.1242,1.0634,1.0634,0.982,0.9221,0.9145,0.915,0.9145,0.9069,0.9013,0.9165,0.9296,0.9221,0.9221,0.9296,0.9145,0.9069,0.9145,0.9069,0.8993,0.8993,0.8993,0.8993,0.8993,0.8993,0.9008,0.9022,0.9022,0.9037,0.9052,0.7139,0.7139,0.7139,0.7139,0.7139,0.7139,0.7139,0.7139,0.7139,0.7139,0.7139,0.7231,0.7475,0.7502,0.7519,0.756,0.7655,0.7777,0.7933,0.7943,0.7943,0.7946,0.7875,0.7984,0.7977,0.7855,0.7831,0.7808,0.7953,0.7977,0.7977,0.7953,0.7879,0.777,0.7889,0.7879,0.7773,0.7892,0.7943,0.7943,0.7943,0.7943,0.7943,0.7943,0.7943,0.7943,0.7943,0.7868,0.7746,0.7638,0.7764,0.7916,0.7916,0.8077,0.8206,0.7807,0.7858,0.8095,0.7871,0.7834,0.7834,0.7834,0.7781,0.8123,0.975,1.0075,1.0095,0.9968,1.0919,1.1787,1.1727,1.2368,1.3013,1.3013,1.2812,1.2728,1.2728,1.2452,1.2305,1.2305,1.2305,1.1996,1.1236,1.0421,1.0271,1.1087,1.019,0.9593,0.9593,0.9448,0.8922,0.8161,0.8161,0.7783,0.6945,0.707,0.784,0.9296,0.8466,0.8542,0.9221,0.7633,0.7403,0.8084,0.733,0.6949,0.6949,0.6949,0.6949,0.6949,0.6949,0.7021,0.713,0.713,0.7137,0.7248,0.7139,0.7139,0.7139,0.7139,0.7139,0.7238,0.7526,0.757,0.757,0.757,0.757,0.7522,0.7394,0.7638,0.7807,0.7807,0.7855,0.7926,0.8031,0.8038,0.8038,0.8038,0.8038,0.8038,0.8038,0.8038,0.8038,0.8038,0.8038,0.8038,0.8038,0.8038,0.7997,0.7923,0.8004,0.7994,0.7926,0.8007,0.8038,0.8038,0.8038,0.8038,0.8038,0.8038,0.8038,0.8038,0.8038,0.7987,0.7909,0.7834,0.776,0.7699,0.7699,0.7655,0.7584,0.7502,0.7482,0.7448,0.7292,0.7251,0.7234,0.7156,0.7139,0.7379,0.85,0.9002,0.9237,0.9142,1.0023,1.0811,1.0697,1.1163,1.1496,1.1496,1.1379,1.1286,1.1286,1.1169,1.1035,1.0989,1.0971,1.0697,1.0126,0.9599,0.9523,1.004,0.9234,0.8676,0.8676,0.8304,0.7807,0.7259,0.7259,0.7023,0.6471,0.6542,0.7101,0.804,0.7485,0.7446,0.7905,0.6902,0.6674,0.7141,0.6672,0.6471,0.6471,0.6471,0.6471,0.6471,0.6471,0.6515,0.658,0.658,0.663,0.6709,0.7139,0.7224,0.7292,0.7292,0.7292,0.7461,0.7963,0.8038,0.8038,0.8038,0.8038,0.7848,0.735,0.774,0.8038,0.8038,0.8038,0.8038,0.8038,0.8038,0.8038,0.8038,0.8038,0.8038,0.8038,0.8038,0.8038,0.8038,0.8038,0.8038,0.8038,0.8038,0.8038,0.8038,0.8038,0.8038,0.8038,0.8038,0.8038,0.8038,0.8038,0.8038,0.8038,0.8038,0.8038,0.8038,0.8038,0.8038,0.8038,0.8038,0.7957,0.7848,0.7848,0.777,0.7672,0.7645,0.7638,0.7604,0.7451,0.7411,0.738,0.7251,0.7197,0.718,0.718,0.786,0.8499,0.8263,0.9164,0.9868,0.9606,0.9736,0.9819,0.9819,0.9784,0.9764,0.9764,0.973,0.9636,0.9533,0.9355,0.9287,0.9351,0.9024,0.8947,0.9101,0.8243,0.7776,0.7776,0.7118,0.6702,0.6702,0.6702,0.6702,0.6702,0.6725,0.6739,0.6736,0.661,0.6536,0.6512,0.6512,0.6512,0.6519,0.6647,0.6702,0.6702,0.6702,0.6702,0.6702,0.6702,0.6715,0.6742,0.6766,0.6776,0.6787,0.7139,0.756,0.7919,0.7919,0.7919,0.7946,0.8028,0.8038,0.8038,0.8038,0.8038,0.8007,0.7926,0.7991,0.8038,0.8038,0.8038,0.8038,0.8038,0.8038,0.8038,0.8038,0.8038,0.8038,0.8038,0.8038,0.8038,0.8038,0.8038,0.8038,0.8038,0.8038,0.8038,0.8038,0.8038,0.8038,0.8038,0.8038,0.8038,0.8038,0.8038,0.8038,0.8038,0.8038,0.8038,0.8038,0.8038,0.8038,0.8038,0.8038,0.8024,0.8007,0.8007,0.7994,0.7953,0.7821,0.7784,0.775,0.7607,0.7567,0.7563,0.7543,0.7438,0.7339,0.7339,0.7324,0.7309,0.7288,0.8241,0.9104,0.8992,0.9838,1.052,1.052,1.0278,1.0153,1.0153,0.9906,0.9695,0.9666,0.8937,0.8684,0.9541,0.8093,0.7449,0.8256,0.7468,0.6915,0.6915,0.6771,0.6702,0.6702,0.6702,0.6702,0.6702,0.6831,0.6898,0.6898,0.6875,0.6797,0.6668,0.6668,0.6668,0.6671,0.6692,0.6702,0.6702,0.6702,0.6702,0.6702,0.6702,0.678,0.6912,0.7037,0.7082,0.7082,0.7641,0.7855,0.8038,0.8038,0.8038,0.8038,0.8038,0.8038,0.8038,0.8038,0.8038,0.8038,0.8038,0.8038,0.8038,0.8038,0.8038,0.8038,0.8038,0.8038,0.8038,0.8038,0.8038,0.8038,0.8038,0.8038,0.8038,0.8038,0.8038,0.8038,0.8038,0.8038,0.8038,0.8038,0.8038,0.8038,0.8038,0.8038,0.8038,0.8038,0.8038,0.8038,0.8038,0.8038,0.8038,0.8038,0.8038,0.8038,0.8038,0.8038,0.8038,0.8038,0.8038,0.8038,0.8024,0.796,0.794,0.7906,0.7756,0.7719,0.7699,0.7617,0.755,0.7499,0.7499,0.7448,0.735,0.7177,0.7492,0.7929,0.7929,0.8273,0.8615,0.8615,0.8549,0.85,0.85,0.8345,0.8264,0.8166,0.7654,0.7514,0.8004,0.7188,0.6864,0.7353,0.7028,0.6827,0.6827,0.6902,0.6946,0.6946,0.6946,0.6946,0.6946,0.7014,0.7048,0.7048,0.7048,0.697,0.6827,0.6827,0.6827,0.6831,0.6912,0.6946,0.6946,0.6946,0.6946,0.6946,0.6946,0.6987,0.7054,0.7115,0.7139,0.7139]},{"header":{"parameterUnit":"m.s-1","parameterCategory":1,"la1":30.6,"la2":28.766,"lo1":-90.7593,"lo2":-88.6598,"dy":0.0162,"dx":0.0183,"nx":116,"ny":114,"refTime":"2024-06-11T18:00:00:Z","depth":0,"parameterNumber":3,"parameterNumberName":"V-component_of_WINDS"},"data":[0.0,0.0,0.0,0.0,0.0,0.0,0.0,0.0,0.0,0.0,0.0,0.0,0.0,0.0,0.0,0.0,0.0,0.0,0.0,0.0,0.0,0.0,0.0,0.0,0.0,0.0,0.0,0.0,0.0,0.0,0.0,0.0,0.0,0.0,0.0,0.0,0.0,0.0,0.0,0.0,0.0,0.0,0.0,0.0,0.0,0.0,0.0,0.0,0.0,0.0,0.0,0.0,0.0,0.0,0.0,0.0,0.0,0.0,0.0,0.0,0.0,0.0,0.0,0.0,0.0,0.0,0.0,0.0,0.0,0.0,0.0,0.0,0.0,0.0,0.0,0.0,0.0,0.0,0.0,0.0,0.0,0.0,0.0,0.0,0.0,0.0,0.0,0.0,0.0,0.0,0.0,0.0,0.0,0.0,0.0,0.0,0.0,0.0,0.0,0.0,0.0,0.0,0.0,0.0,0.0,0.0,0.0,0.0,0.0,0.0,0.0,0.0,0.0,0.0,0.0,0.0,0.0,0.0,0.0,0.0,0.0,0.0,0.0,0.0,0.0,0.0,0.0,0.0,0.0,0.0,0.0,0.0,0.0,0.0,0.0,0.0,0.0,0.0,0.0,0.0,0.0,0.0,0.0,0.0,0.0,0.0,0.0,0.0,0.0,0.0,0.0,0.0,0.0,0.0,0.0,0.0,0.0,0.0,0.0,0.0,0.0,0.0,0.0,0.0,0.0,0.0,0.0,0.0,0.0,0.0,0.0,0.0,0.0,0.0,0.0,0.0,0.0,0.0,0.0,0.0,0.0,0.0,0.0,0.0,0.0,0.0,0.0,0.0,0.0,0.0,0.0,0.0,0.0,0.0,0.0,0.0,0.0,0.0,0.0,0.0,0.0,0.0,0.0,0.0,0.0,0.0,0.0,0.0,0.0,0.0,0.0,0.0,0.0,0.0,0.0,0.0,0.0,0.0,0.0,0.0,0.0,0.0,0.0,0.0,0.0,0.0,0.0,0.0,0.0,0.0,0.0,0.0,0.0,0.0,0.0,0.0,0.0,0.0,0.0,0.0,0.0,0.0,0.0,0.0,0.0,0.0,0.0,0.0,0.0,0.0,0.0,0.0,0.0,0.0,0.0,0.0,0.0,0.0,0.0,0.0,0.0,0.0,0.0,0.0,0.0,0.0,0.0,0.0,0.0,0.0,0.0,0.0,0.0,0.0,0.0,0.0,0.0,0.0,0.0,0.0,0.0,0.0,0.0,0.0,0.0,0.0,0.0,0.0,0.0,0.0,0.0,0.0,0.0,0.0,0.0,0.0,0.0,0.0,0.0,0.0,0.0,0.0,0.0,0.0,0.0,0.0,0.0,0.0,0.0,0.0,0.0,0.0,0.0,0.0,0.0,0.0,0.0,0.0,0.0,0.0,0.0,0.0,0.0,0.0,0.0,0.0,0.0,0.0,0.0,0.0,0.0,0.0,0.0,0.0,0.0,0.0,0.0,0.0,0.0,0.0,0.0,0.0,0.0,0.0,0.0,0.0,0.0,0.0,0.0,0.0,0.0,0.0,0.0,0.0,0.0,0.0,0.0,0.0,0.0,0.0,0.0,0.0,0.0,0.0,0.0,0.0,0.0,0.0,0.0,0.0,0.0,0.0,0.0,0.0,0.0,0.0,0.0,0.0,0.0,0.0,0.0,0.0,0.0,0.0,0.0,0.0,0.0,0.0,0.0,0.0,0.0,0.0,0.0,0.0,0.0,0.0,0.0,0.0,0.0,0.0,0.0,0.0,0.0,0.0,0.0,0.0,0.0,0.0,0.0,0.0,0.0,0.0,0.0,0.0,0.0,0.0,0.0,0.0,0.0,0.0,0.0,0.0,0.0,0.0,0.0,0.0,0.0,0.0,0.0,0.0,0.0,0.0,0.0,0.0,0.0,0.0,0.0,0.0,0.0,0.0,0.0,0.0,0.0,0.0,0.0,0.0,0.0,0.0,0.0,0.0,0.0,0.0,0.0,0.0,0.0,0.0,0.0,0.0,0.0,0.0,0.0,0.0,0.0,0.0,0.0,0.0,0.0,0.0,0.0,0.0,0.0,0.0,0.0,0.0,0.0,0.0,0.0,0.0,0.0,0.0,0.0,0.0,0.0,0.0,0.0,0.0,0.0,0.0,0.0,0.0,0.0,0.0,0.0,0.0,0.0,0.0,0.0,0.0,0.0,0.0,0.0,0.0,0.0,0.0,0.0,0.0,0.0,0.0,0.0,0.0,0.0,0.0,0.0,0.0,0.0,0.0,0.0,0.0,0.0,0.0,0.0,0.0,0.0,0.0,0.0,0.0,0.0,0.0,0.0,0.0,0.0,0.0,0.0,0.0,0.0,0.0,0.0,0.0,0.0,0.0,0.0,0.0,0.0,0.0,0.0,0.0,0.0,0.0,0.0,0.0,0.0,0.0,0.0,0.0,0.0,0.0,0.0,0.0,0.0,0.0,0.0,0.0,0.0,0.0,0.0,0.0,0.0,0.0,0.0,0.0,0.0,0.0,0.0,0.0,0.0,0.0,0.0,0.0,0.0,0.0,0.0,0.0,0.0,0.0,0.0,0.0,0.0,0.0,0.0,0.0,0.0,0.0,0.0,0.0,0.0,0.0,0.0,0.0,0.0,0.0,0.0,0.0,0.0,0.0,0.0,0.0,0.0,0.0,0.0,0.0,0.0,0.0,0.0,0.0,0.0,0.0,0.0,0.0,0.0,0.0,0.0,0.0,0.0,0.0,0.0,0.0,0.0,0.0,0.0,0.0,0.0,0.0,0.0,0.0,0.0,0.0,0.0,0.0,0.0,0.0,0.0,0.0,0.0,0.0,0.0,0.0,0.0,0.0,0.0,0.0,0.0,0.0,0.0,0.0,0.0,0.0,0.0,0.0,0.0,0.0,0.0,0.0,0.0,0.0,0.0,0.0,0.0,0.0,0.0,0.0,0.0,0.0,0.0,0.0,0.0,0.0,0.0,0.0,0.0,0.0,0.0,0.0,0.0,0.0,0.0,0.0,0.0,0.0,0.0,0.0,0.0,0.0,0.0,0.0,0.0,0.0,0.0,0.0,0.0,0.0,0.0,0.0,0.0,0.0,0.0,0.0,0.0,0.0,0.0,0.0,0.0,0.0,0.0,0.0,0.0,0.0,0.0,0.0,0.0,0.0,0.0,0.0,0.0,0.0,0.0,0.0,0.0,0.0,0.0,0.0,0.0,0.0,0.0,0.0,0.0,0.0,0.0,0.0,0.0,0.0,0.0,0.0,0.0,0.0,0.0,0.0,0.0,0.0,0.0,0.0,0.0,0.0,0.0,0.0,0.0,0.0,0.0,0.0,0.0,0.0,0.0,0.0,0.0,0.0,0.0,0.0,0.0,0.0,0.0,0.0,0.0,0.0,0.0,0.0,0.0,0.0,0.0,0.0,0.0,0.0,0.0,0.0,0.0,0.0,0.0,0.0,0.0,0.0,0.0,0.0,0.0,0.0,0.0,0.0,0.0,0.0,0.0,0.0,0.0,0.0,0.0,0.0,0.0,0.0,0.0,0.0,0.0,0.0,0.0,0.0,0.0,0.0,0.0,0.0,0.0,0.0,0.0,0.0,0.0,0.0,0.0,0.0,0.0,0.0,0.0,0.0,0.0,0.0,0.0,0.0,0.0,0.0,0.0,0.0,0.0,0.0,0.0,0.0,0.0,0.0,0.0,0.0,0.0,0.0,0.0,0.0,0.0,0.0,0.0,0.0,0.0,0.0,0.0,0.0,0.0,0.0,0.0,0.0,0.0,0.0,0.0,0.0,0.0,0.0,0.0,0.0,0.0,0.0,0.0,0.0,0.0,0.0,0.0,0.0,0.0,0.0,0.0,0.0,0.0,0.0,0.0,0.0,0.0,0.0,0.0,0.0,0.0,0.0,0.0,0.0,0.0,0.0,0.0,0.0,0.0,0.0,0.0,0.0,0.0,0.0,0.0,0.0,0.0,0.0,0.0,0.0,0.0,0.0,0.0,0.0,0.0,0.0,0.0,0.0,0.0,0.0,0.0,0.0,0.0,0.0,0.0,0.0,0.0,0.0,0.0,0.0,0.0,0.0,0.0,0.0,0.0,0.0,0.0,0.0,0.0,0.0,0.0,0.0,0.0,0.0,0.0,0.0,0.0,0.0,0.0,0.0,0.0,0.0,0.0,0.0,0.0,0.0,0.0,0.0,0.0,0.0,0.0,0.0,0.0,0.0,0.0,0.0,0.0,0.0,0.0,0.0,0.0,0.0,0.0,0.0,0.0,0.0,0.0,0.0,0.0,0.0,0.0,0.0,0.0,0.0,0.0,0.0,0.0,0.0,0.0,0.0,0.0,0.0,0.0,0.0,0.0,0.0,0.0,0.0,0.0,0.0,0.0,0.0,0.0,0.0,0.0,0.0,0.0,0.0,0.0,0.0,0.0,0.0,0.0,0.0,0.0,0.0,0.0,0.0,0.0,0.0,0.0,0.0,0.0,0.0,0.0,0.0,0.0,0.0,0.0,0.0,0.0,0.0,0.0,0.0,0.0,0.0,0.0,0.0,0.0,0.0,0.0,0.0,0.0,0.0,0.0,0.0,0.0,0.0,0.0,0.0,0.0,0.0,0.0,0.0,0.0,0.0,0.0,0.0,0.0,0.0,0.0,0.0,0.0,0.0,0.0,0.0,0.0,0.0,0.0,0.0,0.0,0.0,0.0,0.0,0.0,0.0,0.0,0.0,0.0,0.0,0.0,0.0,0.0,0.0,0.0,0.0,0.0,0.0,0.0,0.0,0.0,0.0,0.0,0.0,0.0,0.0,0.0,0.0,0.0,0.0,0.0,0.0,0.0,0.0,0.0,0.0,0.0,0.0,0.0,0.0,0.0,0.0,0.0,0.0,0.0,0.0,0.0,0.0,0.0,0.0,0.0,0.0,0.0,0.0,0.0,0.0,0.0,0.0,0.0,0.0,0.0,0.0,0.0,0.0,0.0,0.0,0.0,0.0,0.0,0.0,0.0,0.0,0.0,0.0,0.0,0.0,0.0,0.0,0.0,0.0,0.0,0.0,0.0,0.0,0.0,0.0,0.0,0.0,0.0,0.0,0.0,0.0,0.0,0.0,0.0,0.0,0.0,0.0,0.0,0.0,0.0,0.0,0.0,0.0,0.0,0.0,0.0,0.0,0.0,0.0,0.0,0.0,0.0,0.0,0.0,0.0,0.0,0.0,0.0,0.0,0.0,0.0,0.0,0.0,0.0,0.0,0.0,0.0,0.0,0.0,0.0,0.0,0.0,0.0,0.0,0.0,0.0,0.0,0.0,0.0,0.0,0.0,0.0,0.0,0.0,0.0,0.0,0.0,0.0,0.0,0.0,0.0,0.0,0.0,0.0,0.0,0.0,0.0,0.0,0.0,0.0,0.0,0.0,0.0,0.0,0.0,0.0,0.0,0.0,0.0,0.0,0.0,0.0,0.0,0.0,0.0,0.0,0.0,0.0,0.0,0.0,0.0,0.0,0.0,0.0,0.0,0.0,0.0,0.0,0.0,0.0,0.0,0.0,0.0,0.0,0.0,0.0,0.0,0.0,0.0,0.0,0.0,0.0,0.0,0.0,0.0,0.0,0.0,0.0,0.0,0.0,0.0,0.0,0.0,0.0,0.0,0.0,0.0,0.0,0.0,0.0,0.0,0.0,0.0,0.0,0.0,0.0,0.0,0.0,0.0,0.0,0.0,0.0,0.0,0.0,0.0,0.0,0.0,0.0,0.0,0.0,0.0,0.0,0.0,0.0,0.0,0.0,0.0,0.0,0.0,0.0,0.0,0.0,0.0,0.0,0.0,0.0,0.0,0.0,0.0,0.0,0.0,0.0,0.0,0.0,0.0,0.0,0.0,0.0,0.0,0.0,0.0,0.0,0.0,0.0,0.0,0.0,0.0,0.0,0.0,0.0,0.0,0.0,0.0,0.0,0.0,0.0,0.0,0.0,0.0,0.0,0.0,0.0,0.0,0.0,0.0,0.0,0.0,0.0,0.0,0.0,0.0,0.0,0.0,0.0,0.0,0.0,0.0,0.0,0.0,0.0,0.0,0.0,0.0,-0.5139,-0.4794,0.0,0.0,0.0,0.0,0.0,0.0,0.0,0.0,0.0,0.0,0.0,0.0,0.0,0.0,0.0,0.0,0.0,0.0,0.0,0.0,0.0,0.0,0.0,-0.777,-0.8297,-0.804,-0.7947,-0.7899,-0.7899,0.0,0.0,0.0,0.0,0.0,-0.7753,-0.7739,-0.7734,-0.7695,-0.7544,-0.7553,-0.7722,-0.7837,-0.7652,-0.7266,0.0,0.0,0.0,0.0,0.0,0.0,0.0,0.0,0.0,0.0,0.0,0.0,0.0,0.0,0.0,0.0,0.0,0.0,0.0,0.0,0.0,0.0,0.0,0.0,0.0,0.0,0.0,0.0,0.0,0.0,0.0,0.0,0.0,0.0,0.0,0.0,0.0,0.0,0.0,0.0,0.0,0.0,0.0,0.0,0.0,0.0,0.0,0.0,0.0,0.0,0.0,0.0,0.0,0.0,0.0,0.0,0.0,0.0,0.0,0.0,0.0,0.0,0.0,0.0,0.0,0.0,0.0,0.0,0.0,0.0,-0.6852,-0.635,0.0,0.0,0.0,0.0,0.0,0.0,0.0,0.0,0.0,0.0,0.0,0.0,0.0,0.0,0.0,0.0,0.0,0.0,0.0,0.0,0.0,-0.6959,-0.7256,-0.7927,-0.8232,-0.7913,-0.7899,-0.7899,-0.7899,-0.7899,0.0,0.0,0.0,-0.7797,-0.7605,-0.7753,-0.7829,-0.7798,-0.8166,-0.8392,-0.8502,-0.8762,-0.8364,-0.7449,-0.72,0.0,0.0,0.0,0.0,0.0,0.0,0.0,0.0,0.0,0.0,0.0,0.0,0.0,0.0,0.0,0.0,0.0,0.0,0.0,0.0,0.0,0.0,0.0,0.0,0.0,0.0,0.0,0.0,0.0,0.0,0.0,0.0,0.0,0.0,0.0,0.0,0.0,0.0,0.0,0.0,0.0,0.0,0.0,0.0,0.0,0.0,0.0,0.0,0.0,0.0,0.0,0.0,0.0,0.0,0.0,0.0,0.0,0.0,0.0,0.0,0.0,0.0,0.0,-0.9658,-0.9855,-1.0369,-0.9742,-0.9847,-1.0427,-0.894,-0.829,-0.8166,-0.7279,0.0,0.0,0.0,0.0,0.0,0.0,0.0,0.0,0.0,0.0,0.0,0.0,0.0,0.0,0.0,0.0,0.0,0.0,0.0,-0.7372,-0.7303,-0.7808,-0.8084,-0.7912,-0.7899,-0.7899,-0.7899,-0.7899,0.0,0.0,-0.7899,-0.7797,-0.7605,-0.7635,-0.7687,-0.7798,-0.8759,-0.924,-0.9263,-0.9756,-0.9912,-0.9741,-0.926,-0.9021,-0.8987,0.0,0.0,0.0,0.0,0.0,0.0,0.0,0.0,0.0,0.0,0.0,0.0,0.0,0.0,0.0,0.0,0.0,0.0,0.0,0.0,0.0,0.0,0.0,0.0,0.0,0.0,0.0,0.0,0.0,0.0,0.0,0.0,0.0,0.0,0.0,0.0,0.0,0.0,0.0,0.0,0.0,-0.803,-0.8085,0.0,0.0,0.0,0.0,0.0,0.0,0.0,0.0,0.0,0.0,0.0,0.0,0.0,-0.9531,-1.0029,-1.0812,-1.1047,-1.0752,-1.1421,-1.143,-1.077,-1.1113,-1.1261,-1.1278,-1.1509,0.0,-0.9055,-0.8194,0.0,0.0,0.0,0.0,0.0,0.0,0.0,0.0,0.0,0.0,0.0,0.0,0.0,0.0,0.0,0.0,0.0,0.0,0.0,0.0,0.0,-0.8493,-0.8767,-0.8491,-0.8903,-0.8984,-0.8497,-0.847,-0.8242,-0.7753,-0.7841,-0.7739,-0.7379,-0.7826,-0.8401,-0.9139,-1.0161,-1.0646,-1.0646,-1.0873,-1.0975,-1.099,-1.0897,-1.0259,-0.9203,-0.8857,0.0,0.0,0.0,0.0,0.0,0.0,0.0,0.0,0.0,0.0,0.0,0.0,0.0,0.0,0.0,0.0,0.0,0.0,0.0,0.0,0.0,0.0,0.0,0.0,0.0,0.0,0.0,0.0,0.0,0.0,0.0,0.0,0.0,0.0,0.0,0.0,0.0,0.0,0.0,-0.765,-0.8467,-0.8314,-0.8838,-0.8712,0.0,0.0,0.0,0.0,0.0,0.0,0.0,0.0,0.0,-1.0059,-1.0254,-1.0684,-1.1367,-1.2071,-1.2292,-1.2021,-1.2755,-1.2696,-1.2015,-1.2212,-1.2308,-1.2234,-1.2072,-1.1282,-1.0106,-0.9399,-0.8542,-0.7573,0.0,0.0,0.0,0.0,-0.464,-0.4069,0.0,0.0,0.0,0.0,0.0,0.0,0.0,0.0,0.0,0.0,0.0,0.0,-0.8589,-0.9079,-0.93,-0.9154,-0.9744,-0.9856,-0.9195,-0.8989,-0.8576,-0.7865,-0.7872,-0.7723,-0.7359,-0.8296,-0.933,-1.0444,-1.1353,-1.1801,-1.1801,-1.1939,-1.2015,-1.2002,-1.2211,-1.143,-0.9931,-0.9661,-0.9095,0.0,0.0,0.0,0.0,0.0,0.0,0.0,0.0,0.0,0.0,0.0,0.0,0.0,0.0,0.0,0.0,0.0,0.0,0.0,0.0,0.0,0.0,0.0,0.0,0.0,0.0,0.0,0.0,0.0,0.0,0.0,0.0,0.0,0.0,0.0,0.0,0.0,0.0,-0.8537,-0.9317,-0.8966,-1.0006,-1.0069,0.0,0.0,0.0,0.0,0.0,0.0,-0.9722,-1.0216,-1.0736,-1.123,-1.1357,-1.1807,-1.2606,-1.2909,-1.3083,-1.3152,-1.342,-1.3324,-1.2881,-1.2881,-1.2774,-1.2608,-1.203,-1.1316,-1.0519,-1.0049,-0.9236,-0.8263,-0.7507,-0.6943,-0.6434,-0.5851,-0.5208,-0.4579,0.0,0.0,0.0,0.0,0.0,0.0,0.0,0.0,0.0,0.0,0.0,-0.8606,-0.929,-0.9097,-0.9185,-0.9791,-0.9898,-0.9896,-0.9856,-0.9263,-0.8764,-0.8467,-0.8093,-0.7862,-0.7767,-0.9126,-1.0238,-1.1054,-1.1936,-1.2366,-1.2379,-1.2872,-1.3123,-1.3123,-1.3144,-1.2806,-1.2172,-1.1202,-1.0886,-1.0847,0.0,0.0,0.0,0.0,0.0,0.0,0.0,0.0,0.0,0.0,0.0,0.0,0.0,0.0,0.0,0.0,0.0,0.0,0.0,0.0,0.0,0.0,0.0,0.0,0.0,0.0,0.0,0.0,0.0,0.0,0.0,0.0,0.0,0.0,0.0,0.0,0.0,0.0,0.0,-1.0643,-1.2033,0.0,0.0,0.0,0.0,-1.1524,-1.1649,-1.1725,-1.1736,-1.2499,-1.2658,-1.2158,-1.2568,-1.312,-1.369,-1.316,-1.317,-1.3732,-1.319,-1.2929,-1.2881,-1.2881,-1.251,-1.1864,-1.1814,-1.1065,-0.9835,-0.9547,-0.9011,-0.8346,-0.8003,-0.7835,-0.7646,-0.6438,-0.5955,-0.5702,0.0,0.0,0.0,0.0,0.0,-0.6012,-0.6978,-0.7555,-0.8047,-0.8461,-0.8809,-0.9124,-0.9372,-0.9985,-1.042,-1.0466,-1.1041,-1.1108,-1.0514,-0.9902,-0.9351,-0.8903,-0.8459,-0.8572,-0.9335,-1.0534,-1.1423,-1.1936,-1.2986,-1.3493,-1.3518,-1.4023,-1.4287,-1.4287,-1.4287,-1.4174,-1.3921,-1.2468,-1.1671,-1.1216,-0.9854,-0.883,0.0,0.0,0.0,0.0,0.0,0.0,0.0,0.0,0.0,0.0,0.0,0.0,0.0,0.0,0.0,0.0,0.0,0.0,0.0,0.0,0.0,0.0,0.0,0.0,0.0,0.0,0.0,0.0,0.0,0.0,0.0,0.0,0.0,0.0,0.0,0.0,0.0,-1.2284,-1.3182,0.0,-1.2111,-1.2259,-1.2456,-1.2444,-1.2974,-1.3117,-1.2679,-1.3226,-1.3434,-1.3222,-1.3375,-1.36,-1.3815,-1.3967,-1.3789,-1.3238,-1.342,-1.3286,-1.2881,-1.2403,-1.203,-1.1765,-1.0864,-1.0269,-0.9755,-0.924,-0.8851,-0.8644,-0.8537,-0.8178,-0.7659,-0.6717,-0.6087,-0.5558,0.0,0.0,0.0,0.0,-0.5877,-0.6456,-0.7674,-0.8067,-0.8396,-0.884,-0.919,-0.9484,-0.9714,-1.0609,-1.119,-1.114,-1.179,-1.1909,-1.1167,-1.0537,-1.0019,-0.9594,-0.9264,-0.9603,-1.0742,-1.1625,-1.2374,-1.2956,-1.3732,-1.4186,-1.4374,-1.4739,-1.4916,-1.4916,-1.4916,-1.498,-1.5019,-1.3967,-1.3,-1.2087,-1.1146,-1.0236,-0.9397,0.0,0.0,0.0,0.0,0.0,0.0,0.0,0.0,0.0,0.0,0.0,0.0,0.0,0.0,0.0,0.0,0.0,0.0,0.0,0.0,0.0,0.0,0.0,0.0,0.0,0.0,0.0,0.0,0.0,0.0,0.0,0.0,0.0,0.0,0.0,-1.3308,-1.3483,-1.4325,-1.4512,-1.3533,-1.3843,-1.4054,-1.4054,-1.4402,-1.4425,-1.3972,-1.4235,-1.4318,-1.4097,-1.3909,-1.3909,-1.4097,-1.4107,-1.3863,-1.341,-1.3332,-1.3165,-1.2887,-1.2392,-1.2066,-1.18,-1.1185,-1.0621,-1.0143,-0.9674,-0.9363,-0.9085,-0.8884,-0.848,-0.7937,-0.6966,-0.6312,-0.5764,0.0,0.0,0.0,-0.5512,-0.625,-0.6992,-0.772,-0.8443,-0.8891,-0.8891,-0.9207,-0.9683,-1.0326,-1.0901,-1.138,-1.176,-1.2048,-1.2078,-1.1805,-1.1156,-1.0718,-1.0515,-1.05,-1.0952,-1.1958,-1.226,-1.2994,-1.411,-1.4123,-1.4412,-1.4941,-1.4953,-1.4966,-1.4966,-1.4966,-1.5184,-1.5537,-1.5673,-1.499,-1.3722,-1.2817,-1.2266,-1.1776,0.0,0.0,0.0,0.0,0.0,0.0,0.0,0.0,0.0,0.0,0.0,0.0,0.0,0.0,0.0,0.0,0.0,0.0,0.0,0.0,0.0,0.0,0.0,0.0,0.0,0.0,0.0,0.0,0.0,0.0,0.0,0.0,0.0,-1.2492,-1.3873,-1.4739,-1.4223,-1.5542,-1.6095,-1.5067,-1.5356,-1.5864,-1.6479,-1.5952,-1.5632,-1.5588,-1.5588,-1.5332,-1.472,-1.4118,-1.4129,-1.4708,-1.3566,-1.3451,-1.4372,-1.3016,-1.2565,-1.2922,-1.2922,-1.2575,-1.2006,-1.2685,-1.2244,-1.0899,-1.0842,-1.0408,-0.9626,-0.9058,-0.8831,-0.8612,-0.7149,-0.6603,-0.6327,0.0,0.0,-0.5535,-0.6261,-0.7002,-0.7744,-0.8485,-0.8768,-0.8874,-0.8768,-0.956,-1.0137,-1.0192,-1.1053,-1.1689,-1.1799,-1.1854,-1.1893,-1.1805,-1.1156,-1.0869,-1.1067,-1.1857,-1.2615,-1.3348,-1.3548,-1.3984,-1.4689,-1.5079,-1.5356,-1.548,-1.5881,-1.607,-1.607,-1.607,-1.6099,-1.6265,-1.6676,-1.6415,-1.5634,-1.4506,-1.3763,-1.3109,0.0,0.0,0.0,0.0,0.0,0.0,0.0,0.0,0.0,0.0,0.0,0.0,0.0,0.0,0.0,0.0,0.0,0.0,0.0,0.0,0.0,0.0,0.0,0.0,0.0,0.0,0.0,0.0,0.0,0.0,0.0,0.0,-1.4199,-1.4199,-1.4927,-1.5567,-1.5806,-1.6233,-1.6396,-1.6095,-1.6193,-1.6337,-1.6479,-1.6337,-1.6051,-1.5632,-1.5186,-1.4993,-1.5118,-1.4553,-1.4479,-1.4999,-1.4655,-1.4409,-1.4208,-1.3787,-1.3641,-1.3746,-1.3259,-1.2913,-1.274,-1.1847,-1.1295,-1.0842,-1.0293,-0.9904,-0.9666,-0.9506,-0.9086,-0.8384,-0.7459,-0.6329,-0.5178,0.0,-0.5085,-0.583,-0.6577,-0.7306,-0.8058,-0.8782,-0.8891,-0.8857,-0.8731,-0.9681,-1.0324,-1.0116,-1.1227,-1.1803,-1.1409,-1.1739,-1.1683,-1.1042,-1.1147,-1.1388,-1.1798,-1.2905,-1.3682,-1.3986,-1.4281,-1.4702,-1.5255,-1.5758,-1.6038,-1.6045,-1.6557,-1.671,-1.6522,-1.6522,-1.6522,-1.6552,-1.7312,-1.7317,-1.6811,-1.6507,-1.5909,-1.4989,-1.319,-1.2411,-1.2129,-1.0623,-1.0136,-1.0183,-0.9827,0.0,0.0,0.0,0.0,0.0,0.0,0.0,0.0,0.0,0.0,0.0,0.0,0.0,0.0,0.0,0.0,0.0,0.0,0.0,0.0,0.0,0.0,0.0,0.0,-1.411,-1.5291,-1.553,-1.5831,-1.6158,-1.6471,-1.6522,-1.6522,-1.6522,-1.6522,-1.6622,-1.6861,-1.6886,-1.6695,-1.623,-1.5881,-1.5677,-1.557,-1.4996,-1.484,-1.5081,-1.4819,-1.4593,-1.4404,-1.4067,-1.3987,-1.4101,-1.3414,-1.3063,-1.3015,-1.2141,-1.1616,-1.1196,-1.0373,-0.9846,-0.9532,0.0,0.0,0.0,0.0,-0.5922,-0.4772,0.0,-0.5191,-0.5926,-0.6701,-0.742,-0.8122,-0.8801,-0.888,-0.8821,-0.8696,-0.9592,-1.0176,-0.9988,-1.1144,-1.1627,-1.0879,-1.1561,-1.1535,-1.0313,-1.1356,-1.2225,-1.2678,-1.3782,-1.4393,-1.4343,-1.4752,-1.5308,-1.5972,-1.6402,-1.6582,-1.6595,-1.7076,-1.6993,-1.6522,-1.6552,-1.6595,-1.668,-1.7666,-1.7867,-1.7531,-1.8397,-1.8131,-1.6992,-1.5004,-1.4547,-1.4662,-1.2481,-1.1473,-1.114,-1.0952,0.0,0.0,0.0,0.0,0.0,0.0,0.0,0.0,0.0,0.0,0.0,0.0,0.0,0.0,0.0,0.0,0.0,0.0,0.0,0.0,0.0,0.0,0.0,0.0,-1.5104,-1.5957,-1.6446,-1.6522,-1.6522,-1.6522,-1.6522,-1.6522,-1.6522,-1.6572,-1.6823,-1.735,-1.7438,-1.7433,-1.7242,-1.7059,0.0,0.0,0.0,-1.508,-1.5132,-1.4546,-1.4473,-1.4853,-1.4042,-1.3879,-1.4145,-1.3373,-1.3009,-1.3009,-1.2887,-1.2381,-1.1578,-1.0746,-0.9812,-0.8965,-0.8442,-0.8201,-0.8017,-0.6444,-0.5483,-0.4942,0.0,-0.5849,-0.6521,-0.7426,-0.8105,-0.8605,-0.8874,-0.8808,-0.8671,-0.8491,-0.8982,-0.9297,-0.915,-0.9857,-1.0473,-1.0773,-1.0967,-1.1407,-1.2186,-1.2972,-1.3546,-1.3785,-1.4634,-1.5339,-1.5869,-1.566,-1.6228,-1.765,-1.7303,-1.7165,-1.7146,-1.7229,-1.6993,-1.6522,-1.6951,-1.7146,-1.7188,-1.7827,-1.8302,-1.8598,-1.8801,-1.8404,-1.7612,-1.6333,-1.6193,-1.636,-1.4192,-1.3657,-1.3861,-1.2856,-1.191,-1.1127,-1.1127,0.0,0.0,0.0,0.0,0.0,0.0,0.0,0.0,0.0,0.0,0.0,0.0,0.0,0.0,0.0,0.0,0.0,0.0,0.0,0.0,-1.4714,-1.5643,-1.6396,-1.6509,-1.6522,-1.6522,-1.6522,-1.6522,-1.6522,-1.6522,-1.6936,-1.7262,-1.7375,-1.779,-1.8044,-1.7989,-1.6985,-1.6458,-1.6632,-1.5504,-1.4992,-1.5328,-1.5223,-1.5205,-1.5283,-1.4458,0.0,-1.4145,-1.3373,-1.3009,-1.2948,-1.2328,-1.1564,-1.0676,-0.9888,-0.8603,-0.7167,-0.709,-0.7058,-0.6912,-0.5694,-0.5213,-0.5011,-0.6326,-0.6721,-0.7069,-0.7472,-0.818,-0.8712,-0.8784,-0.8742,-0.8636,-0.8427,-0.8813,-0.9049,-0.8918,-0.9498,-0.9893,-0.9844,-0.9691,-1.0283,-1.1884,-1.2673,-1.3176,-1.3475,-1.4908,-1.5676,-1.5583,-1.5911,-1.6472,-1.7312,-1.7312,-1.7146,-1.6909,-1.7146,-1.6993,-1.6522,-1.7076,-1.7312,-1.7353,-1.8185,-1.8496,-1.8535,-1.908,-1.8943,-1.8309,-1.7498,-1.7376,-1.7392,-1.5618,-1.5084,-1.5026,-1.4304,-1.327,-1.2351,-1.2575,-1.1714,-1.0548,0.0,0.0,0.0,0.0,0.0,0.0,0.0,0.0,0.0,0.0,0.0,0.0,0.0,0.0,-1.3342,0.0,0.0,-1.5379,-1.5655,-1.6158,-1.6522,-1.6522,-1.671,-1.6795,-1.6522,-1.6522,-1.6635,-1.6923,-1.7212,-1.7614,-1.8166,-1.8455,-1.8425,-1.7891,-1.7271,-1.6644,-1.6116,-1.5429,-1.5205,-1.541,-1.4991,-1.4805,-1.4815,-1.3965,-1.3606,-1.3545,-1.2757,-1.2128,-1.168,-1.0892,-1.0066,-0.9163,-0.8501,-0.7335,-0.6017,-0.6017,-0.6079,-0.6001,-0.5473,-0.5254,-0.5247,-0.6971,-0.7418,-0.7598,-0.7528,-0.8141,-0.8643,-0.8638,-0.8636,-0.8573,-0.8361,-0.8651,-0.8817,-0.8726,-0.92,-0.9338,-0.8936,-0.8879,-0.9595,-1.1272,-1.2076,-1.2647,-1.3066,-1.4956,-1.5694,-1.5057,-1.5986,-1.6595,-1.6795,-1.7146,-1.7105,-1.6837,-1.7229,-1.7229,-1.6837,-1.7394,-1.7626,-1.7666,-1.8535,-1.8688,-1.8496,-1.9244,-1.9369,-1.8999,-1.86,-1.8396,-1.8235,-1.6771,-1.5976,-1.5567,-1.5213,-1.4209,-1.3199,-1.3698,-1.3238,-1.2327,-1.1453,-1.1264,0.0,0.0,0.0,0.0,0.0,0.0,0.0,0.0,0.0,-1.2404,-1.3069,-1.391,-1.474,-1.5259,-1.5703,-1.6189,-1.6718,-1.6795,-1.6752,-1.668,-1.7034,-1.7118,-1.6552,-1.6595,-1.6908,-1.7492,-1.7566,-1.7953,-1.8908,-1.8971,-1.8673,-1.8047,-1.7743,-1.7079,-1.5853,-1.5565,-1.5332,-1.5177,-1.4392,-1.3974,-1.3965,-1.3122,-1.2696,-1.2504,-1.1703,-1.0815,-0.9983,-0.9198,-0.8501,-0.7782,-0.703,-0.6039,-0.49,-0.49,-0.5103,-0.5369,-0.5376,-0.5173,-0.4903,0.0,-0.7448,-0.8096,-0.8248,-0.8367,-0.8422,-0.8438,-0.8438,-0.8361,-0.816,-0.8086,-0.8033,-0.8004,-0.8079,-0.8334,-0.886,-0.9901,-1.0969,-1.2027,-1.271,-1.3305,-1.3756,-1.4937,-1.5583,-1.562,-1.6179,-1.6951,-1.7907,-1.7504,-1.7504,-1.7907,-1.7987,-1.7987,-1.7947,-1.8496,-1.8727,-1.8727,-1.8855,-1.9132,-1.9479,-1.9132,-1.9244,-1.9588,-1.9528,-1.9534,-1.9284,-1.747,-1.6479,-1.5952,-1.532,-1.4375,-1.3566,-1.4194,-1.4021,-1.3509,-1.3399,0.0,-1.1242,-1.2213,-1.2334,-1.243,-1.3314,-1.2859,-1.2868,0.0,0.0,-1.484,-1.5844,-1.6158,-1.6414,-1.695,-1.7098,-1.7315,-1.7854,-1.7907,-1.7747,-1.7271,-1.7271,-1.7118,-1.6552,-1.6909,-1.7466,-1.8026,-1.8124,-1.8367,-1.8982,-1.8809,-1.8984,-1.9527,-1.8328,-1.7523,-1.7357,-1.6012,-1.4983,-1.4332,-1.3545,-1.313,-1.313,-1.2328,-1.1509,-1.0739,-0.9952,-0.9128,-0.8215,-0.7611,-0.7302,-0.7104,-0.6055,-0.457,-0.3013,-0.3013,-0.3959,-0.5389,-0.5382,-0.4361,-0.3215,0.0,-0.7532,-0.784,-0.7911,-0.8094,-0.8191,-0.8065,-0.8149,-0.8149,-0.7952,-0.7912,-0.7899,-0.7899,-0.7899,-0.796,-0.8137,-0.9097,-1.0151,-1.12,-1.2114,-1.2893,-1.3475,-1.4761,-1.541,-1.5234,-1.6068,-1.671,-1.7146,-1.6951,-1.6951,-1.7146,-1.7146,-1.7146,-1.7188,-1.8066,-1.8263,-1.8027,-1.865,-1.8855,-1.8779,-1.8855,-1.9043,-1.9251,-1.915,-1.9106,-1.8952,-1.7811,-1.6757,0.0,0.0,-1.4761,-1.4011,-1.4963,-1.4659,-1.3955,-1.4041,-1.3742,0.0,-1.5404,-1.5227,-1.4817,0.0,-1.5902,-1.5741,-1.6375,-1.6138,-1.6061,-1.6824,-1.6951,-1.7105,-1.7666,-1.7787,-1.7827,0.0,-1.7827,-1.7544,-1.7353,-1.7312,-1.7229,-1.6993,-1.7146,-1.7424,-1.7701,-1.8004,-1.843,-1.8933,-1.9191,-1.9097,-1.8555,-1.7961,-1.7191,-1.6358,-1.5718,-1.4749,-1.3468,-1.2631,-1.1774,-1.0767,-0.9977,-0.9424,-0.9035,-0.8672,-0.8172,-0.7414,-0.6502,-0.5498,-0.4616,-0.5189,-0.4925,-0.4172,-0.3088,-0.1205,0.0401,-0.383,-0.4919,-0.4105,0.0,-0.7453,-0.7485,-0.7485,-0.768,-0.7795,-0.7651,-0.781,-0.7881,-0.7768,-0.7783,-0.7827,-0.7827,-0.7753,-0.765,-0.75,-0.8392,-0.9327,-1.0203,-1.1455,-1.2407,-1.2969,-1.4362,-1.5042,-1.4903,-1.5806,-1.6358,-1.6522,-1.6522,-1.6595,-1.671,-1.671,-1.6795,-1.6993,-1.7747,-1.7867,-1.7585,-1.8341,-1.8535,-1.8341,-1.8727,-1.8867,-1.8812,-1.8743,-1.8373,-1.7834,-1.7356,-1.6458,0.0,0.0,-1.4589,-1.3943,-1.5019,-1.4748,-1.4107,-1.4654,-1.5359,-1.6214,-1.7334,-1.7272,0.0,-1.791,-1.8135,-1.7941,-1.7122,-1.6955,-1.7036,-1.7424,-1.7504,-1.7666,-1.8224,-1.8224,-1.8145,-1.8302,-1.7867,-1.7463,-1.7312,-1.7312,-1.7229,-1.7118,-1.7076,-1.7076,-1.7144,-1.7652,-1.8172,-1.8647,-1.8878,-1.856,-1.7622,-1.7413,-1.68,-1.5748,-1.5061,-1.3996,-1.2575,-1.1305,-1.0071,-0.8879,-0.827,-0.7902,-0.7717,-0.7456,-0.7016,-0.6585,-0.5785,-0.4092,-0.2007,-0.228,-0.2684,-0.3021,-0.1742,0.1205,0.4105,-0.0669,-0.2751,-0.282,0.0,0.0,-0.7211,-0.7211,-0.7211,-0.7227,-0.7211,-0.7381,-0.7546,-0.759,-0.762,-0.762,-0.762,-0.7379,-0.7211,-0.7211,-0.8369,-0.9185,-0.9423,-1.1043,-1.2122,-1.2416,-1.3518,-1.4399,-1.4903,-1.5429,-1.5982,-1.6522,-1.6522,-1.6752,-1.7271,-1.7271,-1.7544,-1.8066,-1.8106,-1.8106,-1.8066,-1.8106,-1.8419,-1.8893,-1.8893,-1.8841,-1.8698,-1.8702,-1.752,-1.5888,-1.5858,0.0,-1.4722,-1.4079,-1.3421,-1.2989,-1.3958,-1.405,0.0,-1.5625,-1.7024,-1.7928,-1.7136,0.0,-1.8927,-1.8635,-1.8693,-1.865,-1.8168,-1.8025,-1.8039,-1.8052,-1.8066,-1.8263,-1.8779,-1.8458,-1.8263,-1.8779,-1.8419,-1.7907,-1.7394,-1.7312,-1.7118,-1.6595,-1.6522,-1.6522,0.0,-1.7074,-1.7548,-1.7921,-1.7271,-1.7075,-1.7544,-1.6922,-1.6482,-1.6492,-1.415,-1.2518,-1.1744,-0.933,-0.8086,-0.8021,-0.8027,-0.7722,-0.7109,-0.5988,-0.5463,-0.5463,-0.5406,-0.3357,0.02,0.3629,0.4036,0.2476,0.2542,0.2611,0.2947,0.4506,0.3961,0.2476,0.0,0.0,0.0,-0.6996,-0.6996,-0.6947,-0.6828,-0.7082,-0.7256,-0.7155,-0.7253,0.0,0.0,0.0,0.0,0.0,-0.7766,-0.8558,-0.9348,-1.0161,-1.1137,-1.2354,-1.3119,-1.376,-1.4349,-1.4903,-1.5241,-1.5429,-1.5722,-1.5994,-1.6232,-1.6504,-1.6781,-1.7034,-1.7435,-1.7394,-1.7076,-1.7787,-1.7787,-1.7354,-1.7702,-1.7614,-1.7223,-1.7055,-1.6293,-1.5272,0.0,0.0,-1.352,-1.3735,-1.3467,-1.3176,-1.3743,0.0,0.0,-1.6718,-1.7642,-1.8298,-1.963,0.0,-2.0164,-2.0494,-2.0429,-2.0047,-1.9266,-1.8849,-1.8727,-1.9022,-1.8864,-1.8864,-1.9671,-1.9471,-1.9207,-1.9406,-1.9344,-1.9069,-1.8436,-1.8424,-1.8126,-1.7167,-1.6666,0.0,0.0,0.0,0.0,-1.7371,-1.7486,-1.6868,-1.529,-1.4994,-1.4101,-1.2482,-1.1615,-1.0574,-0.9168,-0.8361,-0.7358,-0.6288,-0.6296,-0.5557,-0.4148,-0.3754,-0.2947,-0.1804,-0.1806,-0.0468,0.2006,0.4372,0.5055,0.4506,0.4506,0.45,0.4564,0.5176,0.5036,0.4486,0.0,0.0,0.0,0.0,0.0,0.0,0.0,0.0,0.0,0.0,0.0,0.0,0.0,0.0,0.0,0.0,0.0,-0.794,-0.8654,-0.9261,-1.0182,-1.1462,-1.1851,-1.2492,-1.3481,-1.3657,-1.4022,-1.4614,-1.4851,-1.5146,-1.5404,-1.5657,-1.5849,-1.5932,-1.6276,-1.6235,-1.596,-1.6652,-1.6652,-1.6224,-1.6362,-1.6182,-1.5811,-1.556,-1.489,0.0,0.0,0.0,-1.2516,-1.2942,-1.306,-1.3107,-1.347,-1.4614,-1.6071,-1.7342,-1.827,-1.9218,-2.0986,-2.1149,-2.0938,-2.1477,-2.1399,-2.1007,-2.0283,-1.9869,-1.9728,-2.0043,-1.9562,-1.9346,-2.0165,-1.9416,-1.8874,-1.9332,-1.9137,-1.8861,-1.8665,-1.8695,-1.8416,-1.7346,-1.6895,-1.6421,0.0,0.0,0.0,-1.6382,-1.658,-1.579,-1.3703,-1.3314,-1.2506,-1.1051,-1.0216,-0.9476,-0.8829,-0.7632,-0.6125,-0.4428,-0.5119,-0.41,-0.1671,-0.0401,0.0468,0.1002,0.1671,0.2609,0.382,0.5376,0.5984,0.5903,0.6234,0.6358,0.635,0.635,0.6346,0.6276,0.0,0.0,0.0,0.0,0.0,0.0,0.0,0.0,0.0,0.0,0.0,0.0,0.0,0.0,0.0,0.0,0.0,0.0,-0.7393,-0.8411,0.0,-0.983,-0.988,-1.0659,-1.2291,-1.1839,-1.2386,-1.3959,-1.3995,-1.4273,-1.4777,-1.4777,-1.4802,-1.4828,-1.4828,-1.4828,-1.4828,-1.4828,-1.5144,-1.5525,-1.4942,-1.4674,-1.4547,-1.4299,0.0,0.0,0.0,0.0,0.0,-1.1835,0.0,0.0,0.0,0.0,-1.7797,-1.765,-1.8989,-2.0626,-2.113,-2.1271,-2.1316,-2.1582,-2.1628,-2.1491,-2.1118,-2.1007,-2.0943,-2.0975,-2.0114,-1.951,0.0,0.0,-1.7403,-1.8642,-1.7987,-1.7547,-1.8186,-1.8267,-1.7966,0.0,0.0,0.0,0.0,0.0,0.0,-1.4819,0.0,-1.3844,-1.274,-1.1982,-1.1626,-1.1774,-0.9542,-0.8933,-1.0024,-0.6788,-0.4233,-0.2609,-0.4241,-0.3155,0.0267,0.3766,0.4512,0.3011,0.4773,0.5519,0.5641,0.6705,0.7016,0.685,0.7697,0.8027,0.8027,0.8027,0.8027,0.7897,0.0,0.0,0.0,0.0,0.0,0.0,0.0,0.0,0.0,0.0,0.0,0.0,0.0,0.0,0.0,0.0,0.0,0.0,-0.7369,-0.7676,-0.8264,-0.9277,-0.9679,-1.0295,-1.1107,-1.1437,-1.1819,-1.2247,-1.2535,-1.2801,-1.3031,-1.3329,-1.356,-1.3611,-1.3611,-1.3611,-1.3647,-1.4042,-1.4076,-1.383,0.0,-1.3353,-1.2979,0.0,0.0,0.0,0.0,0.0,0.0,0.0,0.0,0.0,0.0,-1.7,-1.8178,0.0,0.0,-2.117,-2.1843,-2.2023,-2.2046,-2.2084,-2.1869,-2.1582,-2.146,-2.0794,-2.027,-2.057,-1.951,-1.8501,0.0,0.0,0.0,-1.8022,-1.8691,0.0,-1.9332,-1.8969,0.0,-1.7761,0.0,-1.5701,-1.4485,-1.3314,0.0,0.0,-1.1823,-1.1138,-0.9844,-0.9558,-0.8742,-0.7157,-0.5266,-0.44,-0.4674,-0.2469,-0.1134,-0.0666,0.02,0.1136,0.2072,0.4372,0.5586,0.6028,0.644,0.6894,0.7386,0.7652,0.7712,0.7697,0.7897,0.8027,0.8027,0.8027,0.8027,0.8091,0.0,0.0,0.0,0.0,0.0,0.0,0.0,0.0,0.0,0.0,0.0,0.0,0.0,0.0,0.0,0.0,0.0,0.0,0.0,-0.7044,-0.7438,-0.8324,-0.8424,-0.8838,-0.9617,-0.9981,-1.0257,-1.051,0.0,0.0,-1.1312,-1.1535,-1.1814,-1.2096,-1.2096,-1.2246,-1.2504,-1.2813,0.0,0.0,0.0,0.0,0.0,0.0,0.0,0.0,0.0,0.0,0.0,0.0,0.0,-1.5561,-1.7417,-1.8383,-1.9099,-2.0495,0.0,-2.1742,-2.196,-2.2135,-2.231,-2.231,-2.1957,-2.1529,-2.1217,-2.0543,-1.9835,-1.9479,-1.8346,0.0,-1.725,-1.7151,0.0,0.0,0.0,0.0,-1.8911,-1.8661,-1.8049,0.0,-1.6062,0.0,-1.3566,-1.1937,-1.087,0.0,-1.0662,-1.0053,-0.8753,-0.7777,-0.5924,-0.3147,-0.2072,-0.1136,-0.0334,0.147,0.3133,0.4572,0.4878,0.5411,0.611,0.6688,0.71,0.7475,0.7475,0.7657,0.8027,0.842,0.8796,0.9163,0.9545,0.9863,1.0166,1.0166,1.0166,1.0236,0.0,0.0,0.0,0.0,0.0,0.0,0.0,0.0,0.0,0.0,0.0,0.0,0.0,0.0,0.0,0.0,0.0,0.0,0.0,0.0,0.0,-0.723,-0.687,-0.7144,-0.8173,-0.8261,-0.8524,-0.9,0.0,0.0,0.0,0.0,0.0,0.0,0.0,0.0,0.0,0.0,0.0,0.0,0.0,0.0,0.0,0.0,0.0,0.0,0.0,0.0,0.0,0.0,-1.5067,-1.6307,-1.8259,-1.9413,-2.0109,-2.0378,-2.1205,-2.1957,-2.1628,-2.1764,-2.2032,-2.2106,-2.184,-2.1341,-2.0677,-2.0059,-1.9308,-1.8114,0.0,-1.5987,-1.5946,-1.5401,-1.5324,-1.6408,0.0,-1.7175,-1.7822,-1.7675,-1.6961,-1.5474,-1.5187,-1.4573,-1.3033,-1.0732,-0.9558,-1.0059,-0.9496,-0.8678,-0.7618,-0.565,-0.2996,0.0601,0.1133,0.2064,0.3471,0.5229,0.7452,1.0206,0.875,0.8788,1.011,0.9262,0.8646,0.8339,0.8339,0.8468,0.872,0.9384,1.0135,1.0927,1.1633,1.2389,1.3009,1.3009,1.2948,1.2757,0.0,0.0,0.0,0.0,0.0,0.0,0.0,0.0,0.0,0.0,-0.6193,0.0,0.0,0.0,0.0,0.0,0.0,0.0,0.0,0.0,0.0,-0.6403,-0.6801,-0.7188,-0.7543,-0.8039,-0.8349,0.0,0.0,0.0,0.0,0.0,0.0,0.0,0.0,0.0,0.0,0.0,0.0,0.0,0.0,0.0,0.0,0.0,0.0,0.0,0.0,0.0,0.0,0.0,-1.5535,-1.7086,-1.826,-1.9405,-2.0262,-2.025,-2.0395,-2.0636,-2.1007,-2.083,-2.0669,-2.1102,-2.115,-2.0941,-2.0263,-1.8949,0.0,0.0,-1.5387,-1.3829,-1.3485,-1.415,-1.4791,-1.4906,-1.5467,-1.6351,-1.7725,-1.6573,-1.552,0.0,-1.4758,-1.383,-1.2445,-1.1066,0.0,0.0,-0.4323,-0.1725,-0.1527,-0.1132,0.0733,0.4367,0.7161,0.8273,0.7697,0.8981,0.956,0.9418,0.8425,0.8177,0.8425,0.8907,0.9464,1.0046,1.0046,1.0864,1.2058,1.1578,1.1826,1.2565,1.2757,1.2887,1.3009,1.3009,1.2573,1.202,0.0,0.0,0.0,0.0,0.0,0.0,0.0,0.0,0.0,-0.5408,-0.5755,-0.6004,0.0,0.0,0.0,0.0,0.0,0.0,0.0,0.0,0.0,0.0,0.0,-0.6528,-0.6623,0.0,0.0,0.0,0.0,0.0,0.0,0.0,0.0,0.0,0.0,0.0,0.0,0.0,0.0,0.0,0.0,0.0,0.0,0.0,0.0,0.0,0.0,0.0,0.0,0.0,-1.4332,-1.5857,-1.8033,-1.9072,-1.9504,-1.9459,-1.9607,-1.9867,-2.02,-2.0252,-2.0273,-2.052,-2.0436,-1.9878,-1.8315,0.0,0.0,0.0,-1.3231,-1.2153,-1.1593,-1.2169,0.0,-1.2968,-1.313,-1.3724,-1.5043,-1.4063,0.0,-1.258,-1.2918,-1.2445,0.0,-0.884,-0.7046,-0.5338,-0.1998,0.0,0.0,0.2849,0.5886,0.8776,0.9874,0.9913,0.8971,0.9506,1.0059,1.0497,0.9711,0.9971,1.121,1.121,1.141,1.1804,1.1804,1.2251,1.2948,1.2573,1.2879,1.3606,1.3606,1.3906,1.4273,1.4273,1.4016,1.3528,0.0,0.0,0.0,0.0,0.0,0.0,0.0,-0.4317,-0.4538,-0.4875,-0.5253,-0.5694,-0.6199,-0.612,-0.5967,0.0,0.0,0.0,0.0,0.0,0.0,0.0,0.0,0.0,0.0,0.0,0.0,0.0,0.0,0.0,0.0,0.0,0.0,0.0,0.0,0.0,0.0,0.0,0.0,0.0,0.0,0.0,0.0,0.0,0.0,0.0,0.0,0.0,0.0,0.0,-1.2598,-1.3828,-1.6509,-1.7876,-1.8455,-1.8342,-1.8611,-1.9016,-1.9214,-1.9417,-1.9622,-1.9708,-1.9403,-1.852,-1.6326,-1.5338,0.0,0.0,-1.1189,-1.0625,-1.0173,0.0,-1.0544,0.0,-1.0791,-1.1003,-1.2368,-1.1868,-1.117,0.0,-1.0643,0.0,-0.7652,-0.572,0.0,-0.0593,0.145,0.2381,0.1858,0.6456,0.9901,1.1667,1.1224,1.0657,0.9982,1.0177,1.0933,1.2249,1.141,1.2158,1.4186,1.3708,1.3468,1.3468,1.3468,1.3476,1.3485,1.3312,1.3726,1.4451,1.4451,1.4815,1.541,1.541,1.5294,1.4932,0.0,0.0,0.0,0.0,0.0,0.0,0.0,-0.4397,-0.4891,-0.5291,-0.5076,-0.5049,-0.5464,-0.6072,-0.6204,0.0,0.0,0.0,0.0,0.0,0.0,0.0,0.0,0.0,0.0,0.0,0.0,0.0,0.0,0.0,0.0,0.0,0.0,0.0,0.0,0.0,0.0,0.0,0.0,0.0,0.0,0.0,0.0,0.0,0.0,0.0,0.0,0.0,0.0,0.0,0.0,-1.1451,-1.2401,-1.4883,-1.7338,-1.6858,0.0,0.0,-1.8078,-1.7933,-1.7679,-1.8157,-1.7839,-1.6996,-1.537,0.0,0.0,-1.1171,-0.9894,-0.9097,-0.9351,-0.8965,-0.8837,-0.9497,0.0,-0.9363,-1.1563,-1.1353,-1.1411,-1.257,0.0,0.0,-0.3306,-0.2512,0.0394,0.6331,0.9354,1.0091,0.8016,0.9376,1.0358,1.0552,1.1959,1.2627,1.2567,1.3365,1.3828,1.3957,1.3174,1.327,1.4114,1.477,1.5071,1.5071,1.5071,1.5109,1.5108,1.4392,1.4569,1.5294,1.5294,1.5352,1.541,1.541,1.4932,1.4273,0.0,0.0,0.0,0.0,0.0,0.0,0.0,-0.3629,-0.3969,-0.4478,-0.4625,-0.4704,-0.479,-0.5266,-0.5364,0.0,0.0,0.0,0.0,0.0,0.0,0.0,0.0,0.0,0.0,0.0,0.0,0.0,0.0,0.0,0.0,0.0,0.0,0.0,0.0,0.0,0.0,0.0,0.0,0.0,0.0,0.0,0.0,0.0,0.0,0.0,0.0,0.0,0.0,0.0,0.0,0.0,-1.0487,-1.2025,0.0,0.0,-1.553,-1.6157,-1.7329,-1.7203,-1.6815,-1.7011,-1.6424,-1.5268,-1.3448,0.0,-1.1146,-0.9258,-0.8269,-0.7597,-0.7195,-0.7035,-0.7166,-0.7805,-0.7212,-0.7273,-0.8919,-0.7024,-0.5516,-0.578,-0.4482,0.0,0.0,0.0,0.7159,1.0933,1.2464,1.2849,1.1943,1.1882,1.2385,1.3391,1.4082,1.415,1.3673,1.4446,1.4866,1.4866,1.5013,1.5197,1.5563,1.6363,1.6203,1.5361,1.5823,1.5786,1.5352,1.505,1.5108,1.5468,1.5864,1.6036,1.6151,1.6585,1.6507,1.6089,0.0,0.0,0.0,0.0,0.0,0.0,-0.2961,-0.3045,-0.3243,-0.3674,-0.4049,-0.4207,-0.4042,-0.435,-0.4397,-0.398,0.0,0.0,0.0,0.0,0.0,0.0,0.0,0.0,0.0,0.0,0.0,0.0,0.0,0.0,0.0,0.0,0.0,0.0,0.0,0.0,0.0,0.0,0.0,0.0,0.0,0.0,0.0,0.0,0.0,0.0,0.0,0.0,0.0,0.0,0.0,0.0,0.0,0.0,0.0,0.0,-1.4026,-1.4791,-1.6015,-1.615,-1.5804,-1.5369,-1.4522,-1.3253,0.0,-1.0183,-0.9298,-0.7481,-0.6907,-0.6482,-0.5694,-0.5665,-0.5805,-0.5974,-0.4797,-0.4134,-0.4988,-0.2871,-0.065,0.0,0.0,0.2126,0.0,0.9439,1.1751,1.3224,1.4182,1.4753,1.4753,1.4471,1.4751,1.569,1.5748,1.5565,1.5177,1.5726,1.5887,1.5668,1.6398,1.6757,1.6877,1.7578,1.7346,1.6404,1.6912,1.6743,1.6026,1.6026,1.6026,1.6073,1.6641,1.681,1.6866,1.7146,1.7246,1.7069,0.0,0.0,0.0,0.0,0.0,0.0,0.0,-0.2933,-0.3104,-0.3104,-0.3351,-0.3423,-0.3152,-0.336,-0.34,-0.3132,0.0,0.0,0.0,0.0,0.0,0.0,0.0,0.0,0.0,0.0,0.0,0.0,0.0,0.0,0.0,0.0,0.0,0.0,0.0,0.0,0.0,0.0,0.0,0.0,0.0,0.0,0.0,0.0,0.0,0.0,0.0,0.0,0.0,0.0,0.0,0.0,0.0,0.0,0.0,0.0,-1.2635,-1.3519,-1.3987,-1.4429,-1.4378,-1.2997,-1.2071,-1.0894,-0.8414,-0.7255,-0.661,-0.6121,-0.6028,-0.585,-0.5307,-0.5196,-0.4925,-0.4058,-0.1595,0.0258,0.0327,0.0104,0.0,0.0,0.0,0.8479,1.0873,1.2221,1.2877,1.2877,1.5129,0.0,1.6482,1.7135,1.7191,1.6482,1.6492,1.681,1.7578,1.7578,1.7191,1.6492,1.7246,1.7578,1.7633,1.8328,1.8661,1.8661,1.8661,1.8286,1.7578,1.7578,1.7578,1.7578,1.7578,1.7578,1.7523,1.6765,1.6482,1.6368,0.0,0.0,0.0,0.0,0.0,0.0,0.0,-0.2422,-0.2575,-0.2805,-0.2895,-0.2917,-0.2827,-0.2897,-0.2918,-0.2832,0.0,0.0,0.0,0.0,0.0,0.0,0.0,0.0,0.0,0.0,0.0,0.0,0.0,0.0,0.0,0.0,0.0,0.0,0.0,0.0,0.0,0.0,0.0,0.0,0.0,0.0,0.0,0.0,0.0,0.0,0.0,0.0,0.0,0.0,0.0,0.0,0.0,0.0,0.0,0.0,0.0,0.0,-1.1383,-1.1418,-1.1108,-1.0176,-0.9742,-0.922,-0.8076,-0.7162,-0.5999,-0.4086,-0.3347,-0.2758,-0.183,-0.165,-0.1455,-0.0895,0.1379,0.0,0.0,0.0,0.0,0.7435,0.9269,1.0952,0.0,0.0,1.5591,1.6084,1.7302,1.8015,1.8015,1.8232,1.8004,1.7257,1.7686,1.8032,1.83,1.8802,1.8931,1.8708,1.8967,1.9073,1.9036,1.9799,1.98,1.9238,1.9325,1.896,1.8247,1.7763,1.7578,1.7578,1.7578,1.7907,1.8286,1.7523,1.7578,1.7841,0.0,0.0,0.0,0.0,0.0,0.0,0.0,-0.2044,-0.2128,-0.2328,-0.2459,-0.2481,-0.2372,-0.2567,-0.2654,-0.2524,0.0,0.0,0.0,0.0,0.0,0.0,0.0,0.0,0.0,0.0,0.0,0.0,0.0,0.0,0.0,0.0,0.0,0.0,0.0,0.0,0.0,0.0,0.0,0.0,0.0,0.0,0.0,0.0,0.0,0.0,0.0,0.0,0.0,0.0,0.0,0.0,0.0,0.0,0.0,0.0,-0.6154,-0.782,0.0,-0.9363,-0.9397,-0.8236,-0.8111,-0.7741,-0.5583,-0.4598,-0.362,-0.1681,-0.0813,0.0,0.1288,0.1493,0.1662,0.2135,0.3652,0.0,0.0,0.0,0.0,0.9451,0.0,0.0,0.0,1.5521,1.6912,1.7904,1.8679,1.9206,1.9377,1.9465,1.9282,1.885,1.8708,1.879,1.9064,1.9762,1.9991,1.971,2.0244,2.0332,2.0079,2.0557,2.0631,2.0302,1.9902,1.9608,0.0,1.8679,1.8447,1.8447,1.8447,1.8715,1.9044,1.8286,1.8286,1.8501,0.0,0.0,0.0,0.0,0.0,0.0,0.0,0.0,0.0,0.0,-0.2022,-0.2084,-0.1825,-0.2307,-0.2502,0.0,0.0,0.0,0.0,0.0,0.0,0.0,0.0,0.0,0.0,0.0,0.0,-0.3953,-0.4192,-0.4343,-0.4389,0.0,0.0,0.0,0.0,0.0,0.0,0.0,0.0,0.0,0.0,0.0,0.0,0.0,0.0,0.0,0.0,0.0,0.0,0.0,0.0,0.0,0.0,0.0,0.0,0.0,0.0,0.0,0.0,-0.7772,-0.8545,-0.669,-0.6725,-0.6049,-0.151,-0.0222,0.0,0.1,0.1586,0.2425,0.3874,0.4115,0.4298,0.4991,0.5348,0.0,0.0,0.8036,0.0,0.0,1.3793,0.0,1.5932,1.6443,1.7269,1.849,1.9312,1.9991,2.0526,2.0693,2.0795,2.0795,1.9594,1.9242,1.994,2.0597,2.0607,1.9915,2.1108,2.1322,2.0771,2.0841,2.121,2.1744,2.0521,2.0346,2.0894,2.0156,1.985,1.985,1.9747,1.9747,1.9695,1.8927,1.8608,1.8436,0.0,0.0,0.0,0.0,0.0,0.0,0.0,0.0,0.0,0.0,-0.1847,-0.1869,-0.1803,-0.1935,-0.1978,0.0,0.0,0.0,0.0,0.0,0.0,0.0,0.0,0.0,0.0,0.0,0.0,-0.3456,-0.3537,-0.3754,-0.4081,-0.3911,0.0,0.0,0.0,0.0,0.0,0.0,0.0,0.0,0.0,0.0,0.0,0.0,0.0,0.0,-0.2779,-0.2795,0.0,0.0,0.0,0.0,0.0,0.0,0.0,0.0,-0.103,-0.1229,-0.1806,0.0,-0.3612,-0.1995,-0.1699,-0.1398,0.0,0.1809,0.3086,0.3499,0.0,0.4118,0.5263,0.5172,0.5353,0.6724,0.0,0.8106,0.878,0.0,0.0,1.4241,1.4926,1.5689,1.7071,1.8277,1.8879,1.8679,1.9838,2.037,2.0016,2.0484,2.0795,2.0795,2.0939,2.1059,2.1232,2.1927,2.2161,2.1993,2.1355,2.1438,2.2179,2.171,2.2086,2.3128,2.2346,2.2128,2.2175,2.1028,2.0547,2.0446,1.9399,1.9307,1.9631,1.8328,1.7841,1.7743,0.0,0.0,0.0,0.0,0.0,0.0,0.0,0.0,0.0,0.0,0.0,0.0,0.0,0.0,0.0,0.0,0.0,0.0,0.0,0.0,0.0,0.0,0.0,0.0,0.0,0.0,0.0,0.0,0.0,-0.3554,0.0,0.0,0.0,0.0,0.0,0.0,0.0,0.0,0.0,0.0,0.0,0.0,0.0,0.0,0.0,0.0,-0.1463,-0.146,0.0,-0.1533,-0.1166,-0.0589,0.0,0.0,0.0,0.0,0.1133,0.1128,0.1035,-0.003,-0.076,0.0695,0.1458,0.2004,0.2645,0.0,0.0,0.0,0.0,0.0,0.0,0.0,0.0,0.0,0.868,0.0,0.0,0.0,1.4128,1.6073,1.6616,1.7291,0.0,1.9245,1.9813,2.0067,2.0792,2.1293,2.1506,2.1643,2.1657,2.1657,2.1974,2.1993,2.1697,2.2346,2.2694,2.2694,2.2253,2.2438,2.3098,2.2438,2.2711,2.3551,2.2346,2.1988,2.2146,2.0881,2.0346,2.0245,1.9515,1.9423,1.9695,1.8874,1.8608,1.8489,0.0,0.0,0.0,0.0,0.0,0.0,0.0,0.0,0.0,0.0,0.0,0.0,0.0,0.0,0.0,0.0,0.0,0.0,0.0,0.0,0.0,0.0,0.0,0.0,0.0,0.0,0.0,0.0,0.0,0.0,0.0,0.0,-0.3601,0.0,0.0,0.0,0.0,0.0,0.0,0.0,0.0,0.0,0.0,0.0,0.0,0.0,0.0,0.0,0.0,0.0286,0.0439,0.0708,0.0708,0.0,0.0,0.0,0.0,0.0,0.2972,0.2061,0.1286,0.2288,0.3398,0.4429,0.4993,0.0,0.0,0.0,0.0,0.0,0.0,0.786,0.0,0.0,0.0,0.0,1.2791,1.4387,1.5902,1.7474,1.8223,0.0,1.9762,1.9965,2.0455,2.1602,2.1791,2.2271,2.326,2.292,2.2694,2.2694,2.2785,2.2575,2.1979,2.2529,2.2844,2.283,2.3246,2.3508,2.3595,2.2965,2.3009,2.3508,2.1913,2.1534,2.1885,2.072,2.0181,2.0093,2.0003,1.9901,1.9798,1.9798,1.9747,1.9527,0.0,0.0,0.0,0.0,0.0,0.0,0.0,0.0,0.0,0.0,0.0,0.0,0.0,0.0,0.0,0.0,0.0,0.0,0.0,0.0,0.0,0.0,0.0,0.0,0.0,0.0,0.0,0.0,0.0,0.0,-0.2915,-0.302,-0.2878,-0.2535,0.0,0.0,0.0,0.0,0.0,0.0,0.0,0.0,0.0,0.0,0.0,0.0,0.0,0.0,0.0,0.2257,0.2373,0.2501,0.2501,0.0,0.0,0.0,0.0,0.0,0.4269,0.4454,0.4323,0.3715,0.4515,0.548,0.5704,0.0,0.0,0.0,0.0,0.0,0.0,0.9597,0.9919,0.0,0.0,1.2949,0.0,0.0,1.645,1.83,0.0,1.9218,2.0471,2.1086,2.1506,2.1697,2.2253,2.2392,2.2025,2.2438,2.2694,2.2694,2.3201,2.3406,2.3319,2.3406,2.3465,2.3465,2.3054,2.3113,2.3595,2.2965,2.3009,2.3595,2.3319,2.3216,2.326,2.2543,2.1913,2.1376,2.0832,2.0295,1.9798,1.9798,1.9423,1.8661,0.0,0.0,0.0,0.0,0.0,0.0,0.0,0.0,0.0,0.0,0.0,0.0,0.0,0.0,0.0,0.0,0.0,0.0,0.0,0.0,0.0,0.0,0.0,0.0,0.0,0.0,0.0,0.0,0.0,-0.2647,-0.2686,-0.2766,-0.2698,-0.2526,0.0,0.0,0.0,0.0,0.0,0.0,0.0,0.0,0.0,0.0,0.0,0.0,0.0,0.0,0.0,0.0,0.279,0.2895,0.2809,0.0,0.0,0.0,0.0,0.0,0.4417,0.5052,0.5546,0.5446,0.6185,0.7032,0.7447,0.8023,0.0,0.0,0.0,0.0,0.0,0.0,1.2205,1.375,0.0,1.4718,1.6011,1.6974,1.81,0.0,0.0,2.1121,2.1738,2.2067,2.2239,2.2239,2.2558,2.2725,2.2741,2.3039,2.3201,2.3201,2.3465,2.3595,2.3595,2.3595,2.3595,2.3595,2.3334,2.3334,2.3595,2.3334,2.3334,2.3595,2.3246,2.3098,2.3054,2.2081,2.15,2.1161,2.0497,2.0055,1.9798,1.9798,1.9592,1.915,0.0,0.0,0.0,0.0,0.0,0.0,0.0,0.0,0.0,0.0,0.0,0.0,0.0,0.0,0.0,0.0,0.0,0.0,0.0,0.0,0.0,0.0,0.0,0.0,0.0,0.0,-0.2419,-0.255,-0.2576,-0.2536,-0.25,-0.2483,-0.2384,-0.2103,0.0,0.0,0.0,0.0,0.0,0.0,0.0,0.0,0.0,0.0,0.0,0.0,0.0,0.0,0.0,0.0,0.0,0.0,0.0,0.0,0.0,0.3815,0.4155,0.463,0.4826,0.5615,0.6557,0.7219,0.0,0.8395,0.927,0.9845,0.0,0.0,0.0,0.0,0.0,1.2899,0.0,1.5337,1.5844,1.6404,1.7346,1.8548,1.9739,2.0731,2.181,2.2558,2.2694,2.2694,2.274,2.2875,2.292,2.3098,2.3551,2.3595,2.3595,2.3595,2.3595,2.3595,2.3595,2.3595,2.3595,2.3595,2.3595,2.3595,2.3595,2.3595,2.3595,2.3551,2.3098,2.292,2.283,2.188,2.1355,2.1175,2.067,2.0295,2.0055,2.0055,1.985,1.9475,0.0,0.0,0.0,0.0,0.0,0.0,0.0,0.0,0.0,0.0,0.0,0.0,0.0,0.0,0.0,0.0,0.0,0.0,0.0,0.0,0.0,0.0,0.0,0.0,0.0,-0.178,-0.2374,-0.2686,-0.2388,-0.2104,-0.1879,-0.1875,-0.1407,-0.0557,0.0,0.0,0.0,0.0,0.0,0.0,0.0,0.0,0.0,0.0,0.0,0.0,0.0,0.0,0.0,0.0,0.0,0.0,0.0,0.0,0.4622,0.4615,0.4991,0.5591,0.6411,0.7227,0.8056,0.8919,0.8872,0.0,1.0762,1.1387,0.0,1.2939,0.0,0.0,0.0,1.4656,1.5389,1.5496,1.6761,1.7983,1.8748,0.0,2.0793,2.1527,2.1697,2.2007,2.2649,2.2694,2.292,2.3508,2.3551,2.3551,2.3595,2.3595,2.3595,2.3595,2.3595,2.3595,2.3595,2.3595,2.3595,2.3595,2.3595,2.3595,2.3595,2.3595,2.3595,2.3595,2.3551,2.3551,2.3508,2.3465,2.3054,2.2558,2.2498,2.1799,2.0746,2.0746,1.9914,1.8768,0.0,0.0,0.0,0.0,0.0,0.0,0.0,0.0,0.0,0.0,0.0,0.0,0.0,0.0,0.0,0.0,0.0,0.0,0.0,0.0,0.0,0.0,0.0,-0.0345,-0.0348,-0.1181,-0.1688,-0.1819,-0.1158,-0.0912,-0.1033,-0.0408,0.0,0.0,0.0,0.0,0.0,0.0,0.0,0.0,0.0,0.0,0.0,0.0,0.0,0.0,0.0,0.0,0.0,0.0,0.4256,0.4409,0.4521,0.4845,0.5204,0.5204,0.5461,0.5821,0.6142,0.7402,0.8771,0.9352,1.0595,0.0,0.0,1.307,1.3905,1.4964,1.5496,0.0,0.0,0.0,1.6769,1.7483,1.8451,1.9369,2.0039,2.1158,2.2025,2.23,2.2651,2.298,2.3246,2.3246,2.3363,2.3595,2.3595,2.3595,2.3595,2.3595,2.3595,2.3595,2.3595,2.3595,2.3595,2.3595,2.3595,2.3595,2.3595,2.3595,2.3595,2.3595,2.3595,2.3595,2.3595,2.3595,2.3551,2.3201,2.292,2.2603,2.1846,2.1224,2.0759,2.0346,1.9837,1.9359,0.0,0.0,0.0,0.0,0.0,0.0,0.0,0.0,0.0,0.0,0.0,0.0,0.0,0.0,0.0,0.0,0.0,0.0,0.0,0.0,0.0,0.0,0.0,0.0,0.0,-0.0581,-0.0894,-0.088,0.0293,0.0613,0.0158,0.0,0.0,0.0,0.0,0.0,0.0,0.0,0.0,0.0,0.0,0.0,0.0,0.0,0.0,0.0,0.0,0.0,0.0,0.0,0.4558,0.4718,0.4904,0.5204,0.5518,0.5611,0.6056,0.6529,0.6529,0.8005,0.9682,0.0,0.0,0.0,1.4359,1.4892,1.556,1.6641,1.7193,1.7612,1.8013,0.0,0.0,0.0,1.9908,2.0699,2.1308,2.2291,2.2965,2.2965,2.3334,2.3595,2.3595,2.3595,2.3595,2.3595,2.3595,2.3595,2.3595,2.3595,2.3595,2.3595,2.3595,2.3595,2.3595,2.3595,2.3595,2.3595,2.3595,2.3595,2.3595,2.3595,2.3595,2.3595,2.3595,2.3595,2.3551,2.3143,2.2965,2.292,2.2021,2.1547,2.1321,2.0868,2.0484,2.0105,0.0,0.0,0.0,0.0,0.0,0.0,0.0,0.0,0.0,0.0,0.0,0.0,0.0,0.0,0.0,0.0,0.0,0.0,0.0,0.0,0.0,0.0,0.0,0.0,0.0,0.0,0.0,0.0,0.1825,0.2378,0.1794,0.1807,0.0,0.0,0.0,0.0,0.0,0.0,0.0,0.0,0.0,0.0,0.0,0.0,0.0,0.0,0.0,0.0,0.0,0.0,0.4706,0.4805,0.533,0.5511,0.5568,0.5837,0.6871,0.791,0.791,0.928,1.1,0.0,0.0,0.0,1.6824,1.6898,1.6836,1.7882,1.8145,1.8145,1.8145,1.8535,0.0,1.9811,2.0931,2.1919,2.2619,2.3206,2.3595,2.3595,2.3595,2.3595,2.3595,2.3595,2.3595,2.3595,2.3595,2.3595,2.3595,2.3595,2.3595,2.3595,2.3595,2.3595,2.3595,2.3595,2.3595,2.3595,2.3595,2.3595,2.3595,2.3595,2.3595,2.3595,2.3595,2.3595,2.3595,2.3595,2.3595,2.3595,2.3595,2.3231,2.2694,2.2694,2.1894,2.0795,0.0,0.0,0.0,0.0,0.0,0.0,0.0,0.0,0.0,0.0,0.0,0.0,0.0,0.0,0.0,0.0,0.0,0.0,0.0,0.0,0.0,0.0,0.0,0.0,0.0,0.0,0.0646,0.0633,0.1873,0.2311,0.0,0.0,0.0,0.2196,0.0,0.0,0.0,0.0,0.0,0.0,0.0,0.0,0.0,0.0,0.0,0.0,0.0,0.0,0.0,0.0,0.0,0.0,0.595,0.6381,0.6806,0.6652,0.7484,0.842,0.818,1.0074,0.0,1.2595,0.0,0.0,0.0,1.7754,0.0,0.0,1.9244,1.9244,1.9244,1.9369,0.0,2.036,2.1183,2.1919,2.2619,2.3206,2.3595,2.3595,2.3595,2.3595,2.3595,2.3595,2.3595,2.3595,2.3595,2.3595,2.3595,2.3595,2.3595,2.3595,2.3595,2.3595,2.3595,2.3595,2.3595,2.3595,2.3595,2.3595,2.3595,2.3595,2.3595,2.3595,2.3595,2.3595,2.3595,2.3595,2.3595,2.3551,2.3143,2.2575,2.196,2.15,2.0832,2.0105,0.0,0.0,0.0,0.0,0.0,0.0,0.0,0.0,0.0,0.0,0.1252,0.0,0.0,0.0,0.0,0.0,0.0,0.0,0.0,0.0,0.0,0.0,0.0,0.0,0.0,0.133,0.1343,0.0,0.0,0.0,0.0,0.0,0.277,0.2515,0.0,0.3487,0.0,0.0,0.0,0.0,0.4155,0.4297,0.4426,0.0,0.0,0.0,0.0,0.0,0.0,0.0,0.0,0.0,0.6183,0.6536,0.6976,0.7223,0.814,0.9146,0.955,1.1488,0.0,1.4322,1.6246,1.8122,1.8613,0.0,0.0,0.0,1.969,1.969,1.969,1.969,0.0,2.0602,2.1051,2.1545,2.2203,2.2607,2.2936,2.3206,2.3236,2.3325,2.358,2.3794,2.3921,2.3921,2.4116,2.4241,2.4241,2.4032,2.3921,2.3921,2.3724,2.3595,2.3595,2.3595,2.3595,2.3595,2.3595,2.3595,2.3595,2.3595,2.3595,2.3595,2.3595,2.3595,2.3595,2.3595,2.3595,2.3551,2.3187,2.2801,2.2409,2.2053,2.1486,2.0904,0.0,0.0,0.0,0.0,0.0,0.0,0.0,0.0,0.0,0.0,0.1798,0.1798,0.0,0.0,0.0,0.0,0.0,0.0,0.0,0.0,0.0,0.1798,0.1798,0.182,0.0,0.0,0.0,0.0,0.0,0.0,0.0,0.0,0.2997,0.2941,0.0,0.4093,0.0,0.0,0.0,0.4151,0.4179,0.4381,0.4648,0.4648,0.0,0.0,0.0,0.0,0.0,0.0,0.0,0.0,0.6201,0.6295,0.6553,0.7579,0.8732,0.9985,1.1413,1.3137,0.0,1.6651,1.767,0.0,1.9468,1.969,1.969,1.969,0.0,1.9818,1.9747,1.9747,1.9972,2.0663,2.0707,2.0946,2.1605,2.1695,2.1919,2.2559,2.2619,2.2915,2.3531,2.4066,2.4409,2.4471,2.4934,2.5182,2.5144,2.4657,2.4389,2.4307,2.3837,2.3595,2.3595,2.3595,2.3595,2.3595,2.3595,2.3595,2.3595,2.3595,2.3595,2.3595,2.3595,2.3595,2.3595,2.3595,2.3595,2.3595,2.3595,2.3551,2.3508,2.3508,2.3098,2.2452,0.0,0.0,0.0,0.0,0.0,0.0,0.0,0.0,0.0,0.0,0.0,0.0,0.0,0.0,0.0,0.0,0.0,0.0,0.0,0.0,0.1806,0.1806,0.1806,0.1894,0.211,0.2146,0.0,0.0,0.0,0.0,0.0,0.0,0.0,0.309,0.0,0.4184,0.0,0.0,0.0,0.4509,0.4776,0.4923,0.5001,0.4992,0.5194,0.0,0.0,0.0,0.0,0.0,0.0,0.0,0.6693,0.707,0.7488,0.7636,0.8883,1.0357,1.0891,1.2844,0.0,0.0,1.8074,1.9424,1.9645,1.969,1.969,1.969,2.0243,2.0599,2.0227,2.0193,2.0373,2.1065,2.0903,2.0946,2.1605,2.1695,2.1739,2.1889,2.2176,2.2639,2.3379,2.3873,2.4401,2.498,2.5128,2.5028,2.4576,2.4471,2.4199,2.3809,2.3681,2.3595,2.3595,2.3595,2.3595,2.3595,2.3595,2.3595,2.3595,2.3595,2.3595,2.3595,2.3595,2.3595,2.3595,2.3595,2.3595,2.3595,2.3595,2.3334,2.2875,2.2875,2.2175,2.1175,0.0,0.0,0.0,0.0,0.0,0.0,0.0,0.0,0.0,0.0,0.0,0.0,0.0,0.0,0.0,0.0,0.0,0.0,0.0,0.0,0.2066,0.2219,0.2241,0.2307,0.2437,0.2437,0.2524,0.0,0.0,0.0,0.0,0.0,0.0,0.4042,0.0,0.4789,0.0,0.0,0.4773,0.4864,0.5205,0.5233,0.5126,0.5394,0.5625,0.5845,0.5826,0.0,0.0,0.0,0.0,0.0,0.0,0.0,0.7584,0.7924,0.896,1.0233,1.1442,0.0,0.0,1.767,0.0,1.9747,1.9929,2.0174,2.0311,2.0311,2.0345,2.0311,2.007,2.0193,2.0423,2.0744,2.0837,2.0992,2.1312,2.1358,2.1481,2.1806,2.204,2.2451,2.3142,2.3729,2.4265,2.4617,2.499,2.5067,2.4776,2.4776,2.4657,2.4389,2.4116,2.3991,2.3991,2.3709,2.3709,2.3991,2.3709,2.3595,2.3595,2.3595,2.3595,2.3595,2.3595,2.3595,2.3595,2.3595,2.3595,2.3595,2.3595,2.3421,2.3143,2.3143,2.2725,2.2114,0.0,0.0,0.0,0.0,0.0,0.0,0.0,0.0,0.0,0.0,0.0,0.0,0.0,0.0,0.0,0.0,0.0,0.0,0.0,0.2172,0.2415,0.2697,0.2697,0.2719,0.2762,0.2762,0.2805,0.0,0.0,0.0,0.0,0.0,0.0,0.5117,0.0,0.0,0.0,0.0,0.5198,0.5214,0.5499,0.5494,0.5407,0.5863,0.6101,0.6194,0.6182,0.626,0.634,0.634,0.0,0.0,0.0,0.0,0.7431,0.8179,0.8868,0.9834,1.179,0.0,1.6561,1.9106,1.9834,0.0,2.0348,2.0715,2.0991,2.0991,2.0548,2.0104,2.0035,2.0296,2.0501,2.0501,2.0781,2.0991,2.0991,2.0991,2.1182,2.1657,2.177,2.2091,2.2683,2.3474,2.4031,2.4216,2.4949,2.5335,2.5335,2.5335,2.5259,2.5067,2.4617,2.4389,2.4389,2.3964,2.3991,2.4552,2.3991,2.3681,2.3595,2.3595,2.3595,2.3595,2.3595,2.3595,2.3595,2.3595,2.3595,2.3595,2.3595,2.3595,2.3595,2.3595,2.3551,2.3377,0.0,0.0,0.0,0.0,0.0,0.0,0.0,0.0,0.0,0.0,0.215,0.2259,0.2546,0.2589,0.0,0.0,0.0,0.0,0.2589,0.0,0.0,0.2697,0.2697,0.281,0.3046,0.3046,0.3281,0.0,0.0,0.0,0.0,0.0,0.0,0.5524,0.0,0.0,0.0,0.0,0.5264,0.5539,0.5576,0.5911,0.6415,0.6475,0.6521,0.6532,0.6533,0.6694,0.6892,0.6892,0.7012,0.0,0.0,0.0,0.7605,0.7886,0.8468,0.9205,0.0,0.0,1.7113,0.0,2.0369,2.0829,0.0,0.0,2.0991,0.0,2.1524,2.184,2.143,2.1383,2.143,2.143,2.1181,2.0991,2.0991,2.0991,2.0893,2.0574,2.0906,2.1291,2.1639,2.2635,2.3681,2.4806,2.5513,2.5888,2.5888,2.5888,2.5449,2.4552,2.443,2.4389,2.4389,2.4307,2.4552,2.5105,2.4552,2.4032,2.3595,2.3595,2.3595,2.3595,2.3595,2.3595,2.3595,2.3595,2.3595,2.3595,2.3595,2.3595,2.3595,2.3595,2.329,2.274,0.0,0.0,0.0,0.0,0.0,0.0,0.0,0.0,0.0,0.0,0.0,0.2546,0.2676,0.2697,0.0,0.0,0.0,0.0,0.2918,0.2918,0.0,0.0,0.0,0.3423,0.3556,0.3696,0.3875,0.0,0.0,0.0,0.0,0.6382,0.651,0.0,0.0,0.0,0.0,0.0,0.0,0.577,0.5892,0.6581,0.748,0.6833,0.7377,0.8358,0.7598,0.7237,0.7136,0.7239,0.7317,0.7395,0.756,0.0,0.0,0.0,0.8379,0.9423,1.1814,1.4155,1.657,0.0,2.0145,2.0558,2.1194,2.1337,2.1415,2.1675,2.202,2.2077,2.1385,2.143,2.1582,2.1582,2.1675,2.1721,2.1721,2.1721,2.1645,2.1446,2.1615,2.1793,2.192,2.2476,2.3046,2.3605,2.4072,2.4499,2.4887,2.5193,2.5337,2.5281,2.5297,2.5297,2.5297,2.4712,2.4389,2.4307,2.4389,2.4116,2.3595,2.3595,2.3595,2.3595,2.3595,2.3595,2.3595,2.3595,2.3595,2.3595,2.3595,2.3595,2.3595,2.3595,2.3421,2.3143,0.0,0.0,0.0,0.0,0.0,0.0,0.0,0.0,0.0,0.0,0.0,0.0,0.2896,0.0,0.0,0.0,0.0,0.0,0.3202,0.0,0.0,0.0,0.0,0.0,0.3911,0.4171,0.0,0.0,0.0,0.0,0.7442,0.7519,0.8094,0.0,0.8,0.7609,0.0,0.0,0.0,0.0,0.6864,0.7644,0.8594,0.8127,0.8401,0.8953,0.8177,0.7662,0.74,0.7553,0.7604,0.7606,0.765,0.7768,0.0,0.0,0.0,0.0,0.0,0.0,1.543,1.8294,1.9341,1.9988,0.0,0.0,2.1637,0.0,2.231,2.2106,2.1462,2.1568,2.1794,2.1794,2.2061,2.231,2.231,2.231,2.2254,2.2135,2.2106,2.2077,2.1974,2.2256,2.2491,2.2619,2.2977,2.3484,2.4142,2.4543,2.4943,2.5384,2.5417,2.5464,2.5501,2.4893,2.4348,2.3794,2.4184,2.4116,2.3595,2.3595,2.3595,2.3595,2.3595,2.3595,2.3595,2.3595,2.3595,2.3595,2.3595,2.3595,2.3595,2.3595,2.3595,2.3595,0.0,0.0,0.0,0.0,0.0,0.0,0.0,0.0,0.0,0.0,0.0,0.0,0.0,0.0,0.0,0.0,0.0,0.0,0.0,0.0,0.0,0.0,0.0,0.0,0.0,0.0,0.0,0.0,0.0,0.0,0.7587,0.7849,0.8965,1.0728,0.9999,0.9209,0.8431,0.0,0.0,0.0,0.0,0.9276,0.9778,1.1123,0.9595,0.6881,0.7636,0.7877,0.7864,0.7869,0.7885,0.7885,0.7885,0.7885,0.7899,0.0,0.0,0.0,0.0,1.1886,0.0,1.6011,1.7786,0.0,0.0,0.0,2.1448,2.2158,2.231,2.2282,2.2237,2.2254,2.2254,2.2254,2.2282,2.231,2.231,2.231,2.2135,2.1688,2.1658,2.1507,2.1086,2.1664,2.2231,2.2666,2.3309,2.3918,2.4464,2.4495,2.429,2.3819,2.3835,2.3925,2.4207,2.4862,2.491,2.4348,2.4389,2.4116,2.3595,2.3595,2.3595,2.3595,2.3595,2.3595,2.3595,2.3595,2.3595,2.3595,2.3595,2.3595,2.3595,2.3595,2.3595,2.3508,0.0,0.0,0.0,0.0,0.0,0.0,0.0,0.0,0.0,0.0,0.0,0.0,0.0,0.3506,0.3506,0.3506,0.0,0.0,0.0,0.0,0.0,0.0,0.0,0.0,0.0,0.0,0.0,0.0,0.0,0.6363,0.7795,0.7888,0.8705,1.0032,0.9391,0.9355,0.9733,0.8646,0.0,0.0,0.0,1.0342,1.1215,1.2075,1.2192,1.2021,1.2724,1.0807,0.0,0.9839,0.928,0.7896,0.7896,0.7901,0.7899,0.7899,0.7927,0.0,0.0,0.0,0.0,1.4981,1.6605,1.7884,1.9367,2.0509,2.1262,2.1532,2.1972,2.231,2.231,2.231,2.231,2.231,2.231,2.231,2.231,2.231,2.2237,2.2077,2.2032,2.2003,2.1857,2.2059,2.2269,2.2417,2.2668,2.308,2.3765,2.3782,2.3924,2.4206,2.3967,2.3791,2.3638,2.427,2.449,2.4389,2.4389,2.4307,2.4116,2.3752,2.3595,2.3595,2.3595,2.3595,2.3595,2.3595,2.3595,2.3595,2.3595,2.3595,2.3595,2.3595,2.3595,2.3551,0.0,0.0,0.0,0.0,0.0,0.0,0.0,0.0,0.0,0.3744,0.0,0.0,0.0,0.0,0.3765,0.3765,0.3931,0.0,0.0,0.0,0.0,0.0,0.0,0.0,0.0,0.0,0.0,0.0,0.0,0.0,0.0,0.7835,0.8512,0.9617,0.8904,0.9367,0.0,0.0,0.0,0.9945,0.0,1.1526,1.2323,1.3585,1.4517,1.5243,1.5652,1.3536,0.0,1.1514,1.0659,0.906,0.8175,0.7955,0.8013,0.8054,0.8068,0.831,0.9433,0.0,0.0,0.0,0.0,1.6174,1.8386,1.9486,2.0264,2.1051,2.1583,2.2006,2.226,2.231,2.231,2.231,2.231,2.231,2.231,2.231,2.231,2.231,2.231,2.231,2.231,2.231,2.231,2.231,2.231,2.2513,2.3004,2.3038,2.3257,2.3748,2.3438,2.3218,2.3117,2.3829,2.4103,2.4024,2.4281,2.4307,2.4116,2.3752,2.3595,2.3595,2.3595,2.3595,2.3595,2.3595,2.3595,2.3595,2.3595,2.3595,2.3595,2.3595,2.3595,2.3595,0.0,0.0,0.0,0.0,0.0,0.0,0.0,0.0,0.4007,0.4273,0.0,0.0,0.0,0.0,0.0,0.4321,0.4313,0.4313,0.4325,0.0,0.0,0.0,0.0,0.0,0.0,0.0,0.0,0.0,0.0,0.0,0.0,0.0,0.8445,0.963,0.8786,0.9315,1.0881,1.1066,1.1168,1.1329,0.0,1.2844,1.32,1.5739,1.6363,1.5871,1.5894,1.5873,1.5465,1.2871,1.1957,1.1442,0.8753,0.8037,0.8234,0.8364,0.8419,0.8431,0.0,0.0,0.0,0.0,0.0,0.0,1.7896,0.0,1.8386,2.0645,2.1136,2.138,2.2141,2.2293,2.231,2.231,2.231,2.231,2.231,2.231,2.231,2.231,2.231,2.231,2.231,2.231,2.231,2.231,2.231,2.231,2.231,2.231,2.2282,2.2282,2.21,2.2181,2.2572,2.36,2.3828,2.3335,2.4104,2.4158,2.3638,2.3638,2.3595,2.3595,2.3595,2.3595,2.3595,2.3595,2.3595,2.3595,2.3595,2.3595,2.3595,2.3595,2.3595,2.3595,0.0,0.0,0.0,0.0,0.0,0.0,0.4171,0.4191,0.4211,0.0,0.0,0.0,0.4313,0.4313,0.4441,0.4771,0.467,0.4677,0.4855,0.5059,0.5262,0.5461,0.5537,0.5593,0.5686,0.0,0.0,0.0,0.0,0.0,0.0,0.0,0.7886,0.8818,0.8631,0.9208,1.0288,0.9773,0.0,1.2011,1.2271,1.3727,0.0,1.65,1.731,1.8118,1.8095,1.7764,1.7209,1.6451,1.5542,1.39,0.9344,0.8177,0.8501,0.8543,0.8843,0.9081,0.8543,0.0,0.0,0.0,0.0,0.0,0.0,0.0,1.6695,1.8386,1.9604,2.0568,2.1363,2.1938,2.231,2.231,2.231,2.231,2.231,2.231,2.231,2.231,2.231,2.231,2.231,2.231,2.231,2.231,2.231,2.231,2.231,2.231,2.2135,2.1794,2.1718,2.1859,2.2164,2.3338,2.4088,2.4382,2.5183,2.5297,2.4736,2.4348,2.3964,2.3595,2.3595,2.3595,2.3595,2.3595,2.3595,2.3595,2.3595,2.3595,2.3595,2.3595,2.3595,2.3595,0.0,0.0,0.0,0.0,0.0,0.462,0.4747,0.4768,0.4789,0.0,0.0,0.0,0.5107,0.5672,0.5936,0.574,0.5601,0.5502,0.5442,0.5585,0.5745,0.5893,0.5911,0.5991,0.6195,0.6306,0.6519,0.6855,0.6966,0.7144,0.7363,0.7363,0.7685,0.825,0.8345,0.8713,0.923,0.885,0.9958,0.0,1.322,0.0,1.658,1.7702,1.8511,1.9038,1.9332,1.8945,1.8404,1.8724,1.7831,1.6,1.2281,1.13,1.1232,0.978,0.9968,1.0508,0.9738,0.9921,0.0,0.0,0.0,0.0,1.3887,1.4733,1.5646,0.0,1.8464,1.9393,2.05,2.1312,2.1837,2.1837,2.2107,2.231,2.231,2.231,2.231,2.231,2.231,2.231,2.231,2.231,2.231,2.231,2.231,2.231,2.231,2.2106,2.1957,2.1899,2.1688,2.1765,2.2115,2.3187,2.3933,2.4362,2.5137,2.5395,2.5182,2.4617,2.4225,2.3921,2.3681,2.3595,2.3595,2.3595,2.3595,2.3595,2.3595,2.3595,2.3595,2.3595,2.3595,2.3595,0.0,0.0,0.437,0.442,0.4794,0.5182,0.5483,0.5551,0.5662,0.0,0.5661,0.5786,0.6597,0.7711,0.8003,0.7053,0.6805,0.651,0.6086,0.6007,0.5991,0.6034,0.6034,0.6236,0.6668,0.6668,0.6855,0.7241,0.7241,0.7379,0.7635,0.7635,0.7739,0.7927,0.8036,0.8113,0.8193,0.8524,0.9849,1.1926,1.4476,1.5758,1.6432,1.9028,1.9731,1.9443,2.0049,1.9855,1.9455,2.0122,1.9425,1.8007,1.6356,1.5611,1.4813,1.2043,1.1797,0.0,1.1553,1.1417,0.0,1.299,1.2906,0.0,1.4817,1.4851,1.5052,0.0,1.7507,1.7974,1.9376,2.0348,2.0923,2.0923,2.1634,2.2226,2.2293,2.231,2.231,2.231,2.231,2.231,2.231,2.231,2.231,2.231,2.231,2.231,2.231,2.1899,2.1869,2.2282,2.1899,2.1899,2.2282,2.3038,2.3469,2.3687,2.4496,2.4974,2.507,2.4665,2.443,2.4266,2.3794,2.3595,2.3595,2.3595,2.3595,2.3595,2.3595,2.3595,2.3595,2.3595,2.3595,2.3595,0.0,0.4472,0.4744,0.512,0.5451,0.5777,0.6136,0.6478,0.6699,0.6756,0.7354,0.8109,0.9033,0.8679,0.8454,0.8547,0.7429,0.682,0.7092,0.671,0.6604,0.694,0.694,0.6988,0.7069,0.7085,0.7225,0.753,0.753,0.7635,0.7841,0.7841,0.7912,0.8063,0.8075,0.8277,0.8665,0.9895,1.1431,1.307,1.3461,1.5501,1.8427,1.9563,2.0688,2.1658,2.1809,2.1776,2.1698,2.1824,2.1669,2.0956,1.824,1.5749,1.4156,1.5869,1.4843,1.3141,1.2992,1.3379,1.3633,1.2737,1.3295,0.0,1.3126,1.3752,1.4613,0.0,1.5629,1.6306,1.7168,1.8437,1.9333,1.9333,2.05,2.1617,2.2226,2.231,2.231,2.231,2.231,2.231,2.231,2.231,2.231,2.231,2.231,2.231,2.231,2.2209,2.2209,2.231,2.2209,2.2209,2.231,2.3038,2.3431,2.3476,2.4822,2.5059,2.4329,2.4812,2.4576,2.3752,2.3638,2.3595,2.3595,2.3595,2.3595,2.3595,2.3595,2.3595,2.3595,2.3595,2.3595,2.3595,0.0,0.4806,0.5049,0.5524,0.5867,0.6256,0.6674,0.7052,0.7411,0.7706,0.8951,0.988,1.0084,1.0024,0.9912,0.9712,0.8748,0.8039,0.7811,0.7548,0.7341,0.7193,0.7195,0.7256,0.7394,0.7394,0.7515,0.7753,0.7753,0.7797,0.7899,0.7969,0.8249,0.8703,0.8491,0.8925,0.9835,1.0274,1.1388,1.3002,1.4735,1.7054,1.9572,2.0716,2.1636,2.231,2.231,2.231,2.2243,2.1878,2.2004,2.2031,2.0528,1.8517,1.6847,0.0,1.6758,1.5491,1.4971,1.4958,1.4969,1.458,1.4766,0.0,0.0,1.4496,1.4798,1.5913,1.5561,1.5511,1.6982,1.7845,1.8352,1.8352,1.9621,2.0737,2.1083,2.1809,2.231,2.231,2.231,2.231,2.231,2.231,2.231,2.231,2.231,2.231,2.231,2.231,2.231,2.231,2.231,2.231,2.231,2.2682,2.3038,2.341,2.4257,2.473,2.4837,2.4824,2.4776,2.4752,2.3948,2.3752,2.3991,2.3724,2.3595,2.3595,2.3595,2.3595,2.3595,2.3595,2.3595,2.3595,0.5059,0.5137,0.5313,0.5783,0.6266,0.6742,0.7215,0.7669,0.8252,0.9097,1.0762,1.1738,1.1429,1.1857,1.1965,1.1442,1.0594,0.9763,0.9043,0.865,0.8233,0.7744,0.746,0.7497,0.7839,0.7738,0.7768,0.7941,0.797,0.7984,0.7998,0.8106,0.8604,0.9383,0.9052,0.9746,1.1141,0.0,1.1571,1.3618,1.6612,1.8327,1.9341,2.1161,2.1877,2.1894,2.2198,2.231,2.2226,2.16,2.1681,2.2036,2.225,2.1445,2.0154,0.0,1.8223,1.8019,1.7114,1.6672,1.6525,1.6813,1.6678,1.6458,0.0,0.0,0.0,1.7084,1.5967,1.5274,0.0,0.0,0.0,1.7388,1.8599,1.9529,1.9376,2.066,2.1701,2.1854,2.2006,2.209,2.209,2.1955,2.1989,2.2293,2.204,2.2006,2.2293,2.231,2.231,2.231,2.231,2.231,2.231,2.231,2.2598,2.319,2.3631,2.4363,2.5227,2.4858,2.5128,2.5762,2.4471,2.4158,2.4511,2.3991,2.3752,2.3752,2.3638,2.3595,2.3595,2.3595,2.3595,2.3595,0.5137,0.5293,0.5608,0.6075,0.6725,0.7358,0.7818,0.8642,0.9829,1.1554,1.3266,1.446,1.4864,1.457,1.4523,1.4975,1.3011,1.1777,1.1827,1.0267,0.9409,0.9579,0.8451,0.8124,0.8738,0.8286,0.8063,0.8077,0.8269,0.8351,0.8351,0.8361,0.885,0.9741,0.9686,1.0589,1.2128,1.2061,1.4024,1.7206,1.7629,1.7127,1.6381,1.92,2.0261,2.0449,2.1799,2.231,2.2293,2.2209,2.1647,2.1117,2.2019,2.218,2.1752,2.0196,0.0,0.0,1.911,1.9218,1.9208,1.798,1.8582,1.8836,1.6306,0.0,1.7134,1.6069,0.0,1.5544,0.0,0.0,0.0,0.0,0.0,1.7828,1.7173,1.8335,1.9536,2.017,2.0889,2.1312,2.1312,2.0686,2.0829,2.2209,2.1015,2.0846,2.2243,2.231,2.231,2.231,2.231,2.231,2.231,2.231,2.2344,2.2446,2.3786,2.4242,2.3968,2.5248,2.5615,2.5297,2.5105,2.5051,2.5067,2.4552,2.4307,2.4266,2.3794,2.3595,2.3595,2.3595,2.3595,2.3595,0.5586,0.5647,0.587,0.6294,0.6622,0.7002,0.7507,0.961,1.1786,1.3642,1.4984,1.5835,1.6062,1.558,1.5384,1.5848,1.4892,1.4042,1.3491,1.2534,1.1882,1.1648,1.0239,0.9593,0.9876,0.9242,0.8702,0.8267,0.8361,0.8403,0.8415,0.8517,0.9245,1.0453,1.0518,1.1909,1.4189,1.3761,1.4706,1.6558,1.6987,1.6647,1.6298,1.9938,2.1343,2.1429,2.2085,2.231,2.2243,2.1803,2.1653,2.1664,2.1654,2.1942,2.2158,2.153,2.0702,2.0157,2.0833,2.0756,2.0238,1.9316,1.9232,1.9046,1.7794,1.732,1.7219,1.7456,0.0,0.0,0.0,0.0,0.0,0.0,1.612,1.6424,1.6103,1.6593,1.7574,1.9181,1.9655,2.0027,2.0467,2.0187,2.0272,2.0914,2.0373,2.0475,2.16,2.2073,2.231,2.231,2.231,2.231,2.231,2.231,2.231,2.2327,2.3474,2.4079,2.421,2.5144,2.5709,2.6052,2.5449,2.5373,2.5615,2.5105,2.4855,2.4816,2.4632,2.4158,2.3595,2.3595,2.3595,2.3595,0.6379,0.6185,0.6123,0.6584,0.6898,0.7355,0.8086,1.0664,1.3095,1.4815,1.6076,1.6901,1.7,1.6992,1.7052,1.7217,1.6939,1.6429,1.5641,1.4822,1.4173,1.3726,1.2131,1.1205,1.1188,1.033,0.9519,0.8782,0.8611,0.8538,0.8538,0.8689,0.9434,1.0689,1.1197,1.2976,1.5593,1.5346,1.6019,1.7269,1.7713,1.7941,1.8329,2.0951,2.2192,2.2561,2.2561,2.2561,2.2449,2.1805,2.1983,2.2313,2.1678,2.187,2.2304,2.2307,2.1498,2.0857,2.1987,2.1781,2.1045,2.0399,1.9713,1.9096,1.8691,1.7912,1.7562,1.842,1.7642,0.0,0.0,0.0,0.0,0.0,0.0,1.568,0.0,1.5172,0.0,1.8048,1.864,1.9198,1.9917,1.9444,1.9343,1.9951,1.9427,1.9722,2.1136,2.1701,2.209,2.231,2.231,2.231,2.231,2.231,2.231,2.2299,2.3395,2.4111,2.4526,2.5269,2.6016,2.6657,2.5928,2.5835,2.6156,2.5635,2.5411,2.5411,2.5259,2.4736,2.4032,2.3879,2.3837,2.3794,0.7616,0.6948,0.6387,0.6971,0.7931,0.9057,1.0285,1.1803,1.3283,1.4628,1.6486,1.7832,1.828,1.959,2.0387,2.0187,1.9402,1.8881,1.8833,1.696,1.5803,1.581,1.3889,1.2767,1.2627,1.145,1.0487,0.9765,0.917,0.888,0.888,0.8891,0.9313,1.0088,1.1599,1.3515,1.5671,1.6677,1.8785,2.1375,2.1006,2.1716,2.2845,2.1519,2.193,2.3165,2.3165,2.3165,2.3117,2.2762,2.2678,2.2634,2.2354,2.2293,2.231,2.231,2.2276,2.226,2.2293,2.2276,2.2017,2.1003,2.0374,1.9579,1.8166,1.8352,1.864,1.798,1.8903,1.9647,1.8995,0.0,0.0,0.0,0.0,0.0,0.0,0.0,0.0,0.0,0.0,1.9198,1.9917,1.8065,1.7693,1.9833,1.8014,1.8104,2.1051,2.1221,2.1549,2.2293,2.231,2.231,2.231,2.231,2.231,2.2327,2.3782,2.4475,2.4557,2.5982,2.6657,2.6691,2.6657,2.6657,2.6657,2.6191,2.5961,2.5924,2.5411,2.5182,2.5105,2.4592,2.4389,2.4307,0.8633,0.845,0.825,0.8447,0.847,0.9315,1.1922,1.4435,1.6527,1.7862,1.8629,1.9076,1.9226,2.0061,2.0727,2.0991,2.0839,2.0518,2.0009,1.9131,1.8618,1.8618,1.702,1.5888,1.5365,1.3999,1.2689,1.1448,1.0727,1.0365,1.0348,0.9861,1.0352,1.1701,1.2765,1.4843,1.7633,0.0,0.0,2.1205,2.1295,2.2209,2.3452,2.2747,2.2765,2.3189,2.3189,2.3189,2.3141,2.2822,2.2848,2.2965,2.2453,2.2426,2.2527,2.2349,2.231,2.231,2.231,2.231,2.222,2.1883,2.0875,1.9731,1.8758,1.8724,1.8691,1.7963,1.8954,1.9765,1.9046,0.0,0.0,0.0,0.0,0.0,0.0,0.0,0.0,0.0,0.0,0.0,0.0,1.7287,1.754,1.7794,1.8014,1.8809,2.0331,2.138,2.204,2.2293,2.231,2.231,2.231,2.231,2.2547,2.3038,2.4019,2.4746,2.5253,2.6251,2.6691,2.6691,2.6691,2.6691,2.6691,2.6521,2.647,2.6436,2.628,2.6193,2.6052,2.4855,2.4389,2.4307,0.962,0.9583,0.9485,0.934,1.003,1.1402,1.3761,1.6815,1.8718,1.8374,1.9109,1.969,1.969,2.0596,2.1279,2.1401,2.1694,2.1661,2.1188,2.0693,2.0439,2.0433,1.9246,1.8234,1.7497,1.6277,1.4828,1.307,1.2309,1.1632,1.1097,1.0602,0.0,0.0,1.3497,1.562,1.8206,1.9733,2.098,2.2005,2.2334,2.303,2.3858,2.3656,2.3567,2.3566,2.3566,2.3566,2.3482,2.3165,2.3189,2.3277,2.2634,2.2563,2.266,2.2388,2.231,2.231,2.231,2.231,2.2287,2.2302,2.1549,2.0476,1.9205,1.9316,1.9418,1.8403,1.9579,2.0576,1.9841,0.0,0.0,0.0,0.0,0.0,0.0,1.4107,0.0,0.0,0.0,0.0,0.0,1.6096,1.6475,1.705,1.749,1.8403,1.9917,2.1228,2.204,2.2293,2.231,2.231,2.231,2.231,2.2682,2.341,2.4137,2.4881,2.5642,2.6353,2.6691,2.6691,2.6691,2.6691,2.6691,2.6691,2.6691,2.6691,2.6691,2.6691,2.6573,2.5395,2.4855,2.4664,1.0587,1.0398,1.012,0.9878,1.2598,1.5089,1.592,1.886,1.9829,1.6576,1.8404,2.005,2.005,2.1534,2.2295,2.1704,2.2091,2.2378,2.244,2.1748,2.1334,2.1349,2.0585,1.9805,1.9052,1.8296,1.6842,1.471,1.3888,1.273,1.129,1.1219,0.0,0.0,1.3823,0.0,1.7472,2.0246,2.2315,2.3747,2.406,2.419,2.419,2.419,2.419,2.419,2.419,2.419,2.4151,2.3816,2.3714,2.361,2.2947,2.2746,2.2686,2.2426,2.2321,2.2293,2.2293,2.2293,2.2287,2.2293,2.2295,2.1721,1.9576,2.0187,2.078,1.9249,2.0737,2.2073,2.1262,0.0,0.0,0.0,0.0,0.0,0.0,0.0,1.3532,0.0,0.0,0.0,0.0,1.457,1.4717,1.7439,1.6441,1.6965,0.0,2.072,2.1498,2.2293,2.231,2.231,2.231,2.231,2.2699,2.346,2.4154,2.4898,2.5693,2.6387,2.6691,2.6691,2.6691,2.6691,2.6691,2.6691,2.6691,2.6691,2.6691,2.6691,2.6657,2.6191,2.5652,2.5317,1.2482,1.1912,1.2093,1.4381,1.4911,1.6007,1.8908,2.0158,2.0858,2.1061,2.3305,2.4893,2.4893,2.5296,2.5493,2.5329,2.416,2.3676,2.4344,2.3642,2.3313,2.3562,2.2806,2.2039,2.1295,1.9976,1.8748,1.7629,1.563,1.4449,1.4049,0.0,0.0,0.0,0.0,1.663,1.8895,2.0876,2.2627,2.4079,2.4171,2.419,2.419,2.419,2.419,2.419,2.419,2.419,2.4151,2.3816,2.3876,2.3937,2.3282,2.3236,2.3351,2.2874,2.2547,2.2297,2.2297,2.2289,2.2293,2.2298,2.2289,2.2141,2.1567,2.13,2.0906,1.99,2.1083,2.1904,2.0542,2.0788,0.0,0.0,0.0,0.0,0.0,0.0,0.0,1.5504,0.0,0.0,1.3462,1.4866,1.5697,1.5356,1.6525,1.8048,1.99,2.0187,2.0914,2.2276,2.231,2.231,2.231,2.231,2.2953,2.4205,2.4421,2.5152,2.642,2.6607,2.6691,2.6691,2.6691,2.6691,2.6691,2.6691,2.6691,2.6691,2.6691,2.6691,2.6657,2.6191,2.5652,2.5317,1.4325,1.3706,1.4386,1.8381,1.918,1.9571,2.0661,2.0998,2.152,2.2761,2.4738,2.6371,2.7131,2.7216,2.708,2.6775,2.5737,2.5172,2.5298,2.4881,2.4582,2.4413,2.3971,2.3374,2.259,2.1749,2.0593,1.9171,1.748,1.6109,1.5071,0.0,0.0,0.0,0.0,1.7188,1.9378,2.1823,2.3379,2.419,2.419,2.419,0.0,2.419,2.419,2.419,2.419,2.419,2.417,2.3976,2.4036,2.4113,2.3588,2.3544,2.3592,2.3152,2.2814,2.253,2.2367,2.2293,2.231,2.231,2.2309,2.2317,2.2312,2.1973,2.1448,2.0686,2.1481,2.204,2.1167,2.1109,0.0,0.0,0.0,0.0,0.0,0.0,0.0,0.0,1.5567,0.0,1.2517,1.4091,1.5191,1.5003,1.6136,1.749,1.8954,1.9993,2.0923,2.1786,2.2141,2.231,2.231,2.2632,2.3359,2.4506,2.4814,2.5575,2.6691,2.6691,2.6691,2.6691,2.6691,2.6691,2.6691,2.6691,2.6691,2.6691,2.6691,2.6691,2.6657,2.6401,2.6303,2.6447,1.5975,1.559,1.6713,2.1467,2.3359,2.3604,2.1802,2.1792,2.2303,2.321,2.4473,2.5966,2.764,2.7958,2.7764,2.7053,2.6952,2.6656,2.5996,2.5938,2.5659,2.5033,2.4812,2.4294,2.3507,2.3365,2.2191,1.9895,1.8979,1.7388,0.0,0.0,0.0,0.0,0.0,0.0,0.0,2.285,2.419,2.419,2.419,2.419,2.4208,2.4318,2.4355,2.4373,2.4483,2.4373,2.419,2.419,2.419,2.4169,2.3985,2.3847,2.375,2.3664,2.3318,2.2923,2.265,2.2449,2.2288,2.2299,2.2299,2.2293,2.2283,2.2303,2.2124,2.1465,2.1854,2.2276,2.2175,2.1549,2.0382,0.0,0.0,0.0,0.0,0.0,0.0,0.0,0.0,0.0,1.2957,1.3312,1.4141,1.5223,1.5392,1.6187,1.7862,1.9722,2.0923,2.1339,2.1972,2.231,2.231,2.3038,2.3765,2.4523,2.5253,2.5998,2.6691,2.6691,2.6691,2.6691,2.6691,2.6691,2.6691,2.6691,2.6691,2.6691,2.6691,2.6691,2.6708,2.681,2.7317,2.8078,1.6888,1.707,1.8343,2.1708,2.2513,2.2941,2.3786,2.396,2.4379,2.547,2.576,2.6308,2.7418,2.8308,2.8565,2.8001,2.7795,2.7705,2.7743,2.7736,2.7866,2.8187,2.6918,2.5837,2.502,2.4351,2.283,2.0372,1.8914,1.7291,0.0,0.0,0.0,0.0,0.0,0.0,2.1443,2.3381,2.419,2.419,2.419,2.419,2.4263,2.4944,2.5201,2.5293,2.5933,2.5328,2.419,2.419,2.419,2.4318,2.4921,2.4644,2.435,2.5625,2.4783,2.3476,2.391,2.3179,2.2287,2.2304,2.2298,2.2308,2.2293,2.2304,2.2276,2.2141,2.2226,2.2124,2.1498,2.0737,2.0069,0.0,0.0,0.0,0.0,0.0,0.0,0.0,0.0,1.7456,1.524,1.5138,1.4817,1.387,1.4344,1.5883,1.8555,1.8504,1.9536,2.204,2.2243,2.231,2.231,2.3038,2.3765,2.4523,2.5253,2.5998,2.6691,2.6691,2.6691,2.6691,2.6691,2.6691,2.6691,2.6691,2.6691,2.6691,2.6691,2.6691,2.6776,2.7385,2.8112,2.8789,1.7681,1.8876,2.0602,2.2057,2.231,2.3333,2.6366,2.6518,2.6417,2.6817,2.6623,2.6654,2.7309,2.8178,2.8677,2.8617,2.8526,2.8507,2.8599,2.8599,2.8732,2.8975,2.7846,2.6854,2.6033,2.5237,2.4024,2.2425,2.0351,1.8515,1.6925,1.5695,0.0,1.5231,0.0,2.0126,0.0,2.4153,2.4829,2.4844,2.5285,2.5438,2.5493,2.5864,2.6027,2.6075,2.6457,2.6093,2.5438,2.5438,2.5438,2.5511,2.5897,2.575,2.5603,2.6379,2.5753,2.4769,2.449,2.4306,2.4288,2.4516,2.4305,2.3706,2.255,2.2303,2.2298,2.2299,2.231,2.2192,2.1837,2.1465,2.1075,2.0686,2.0314,2.0061,2.0002,0.0,1.9198,0.0,0.0,0.0,0.0,1.5375,1.4986,1.3515,1.409,1.546,1.7625,1.8149,1.9401,2.1651,2.2107,2.2496,2.2868,2.3596,2.4323,2.5067,2.5812,2.6353,2.6691,2.6691,2.6691,2.6691,2.6691,2.6691,2.6691,2.6691,2.6691,2.6691,2.6691,2.6928,2.7317,2.7654,2.8569,2.9567,1.908,2.0908,2.2703,2.2703,2.3265,2.491,2.8456,2.8507,2.7992,2.7619,2.7262,2.7211,2.763,2.8179,2.8677,2.8957,2.8994,2.8994,2.8994,2.8994,2.8994,2.8994,2.8393,2.7679,2.6877,2.6222,2.5257,2.395,2.1999,2.0019,1.8081,0.0,0.0,0.0,1.9549,2.1712,2.3361,2.48,2.5505,2.5723,2.6341,2.6609,2.6603,2.6804,2.6854,2.6874,2.7039,2.712,2.7126,2.7126,2.6888,2.6631,2.6796,2.6741,2.667,2.7025,2.6636,2.5978,2.5407,2.5616,2.6134,2.6791,2.6375,2.5381,2.3617,2.2761,2.2333,2.249,2.2412,2.231,2.231,2.231,2.2073,2.1312,2.1204,2.0974,2.0348,0.0,1.9748,0.0,0.0,0.0,1.5223,1.5206,1.4885,1.3735,1.4022,1.5054,1.6851,1.8031,1.9519,2.1363,2.2006,2.2649,2.3393,2.412,2.4864,2.5609,2.6353,2.6691,2.6691,2.6691,2.6691,2.6691,2.6691,2.6691,2.6691,2.6691,2.6691,2.6708,2.686,2.73,2.7823,2.8161,2.9096,3.0241,2.1938,2.3024,2.4034,2.4034,2.6425,2.8492,2.8938,2.8929,2.8651,2.7954,2.7816,2.8041,2.8755,2.8897,2.8957,2.8994,2.8994,2.8994,2.8994,2.8994,2.8994,2.8994,2.8938,2.8507,2.772,2.7616,2.6118,2.3103,2.2886,2.1167,1.8115,1.869,1.9344,2.0107,2.1187,2.2592,2.4153,2.5021,2.5819,2.6486,2.6582,2.6615,2.6681,2.7405,2.7687,2.7787,2.8498,2.8773,2.8773,2.8773,2.7824,2.6741,2.7457,2.7187,2.6878,2.836,2.7506,2.637,2.7684,2.7032,2.63,2.7484,2.7186,2.6553,2.6344,2.4211,2.2484,2.3161,2.2767,2.231,2.231,2.231,2.2073,2.1312,2.1204,2.1187,2.1119,2.1102,2.0771,1.99,0.0,0.0,1.6665,1.5341,1.4545,1.4393,1.3836,1.4716,1.7557,1.7845,1.9232,2.2124,2.2276,2.2649,2.3393,2.412,2.4864,2.5609,2.6353,2.6691,2.6691,2.6691,2.6691,2.6691,2.6691,2.6691,2.6691,2.6691,2.6691,2.6759,2.7452,2.7722,2.7958,2.9381,3.0219,3.068,2.5796,2.8288,2.9953,2.9953,3.1035,3.188,3.188,3.188,3.1777,3.1483,2.9746,2.8675,2.8965,2.8994,2.8994,2.8994,2.8994,2.8994,2.8994,2.8994,2.8994,2.8994,2.8994,2.8865,2.8526,2.8036,2.7173,2.5877,2.4441,2.2794,2.1024,2.0341,2.0726,2.2061,2.3382,2.4577,2.5688,2.6505,2.7017,2.7364,2.7848,2.8031,2.8077,2.8393,2.8525,2.8576,2.8865,2.8994,2.8994,2.8994,2.8553,2.8117,2.8429,2.8282,2.8176,2.8815,2.8433,2.7926,2.8311,2.8103,2.7861,2.8026,2.7631,2.7097,2.6754,2.5336,2.3964,2.3693,2.2931,2.231,2.231,2.231,2.2209,2.1904,2.1854,2.1854,2.1854,2.1854,0.0,2.0805,0.0,1.8995,1.7507,1.6035,1.5341,1.5781,1.4328,1.4497,1.6999,1.7557,1.8978,2.1549,2.2073,2.2868,2.4066,2.4371,2.5084,2.6251,2.6556,2.6691,2.6691,2.6691,2.6691,2.6691,2.6691,2.6858,2.7019,2.6808,2.7261,2.8154,2.8196,2.8918,3.0051,3.0645,3.1253,3.1792,2.9514,3.2247,3.3807,3.3807,3.3807,3.3807,3.3807,3.3807,3.3807,3.3807,3.1825,3.0411,3.0411,3.0411,3.0411,3.0411,3.0411,3.0411,3.0411,3.0411,3.0204,2.9728,2.9696,2.9711,2.9711,2.892,2.8393,2.815,2.6219,2.4737,2.3674,2.2497,2.2702,2.4121,2.525,2.6197,2.6997,2.7555,2.7944,2.8187,2.8769,2.8994,2.8994,2.8994,2.8994,2.8994,2.8994,2.8994,2.8994,2.8994,2.8994,2.8994,2.8994,2.8994,2.8994,2.8994,2.8994,2.8938,2.8659,2.8769,2.892,2.8526,2.8063,2.7566,2.7058,2.6063,2.492,2.3909,2.2948,2.231,2.231,2.231,2.2243,2.2023,2.2175,2.2226,2.2006,2.2175,0.0,2.1305,2.0297,1.9283,1.8234,1.6779,1.6221,1.6965,1.5578,1.5561,1.7557,1.776,1.8944,2.1431,2.2243,2.3224,2.4506,2.4712,2.5439,2.6691,2.6691,2.6758,2.6873,2.6987,2.7051,2.7051,2.7051,2.7192,2.7457,2.742,2.8084,2.9113,2.9299,3.0205,3.1448,3.1629,3.2136,3.2681,3.2812,3.377,3.3807,3.3807,3.3807,3.3807,3.3807,3.3807,3.3807,3.3807,3.377,3.3733,3.3733,3.3733,3.3733,3.3733,3.3733,3.3733,3.3733,3.3733,3.303,3.1428,3.1366,3.1372,3.1372,3.0577,2.9766,2.8975,2.815,2.6955,2.5373,2.5355,2.5766,2.6558,2.6576,2.7027,2.7775,2.7793,2.8265,2.8975,2.8994,2.8994,2.8994,2.8994,2.8994,2.8994,2.8994,2.8994,2.8994,2.8994,2.8994,2.8994,2.8994,2.8994,2.8994,2.8994,2.8994,2.8994,2.8975,2.8994,2.8994,2.8975,2.8595,2.8067,2.7604,2.6304,2.4854,2.3663,2.2818,2.231,2.231,2.231,2.2073,2.1339,2.182,2.2057,2.1322,2.1837,2.204,2.1305,1.9841,1.891,1.8877,1.7562,1.6982,1.7743,1.7755,1.838,1.9883,1.8582,1.9198,2.2209,2.3004,2.3748,2.4506,2.522,2.5964,2.6691,2.6691,2.6906,2.7303,2.7707,2.7897,2.7897,2.7897,2.7897,2.795,2.8741,2.9089,2.9249,3.0774,3.1395,3.1469,3.2216,3.2777,3.3124,3.3488,3.3807,3.3807,3.3807,3.3807,3.3807,3.3807,3.3807,3.4087,3.487,3.4962,3.4962,3.4962,3.4962,3.4962,3.4962,3.4242,3.3807,3.3807,3.4191,3.4199,3.3668,3.257,3.1939,3.1939,3.1503,3.1182,3.0919,2.9918,2.8897,2.7886,2.8408,2.8813,2.909,2.9637,3.001,3.0259,3.0259,3.0388,3.0632,3.0632,3.0632,3.0632,3.0632,3.0632,3.0632,3.0632,3.0632,3.0632,3.0632,3.0632,3.0632,3.0632,2.9881,2.8994,2.8994,2.8994,2.8994,2.8994,2.8994,2.8994,2.8994,2.8677,2.8297,2.8152,2.7155,2.5958,2.4793,2.3988,2.3234,2.2451,2.231,2.2226,2.1989,2.2158,2.2226,2.1989,2.2158,2.2226,2.1972,2.1059,2.045,2.045,1.908,1.8504,1.9241,1.8363,1.8234,1.9198,1.9275,2.0204,2.2243,2.3021,2.4002,2.5236,2.574,2.6375,2.7115,2.7396,2.7607,2.7707,2.784,2.7897,2.7933,2.8475,2.8831,2.9107,2.9686,3.0532,3.1502,3.1766,3.2347,3.3055,3.3281,3.3476,3.3578,3.3807,3.3807,3.3928,3.4357,3.4445,3.4445,3.4445,3.4445,3.4696,3.5398,3.5493,3.5493,3.5493,3.5493,3.5493,3.5493,3.4851,3.4445,3.4445,3.478,3.4999,3.4999,3.3858,3.3183,3.3138,3.256,3.2247,3.225,3.117,3.04,2.9905,3.0418,3.0644,3.0662,3.117,3.1397,3.1397,3.1397,3.1397,3.1397,3.1397,3.1397,3.1397,3.1397,3.1397,3.1397,3.1397,3.1397,3.1397,3.1397,3.1397,3.1397,3.1397,3.0699,2.9887,2.9887,2.9887,2.9838,2.9512,2.9439,2.9379,2.9067,2.8712,2.838,2.8246,2.7486,2.6596,2.5883,2.5028,2.4116,2.3117,2.2813,2.2632,2.2361,2.231,2.231,2.231,2.231,2.2209,2.1921,2.1465,2.1059,2.0771,2.0145,1.9942,2.0433,1.9858,1.9738,2.0294,2.0136,2.0891,2.2873,2.3653,2.4687,2.6027,2.6574,2.7075,2.753,2.7908,2.8075,2.8102,2.8255,2.847,2.8775,2.9305,2.98,3.0329,3.091,3.1728,3.2606,3.2693,3.3186,3.3807,3.3807,3.3807,3.3807,3.3928,3.3928,3.4242,3.532,3.5493,3.5493,3.5493,3.5493,3.5493,3.5493,3.5493,3.5493,3.5493,3.5493,3.5565,3.5661,3.5584,3.5493,3.5493,3.5493,3.5493,3.5493,3.5147,3.4879,3.477,3.3708,3.3126,3.3085,3.2074,3.1583,3.1583,3.1601,3.1583,3.1583,3.1583,3.1583,3.1583,3.1583,3.1583,3.1583,3.1583,3.1583,3.1583,3.1583,3.1583,3.1583,3.1583,3.1583,3.1583,3.1583,3.1583,3.1583,3.1583,3.1583,3.1546,3.1428,3.141,3.1245,3.0496,3.0294,3.0094,2.9269,2.8761,2.8368,2.8065,2.7459,2.6926,2.6845,2.6001,2.5,2.4145,2.3676,2.3185,2.2429,2.231,2.231,2.231,2.231,2.204,2.1383,2.1298,2.1027,2.0281,2.09,2.1351,2.1351,2.2021,2.2549,2.2807,2.1267,2.1524,2.4033,2.4833,2.5768,2.6862,2.7571,2.7954,2.7982,2.8344,2.8518,2.8536,2.8967,2.9586,3.0283,3.0338,3.0797,3.1549,3.2357,3.2687,3.2761,3.3513,3.3807,3.3807,3.3807,3.3807,3.3807,3.5102,3.5102,3.5187,3.5446,3.5493,3.5493,3.5493,3.5493,3.5493,3.5493,3.5493,3.5493,3.5493,3.5493,3.6026,3.7296,3.6238,3.5493,3.5493,3.5493,3.5493,3.5493,3.5397,3.5331,3.5311,3.4856,3.4375,3.3925,3.3652,3.3423,3.3258,3.3423,3.3423,3.324,3.324,3.324,3.324,3.324,3.324,3.324,3.324,3.324,3.324,3.324,3.324,3.324,3.324,3.324,3.324,3.324,3.324,3.324,3.324,3.324,3.2985,3.1773,3.141,3.1346,3.1181,3.1121,3.0925,3.0118,2.9368,2.8839,2.8767,2.8597,2.8221,2.7373,2.6986,2.6211,2.4339,2.3925,2.3519,2.2485,2.231,2.231,2.231,2.231,2.232,2.2358,2.235,2.2383,2.2439,2.2604,2.2751,2.2799,2.3495,2.396,2.4067,2.4186,2.4531,2.5138,2.5976,2.6798,2.7614,2.8067,2.8438,2.8743,2.9442,2.9759,2.9795,3.0516,3.0944,3.1146,3.177,3.2155,3.2394,3.3183,3.3532,3.3532,3.3733,3.3807,3.3807,3.3807,3.3807,3.3807,3.5493,3.5493,3.5988,3.7526,3.7796,3.7796,3.7796,3.7796,3.7796,3.7796,3.7796,3.7796,3.7796,3.7796,3.8142,3.9065,3.7603,3.6546,3.6295,3.6507,3.6757,3.7007,3.7007,3.6892,3.6661,3.5988,3.5247,3.4439,3.4439,3.4352,3.4214,3.4365,3.4338,3.4209,3.4209,3.4209,3.4209,3.4054,3.3981,3.3981,3.3844,3.3807,3.3807,3.3807,3.3807,3.3807,3.3807,3.3807,3.3807,3.3807,3.3807,3.3807,3.3807,3.3807,3.3615,3.2738,3.2492,3.2428,3.2041,3.1946,3.1751,3.0944,3.0136,2.9549,2.9549,2.925,2.8824,2.8208,2.7937,2.7342,2.5796,2.505,2.4366,2.3405,2.2963,2.2712,2.2712,2.2712,2.2773,2.2923,2.3263,2.3548,2.372,2.4063,2.43,2.4349,2.4715,2.5031,2.5219,2.596,2.6365,2.6322,2.677,2.7466,2.8386,2.8583,2.8956,2.9549,2.9989,3.0393,3.076,3.1201,3.1586,3.1971,3.2412,3.2816,3.3183,3.3623,3.3807,3.3807,3.3807,3.3807,3.3807,3.3807,3.3807,3.3807,3.5493,3.5911,3.7161,3.9988,4.0489,4.0489,4.0489,4.0489,4.0489,4.0489,4.0489,4.0489,4.0489,4.0489,4.0489,4.0489,3.92,3.8084,3.7373,3.7757,3.8238,3.8777,3.8796,3.8546,3.8007,3.7002,3.6039,3.5126,3.5126,3.5122,3.5095,3.5117,3.5107,3.507,3.507,3.507,3.5052,3.4767,3.4641,3.4631,3.4393,3.4278,3.4238,3.4238,3.4201,3.4174,3.4183,3.4183,3.4156,3.4036,3.3981,3.3962,3.3844,3.3807,3.3807,3.3807,3.3807,3.3642,3.2981,3.2706,3.2449,3.1751,3.098,3.0375,3.0375,2.9769,2.9177,2.9177,2.8798,2.8261,2.7447,2.6348,2.5336,2.4523,2.3726,2.3189,2.3189,2.3295,2.3389,2.3454,2.4171,2.4675,2.4724,2.5337,2.579,2.5915,2.5915,2.611,2.6512,2.7187,2.7574,2.7574,2.7574,2.8015,2.8975,2.9104,2.9531,3.021,3.0448,3.0925,3.1586,3.1696,3.2137,3.2797,3.2797,3.3183,3.3807,3.3807,3.3807,3.3807,3.3807,3.3807,3.3807,3.3807,3.3807,3.3807,3.5493,3.7777,3.9892,4.0412,4.0489,4.0489,4.0489,4.0489,4.0489,4.0489,4.0489,4.0489,4.0489,4.0489,4.0489,4.0489,4.0258,3.9469,3.7969,3.795,3.8238,3.8777,3.8796,3.8546,3.8007,3.7593,3.7315,3.7156,3.7156,3.703,3.6824,3.703,3.7041,3.6814,3.6814,3.6814,3.6814,3.6757,3.6746,3.6734,3.669,3.6506,3.6236,3.6251,3.6104,3.5907,3.5926,3.5901,3.5817,3.5046,3.4797,3.4705,3.4017,3.3807,3.3807,3.3807,3.3807,3.377,3.3642,3.3128,3.2577,3.2449,3.1806,3.1201,3.1201,3.0595,3.0008,3.0008,2.9428,2.8584,2.7514,2.658,2.5668,2.4573,2.3726,2.3189,2.3189,2.3797,2.4319,2.4595,2.5342,2.5963,2.6224,2.6374,2.6721,2.7419,2.7474,2.7766,2.8526,2.8672,2.8745,2.8745,2.8745,2.8824,2.8994,2.9677,3.0081,3.0228,3.1586,3.2302,3.2449,3.3128,3.3495,3.3605,3.3605,3.3678,3.3807,3.3807,3.3807,3.3807,3.3807,3.3807,3.3807,3.3807,3.3807,3.3807,3.818,3.9431,4.0489,4.0489,4.0489,4.0489,4.0489,4.0489,4.0489,4.0489,4.0489,4.0489,4.0489,4.0489,4.0489,4.0489,4.0489,4.0162,3.9392,3.9354,3.945,3.97,3.9719,3.9392,3.8723,3.8584,3.8296,3.782,3.782,3.7743,3.7627,3.7762,3.7743,3.7627,3.7627,3.7627,3.7627,3.7493,3.7422,3.7409,3.7269,3.7012,3.671,3.6693,3.652,3.6291,3.6292,3.6304,3.6248,3.582,3.5695,3.5624,3.5265,3.5155,3.5055,3.4596,3.4137,3.3807,3.3807,3.3532,3.3256,3.3256,3.2651,3.2045,3.2045,3.1421,3.0852,3.0852,3.021,2.9483,2.8943,2.7843,2.685,2.6312,2.5185,2.4552,2.4986,2.4964,2.5157,2.5739,2.653,2.7086,2.7215,2.764,2.8062,2.8429,2.8448,2.8613,2.8975,2.8994,2.8994,2.8994,2.9439,2.9659,2.9659,3.0448,3.1054,3.1513,3.2265,3.2834,3.3256,3.3623,3.3807,3.3807,3.3807,3.3807,3.3807,3.3807,3.3807,3.3807,3.3807,3.3807,3.3807,3.3807,3.3807,3.3807,4.0489,4.0489,4.0489,4.0489,4.0489,4.0489,4.0489,4.0489,4.0489,4.0489,4.0489,4.0489,4.0489,4.0489,4.0489,4.0489,4.0489,4.0489,4.0489,4.0489,4.0489,4.0489,4.0489,4.0219,3.9588,3.9588,3.9246,3.8577,3.8577,3.8577,3.8577,3.8577,3.8577,3.8577,3.8577,3.8577,3.8577,3.8351,3.8274,3.8255,3.8047,3.7793,3.7483,3.7487,3.7272,3.696,3.6941,3.6918,3.6845,3.6644,3.6577,3.6556,3.6373,3.6311,3.6174,3.5514,3.4871,3.4302,3.3917,3.3807,3.3807,3.3807,3.3348,3.2889,3.2889,3.2265,3.1678,3.1678,3.1035,3.0485,3.0485,2.9163,2.8081,2.8081,2.6722,2.5878,2.6521,2.6227,2.619,2.6814,2.7585,2.8081,2.8081,2.865,2.8994,2.8994,2.8994,2.8994,2.8994,2.9177,2.9365,2.9549,2.9989,3.0283,3.0485,3.1274,3.199,3.2614,3.2797,3.3201,3.3807,3.3807,3.3807,3.3807,3.3807,3.3807,3.3807,3.3807,3.3807,3.3807,3.3807,3.3807,3.3807,3.3807,3.3807,3.3807,4.0489,4.0489,4.0489,4.0489,4.0489,4.0489,4.0489,4.0489,4.0489,4.0489,4.0489,4.0489,4.0489,4.0489,4.0489,4.0489,4.0489,4.0489,4.0489,4.0489,4.0489,4.0489,4.0489,4.0469,4.0412,4.0412,4.0373,4.0315,4.0315,4.0315,4.0315,4.0315,4.0315,4.0315,4.0315,4.0315,4.0315,4.0296,4.0296,4.0277,4.0258,4.0095,3.9863,3.9859,3.9449,3.8904,3.8891,3.8739,3.8401,3.7679,3.7404,3.7276,3.6523,3.6303,3.6285,3.6211,3.6156,3.5771,3.4211,3.3807,3.3807,3.3807,3.3752,3.3715,3.3715,3.3091,3.2522,3.2522,3.1861,3.1311,3.1311,3.0008,2.8902,2.8902,2.7567,2.6539,2.6594,2.7181,2.764,2.7695,2.8429,2.8902,2.8902,2.8957,2.8994,2.8994,2.8994,2.8994,2.8994,2.9714,3.0448,3.1201,3.0558,3.0558,3.1292,3.2118,3.2559,3.2614,3.3366,3.3733,3.3807,3.3807,3.3807,3.3807,3.3807,3.3807,3.3807,3.3807,3.3807,3.3807,3.3807,3.3807,3.3807,3.3807,3.3807,3.3807,4.0489,4.0489,4.0489,4.0489,4.0489,4.0489,4.0489,4.0489,4.0489,4.0489,4.0489,4.0489,4.0489,4.0489,4.0489,4.0489,4.0489,4.0489,4.0489,4.0489,4.0489,4.0489,4.0489,4.0489,4.0489,4.0489,4.0489,4.0489,4.0489,4.0489,4.0489,4.0489,4.0489,4.0489,4.0489,4.0489,4.0489,4.0489,4.0489,4.0489,4.0489,4.0341,4.0099,4.0099,3.981,3.9395,3.941,3.9202,3.8906,3.8609,3.8383,3.8193,3.7881,3.779,3.7698,3.7184,3.6688,3.6156,3.5514,3.4963,3.4431,3.3917,3.3807,3.3807,3.3807,3.3568,3.3348,3.3348,3.2706,3.2137,3.2137,3.1237,3.0485,3.0485,2.9567,2.9017,2.9512,2.9402,2.9475,2.9971,2.9861,2.9953,3.0448,3.0044,2.9953,3.0448,3.0485,3.0485,3.0485,3.0779,3.1311,3.2118,3.1861,3.1843,3.2137,3.2944,3.3348,3.3348,3.3642,3.3807,3.3807,3.3807,3.3807,3.3807,3.3807,3.3807,3.3807,3.3807,3.3807,3.3807,3.3807,3.3807,3.3807,3.3807,3.3807,3.3807,4.0489,4.0489,4.0489,4.0489,4.0489,4.0489,4.0489,4.0489,4.0489,4.0489,4.0489,4.0489,4.0489,4.0489,4.0489,4.0489,4.0489,4.0489,4.0489,4.0489,4.0489,4.0489,4.0489,4.0489,4.0489,4.0489,4.0489,4.0489,4.0489,4.0489,4.0489,4.0489,4.0489,4.0489,4.0489,4.0489,4.0489,4.0489,4.0489,4.0489,4.0489,4.0389,4.0232,4.0213,4.0022,3.9757,3.977,3.9532,3.9257,3.9257,3.9082,3.8815,3.8815,3.8762,3.8609,3.8122,3.7558,3.7,3.6743,3.6248,3.5532,3.4449,3.399,3.3807,3.3807,3.3807,3.3807,3.3807,3.3366,3.2981,3.2981,3.232,3.177,3.177,3.1091,3.076,3.1311,3.0907,3.0779,3.1329,3.0907,3.0797,3.1347,3.0889,3.0797,3.1347,3.1384,3.1513,3.1751,3.177,3.2155,3.2963,3.2981,3.2981,3.2981,3.3532,3.3807,3.3807,3.3807,3.3807,3.3807,3.3807,3.3807,3.3807,3.3807,3.3807,3.3807,3.3807,3.3807,3.3807,3.3807,3.3807,3.3807,3.3807,3.3807,3.3807,4.0489,4.0489,4.0489,4.0489,4.0489,4.0489,4.0489,4.0489,4.0489,4.0489,4.0489,4.0489,4.0489,4.0489,4.0489,4.0489,4.0508,4.0508,4.0508,4.0508,4.0508,4.0508,4.0508,4.0508,4.0489,4.0508,4.0508,4.0508,4.0508,4.0508,4.0508,4.0508,4.0508,4.0508,4.0508,4.0508,4.0508,4.0508,4.0508,4.0508,4.0508,4.0508,4.0508,4.0508,4.0358,4.012,4.012,3.9901,3.9599,3.9599,3.9408,3.908,3.908,3.8923,3.8762,3.9027,3.8923,3.8524,3.7746,3.7507,3.7121,3.544,3.4412,3.3807,3.3807,3.3807,3.3807,3.3807,3.3807,3.3807,3.3807,3.3146,3.2614,3.2614,3.1935,3.1403,3.1403,3.1403,3.1403,3.1403,3.1403,3.1403,3.1403,3.1403,3.1403,3.1403,3.1403,3.177,3.2577,3.2614,3.2981,3.377,3.3788,3.3788,3.3807,3.3788,3.3807,3.3807,3.3788,3.3788,3.3807,3.3788,3.3807,3.3788,3.3807,3.3807,3.3807,3.3807,3.3807,3.3807,3.3807,3.3807,3.3807,3.3807,3.3807,3.3807,4.0489,4.0489,4.0489,4.0489,4.0489,4.0489,4.0489,4.0489,4.0489,4.0489,4.0489,4.0489,4.0489,4.0489,4.0489,4.0489,4.1066,4.1662,4.2277,4.2316,4.214,4.1709,4.169,4.1328,4.0508,4.1289,4.169,4.169,4.1687,4.1901,4.2316,4.2335,4.2008,4.145,4.2047,4.1989,4.145,4.2066,4.2316,4.2316,4.2316,4.2316,4.2316,4.2316,4.2283,4.2215,4.2215,4.1609,4.08,4.08,4.0189,3.9438,3.9438,3.9383,3.9352,3.9432,3.9383,3.927,3.9027,3.8565,3.7766,3.6279,3.5275,3.4651,3.4651,3.4211,3.3807,3.3807,3.3807,3.3807,3.3807,3.3605,3.344,3.344,3.3238,3.3073,3.3073,3.3073,3.3073,3.3073,3.2596,3.2467,3.3018,3.2577,3.2485,3.3036,3.3073,3.3183,3.344,3.344,3.3637,3.4074,3.4093,3.4171,3.4439,3.4005,3.3807,3.3788,3.3986,3.3986,3.3815,3.4232,3.4307,3.4074,3.433,3.442,3.442,3.442,3.442,3.442,3.442,3.442,3.442,3.442,3.442,3.442,4.0489,4.0489,4.0489,4.0489,4.0489,4.0489,4.0489,4.0489,4.0489,4.0489,4.0489,4.0489,4.0489,4.0489,4.0681,4.1123,4.1873,4.2547,4.3066,4.3104,4.2948,4.2579,4.2864,4.2656,4.1857,4.2325,4.2437,4.2206,4.2648,4.3073,4.3415,4.3203,4.2835,4.2335,4.2854,4.2816,4.2354,4.2874,4.3104,4.3104,4.3104,4.3104,4.3104,4.3104,4.3104,4.3104,4.3104,4.2635,4.201,4.201,4.1245,4.0271,4.0271,3.9977,3.9622,3.9754,3.969,3.9599,3.9599,3.9241,3.8681,3.7839,3.6731,3.5876,3.5876,3.5403,3.4874,3.4541,3.4373,3.4192,3.3862,3.3807,3.3807,3.3807,3.3807,3.3807,3.3807,3.3807,3.3807,3.3807,3.3366,3.3275,3.3752,3.3366,3.3293,3.3752,3.3902,3.3961,3.3961,3.4087,3.4237,3.4379,3.4401,3.4508,3.4694,3.4348,3.416,3.416,3.433,3.433,3.416,3.4548,3.4593,3.4401,3.4593,3.4694,3.4694,3.4694,3.4694,3.4694,3.4694,3.4694,3.4694,3.4694,3.4694,3.4694,4.0489,4.0489,4.0489,4.0489,4.0489,4.0489,4.0489,4.0489,4.0489,4.0489,4.0489,4.0546,4.0719,4.0719,4.1143,4.2181,4.2835,4.3201,4.3316,4.3316,4.3316,4.3319,4.4025,4.4314,4.407,4.3561,4.3054,4.2499,4.353,4.4051,4.4051,4.3549,4.3278,4.3201,4.3297,4.3278,4.3201,4.3297,4.3316,4.3316,4.3316,4.3316,4.3316,4.3316,4.3316,4.3316,4.3316,4.3278,4.3201,4.3124,4.2371,4.1456,4.1456,4.0741,3.9962,4.0195,4.0036,3.9785,3.9709,3.969,3.969,3.969,3.8577,3.7463,3.7324,3.7028,3.6547,3.5805,3.5395,3.4917,3.4191,3.4036,3.4027,3.4027,3.3954,3.3917,3.3917,3.3844,3.3807,3.3807,3.3807,3.3815,3.3842,3.3868,3.3868,3.3842,3.4093,3.4246,3.4246,3.4529,3.4714,3.4734,3.4753,3.4734,3.4754,3.4849,3.481,3.4694,3.4714,3.4714,3.4694,3.4734,3.4754,3.4734,3.4754,3.4774,3.4774,3.4774,3.4774,3.4774,3.4774,3.4831,3.4887,3.4887,3.4944,3.5001,4.0489,4.0489,4.0489,4.0489,4.0489,4.0489,4.0489,4.0489,4.0489,4.0489,4.0489,4.1008,4.2393,4.2547,4.2643,4.2874,4.3412,4.4105,4.4989,4.5047,4.5047,4.5066,4.5238,4.5278,4.524,4.5122,4.4987,4.4853,4.5105,4.524,4.524,4.5105,4.4682,4.4066,4.4739,4.4682,4.4085,4.4759,4.5047,4.5047,4.5047,4.5047,4.5047,4.5047,4.5047,4.5047,4.5047,4.4624,4.3932,4.3316,4.2936,4.271,4.271,4.2541,4.2218,4.1618,4.1389,4.1165,4.0492,4.03,4.03,4.03,4.0032,3.9485,3.8391,3.7599,3.7027,3.688,3.6569,3.6278,3.6092,3.5919,3.5752,3.5752,3.5202,3.4734,3.4734,3.4211,3.3807,3.3807,3.3807,3.3876,3.4074,3.4353,3.4398,3.4123,3.4401,3.4593,3.4593,3.4653,3.4812,3.4999,3.4999,3.5105,3.532,3.5952,3.5732,3.4694,3.4926,3.4908,3.4714,3.5157,3.5207,3.5016,3.5242,3.5339,3.5339,3.5339,3.5339,3.5339,3.5339,3.5703,3.6259,3.6259,3.6715,3.729,4.0489,4.0489,4.0489,4.0489,4.0489,4.1046,4.2681,4.2931,4.2931,4.2931,4.2931,4.2662,4.1931,4.3316,4.4278,4.4278,4.4547,4.4951,4.5547,4.5586,4.5586,4.5586,4.5586,4.5586,4.5586,4.5586,4.5586,4.5586,4.5586,4.5586,4.5586,4.5586,4.5355,4.4932,4.5393,4.5336,4.4951,4.5413,4.5586,4.5586,4.5586,4.5586,4.5586,4.5586,4.5586,4.5586,4.5586,4.5297,4.4855,4.4432,4.4008,4.3662,4.3662,4.3412,4.3008,4.2547,4.2431,4.2239,4.1354,4.1123,4.1027,4.0585,4.0489,4.0307,3.9566,3.8994,3.8477,3.8078,3.7734,3.7394,3.7,3.6801,3.6739,3.6739,3.6367,3.6068,3.6068,3.5696,3.5267,3.4852,3.4796,3.4717,3.4461,3.4612,3.4632,3.4445,3.5074,3.5458,3.5458,3.5968,3.6339,3.6492,3.6492,3.6558,3.6699,3.7103,3.6961,3.6268,3.5987,3.5796,3.5658,3.5925,3.6008,3.5898,3.6445,3.6699,3.6699,3.6699,3.6699,3.6699,3.6699,3.6949,3.7315,3.7315,3.7603,3.8046,4.0489,4.0969,4.1354,4.1354,4.1354,4.2316,4.5163,4.5586,4.5586,4.5586,4.5586,4.4509,4.1681,4.3893,4.5586,4.5586,4.5586,4.5586,4.5586,4.5586,4.5586,4.5586,4.5586,4.5586,4.5586,4.5586,4.5586,4.5586,4.5586,4.5586,4.5586,4.5586,4.5586,4.5586,4.5586,4.5586,4.5586,4.5586,4.5586,4.5586,4.5586,4.5586,4.5586,4.5586,4.5586,4.5586,4.5586,4.5586,4.5586,4.5586,4.5124,4.4509,4.4509,4.4066,4.3508,4.3355,4.3316,4.3124,4.2258,4.2027,4.1854,4.1123,4.0816,4.0719,4.0719,4.0435,3.9986,3.9297,3.8916,3.8502,3.7823,3.7648,3.7627,3.7627,3.7494,3.7419,3.7419,3.7286,3.6927,3.6207,3.6173,3.5908,3.5205,3.521,3.5229,3.519,3.6062,3.6585,3.6585,3.7494,3.8007,3.8007,3.8007,3.8007,3.8007,3.8142,3.8219,3.82,3.7488,3.7065,3.693,3.693,3.693,3.6969,3.77,3.8007,3.8007,3.8007,3.8007,3.8007,3.8007,3.8084,3.8238,3.8373,3.843,3.8488,4.0489,4.2874,4.4913,4.4913,4.4913,4.5066,4.5528,4.5586,4.5586,4.5586,4.5586,4.5413,4.4951,4.5316,4.5586,4.5586,4.5586,4.5586,4.5586,4.5586,4.5586,4.5586,4.5586,4.5586,4.5586,4.5586,4.5586,4.5586,4.5586,4.5586,4.5586,4.5586,4.5586,4.5586,4.5586,4.5586,4.5586,4.5586,4.5586,4.5586,4.5586,4.5586,4.5586,4.5586,4.5586,4.5586,4.5586,4.5586,4.5586,4.5586,4.5509,4.5413,4.5413,4.5336,4.5105,4.4355,4.4143,4.3951,4.3143,4.2912,4.2893,4.2777,4.2181,4.1623,4.1623,4.1011,4.0419,4.0303,4.0059,3.9832,3.9737,3.9456,3.926,3.926,3.8697,3.8225,3.8225,3.7624,3.7154,3.7041,3.7223,3.7243,3.6892,3.7276,3.745,3.724,3.7546,3.7771,3.7771,3.7916,3.8007,3.8007,3.8007,3.8007,3.8007,3.8738,3.9123,3.9123,3.8988,3.8546,3.7815,3.7815,3.7815,3.7834,3.795,3.8007,3.8007,3.8007,3.8007,3.8007,3.8007,3.845,3.92,3.9912,4.0162,4.0162,4.3335,4.4547,4.5586,4.5586,4.5586,4.5586,4.5586,4.5586,4.5586,4.5586,4.5586,4.5586,4.5586,4.5586,4.5586,4.5586,4.5586,4.5586,4.5586,4.5586,4.5586,4.5586,4.5586,4.5586,4.5586,4.5586,4.5586,4.5586,4.5586,4.5586,4.5586,4.5586,4.5586,4.5586,4.5586,4.5586,4.5586,4.5586,4.5586,4.5586,4.5586,4.5586,4.5586,4.5586,4.5586,4.5586,4.5586,4.5586,4.5586,4.5586,4.5586,4.5586,4.5586,4.5586,4.5509,4.5143,4.5028,4.4836,4.3989,4.3778,4.3662,4.3201,4.2816,4.2527,4.2527,4.2239,4.1681,4.07,4.0425,4.0321,4.0321,4.0212,4.0101,4.0101,3.9795,3.9566,3.9566,3.926,3.8877,3.8419,3.8046,3.7775,3.7655,3.7859,3.7959,3.7827,3.8385,3.8719,3.8719,3.9142,3.9392,3.9392,3.9392,3.9392,3.9392,3.9777,3.9969,3.9969,3.9969,3.9527,3.8719,3.8719,3.8719,3.8738,3.92,3.9392,3.9392,3.9392,3.9392,3.9392,3.9392,3.9623,4.0008,4.0354,4.0489,4.0489]}]]